[[{"header":{"parameterUnit":"m.s-1","parameterCategory":1,"la1":31.0,"la2":29.5877,"lo1":-88.7671,"lo2":-86.6584,"dy":0.0162,"dx":0.0185,"nx":115,"ny":88,"refTime":"2023-05-03T12:00:00:Z","depth":0,"parameterNumber":2,"parameterNumberName":"U-component_of_WINDS"},"data":[0.0,0.0,0.0,0.0,0.0,0.0,0.0,0.0,0.0,0.0,0.0,0.0,0.0,0.0,0.0,0.0,0.0,0.0,0.0,0.0,0.0,0.0,0.0,0.0,0.0,0.0,0.0,0.0,0.0,0.0,0.0,0.0,0.0,0.0,0.0,0.0,0.0,0.0,0.0,0.0,0.0,0.0,0.0,0.0,0.0,0.0,0.0,0.0,0.0,0.0,0.0,0.0,0.0,0.0,0.0,0.0,0.0,0.0,0.0,0.0,0.0,0.0,0.0,0.0,0.0,0.0,0.0,0.0,0.0,0.0,0.0,0.0,0.0,0.0,0.0,0.0,0.0,0.0,0.0,0.0,0.0,0.0,0.0,0.0,0.0,0.0,0.0,0.0,0.0,0.0,0.0,0.0,0.0,0.0,0.0,0.0,0.0,0.0,0.0,0.0,0.0,0.0,0.0,0.0,0.0,0.0,0.0,0.0,0.0,0.0,0.0,0.0,0.0,0.0,0.0,0.0,0.0,0.0,0.0,0.0,0.0,0.0,0.0,0.0,0.0,0.0,0.0,0.0,0.0,0.0,0.0,0.0,0.0,0.0,0.0,0.0,0.0,0.0,0.0,0.0,0.0,0.0,0.0,0.0,0.0,0.0,0.0,0.0,0.0,0.0,0.0,0.0,0.0,0.0,0.0,0.0,0.0,0.0,0.0,0.0,0.0,0.0,0.0,0.0,0.0,0.0,0.0,0.0,0.0,0.0,0.0,0.0,0.0,0.0,0.0,0.0,0.0,0.0,0.0,0.0,0.0,0.0,0.0,0.0,0.0,0.0,0.0,0.0,0.0,0.0,0.0,0.0,0.0,0.0,0.0,0.0,0.0,0.0,0.0,0.0,0.0,0.0,0.0,0.0,0.0,0.0,0.0,0.0,0.0,0.0,0.0,0.0,0.0,0.0,0.0,0.0,0.0,0.0,0.0,0.0,0.0,0.0,0.0,0.0,0.0,0.0,0.0,0.0,0.0,0.0,0.0,0.0,0.0,0.0,0.0,0.0,0.0,0.0,0.0,0.0,0.0,0.0,0.0,0.0,0.0,0.0,0.0,0.0,0.0,0.0,0.0,0.0,0.0,0.0,0.0,0.0,0.0,0.0,0.0,0.0,0.0,0.0,0.0,0.0,0.0,0.0,0.0,0.0,0.0,0.0,0.0,0.0,0.0,0.0,0.0,0.0,0.0,0.0,0.0,0.0,0.0,0.0,0.0,0.0,0.0,0.0,0.0,0.0,0.0,0.0,0.0,0.0,0.0,0.0,0.0,0.0,0.0,0.0,0.0,0.0,0.0,0.0,0.0,0.0,0.0,0.0,0.0,0.0,0.0,0.0,0.0,0.0,0.0,0.0,0.0,0.0,0.0,0.0,0.0,0.0,0.0,0.0,0.0,0.0,0.0,0.0,0.0,0.0,0.0,0.0,0.0,0.0,0.0,0.0,0.0,0.0,0.0,0.0,0.0,0.0,0.0,0.0,0.0,0.0,0.0,0.0,0.0,0.0,0.0,0.0,0.0,0.0,0.0,0.0,0.0,0.0,0.0,0.0,0.0,0.0,0.0,0.0,0.0,0.0,0.0,0.0,0.0,0.0,0.0,0.0,0.0,0.0,0.0,0.0,0.0,0.0,0.0,0.0,0.0,0.0,0.0,0.0,0.0,0.0,0.0,0.0,0.0,0.0,0.0,0.0,0.0,0.0,0.0,0.0,0.0,0.0,0.0,0.0,0.0,0.0,0.0,0.0,0.0,0.0,0.0,0.0,0.0,0.0,0.0,0.0,0.0,0.0,0.0,0.0,0.0,0.0,0.0,0.0,0.0,0.0,0.0,0.0,0.0,0.0,0.0,0.0,0.0,0.0,0.0,0.0,0.0,0.0,0.0,0.0,0.0,0.0,0.0,0.0,0.0,0.0,0.0,0.0,0.0,0.0,0.0,0.0,0.0,0.0,0.0,0.0,0.0,0.0,0.0,0.0,0.0,0.0,0.0,0.0,0.0,0.0,0.0,0.0,0.0,0.0,0.0,0.0,0.0,0.0,0.0,0.0,0.0,0.0,0.0,0.0,0.0,0.0,0.0,0.0,0.0,0.0,0.0,0.0,0.0,0.0,0.0,0.0,0.0,0.0,0.0,0.0,0.0,0.0,0.0,0.0,0.0,0.0,0.0,0.0,0.0,0.0,0.0,0.0,0.0,0.0,0.0,0.0,0.0,0.0,0.0,0.0,0.0,0.0,0.0,0.0,0.0,0.0,0.0,0.0,0.0,0.0,0.0,0.0,0.0,0.0,0.0,0.0,0.0,0.0,0.0,0.0,0.0,0.0,0.0,0.0,0.0,0.0,0.0,0.0,0.0,0.0,0.0,0.0,0.0,0.0,0.0,0.0,0.0,0.0,0.0,0.0,0.0,0.0,0.0,0.0,0.0,0.0,0.0,0.0,0.0,0.0,0.0,0.0,0.0,0.0,0.0,0.0,0.0,0.0,0.0,0.0,0.0,0.0,0.0,0.0,0.0,0.0,0.0,0.0,0.0,0.0,0.0,0.0,0.0,0.0,0.0,0.0,0.0,0.0,0.0,0.0,0.0,0.0,0.0,0.0,0.0,0.0,0.0,0.0,0.0,0.0,0.0,0.0,0.0,0.0,0.0,0.0,0.0,0.0,0.0,0.0,0.0,0.0,0.0,0.0,0.0,0.0,0.0,0.0,0.0,0.0,0.0,0.0,0.0,0.0,0.0,0.0,0.0,0.0,0.0,0.0,0.0,0.0,0.0,0.0,0.0,0.0,0.0,0.0,0.0,0.0,0.0,0.0,0.0,0.0,0.0,0.0,0.0,0.0,0.0,0.0,0.0,0.0,0.0,0.0,0.0,0.0,0.0,0.0,0.0,0.0,0.0,0.0,0.0,0.0,0.0,0.0,0.0,0.0,0.0,0.0,0.0,0.0,0.0,0.0,0.0,0.0,0.0,0.0,0.0,0.0,0.0,0.0,0.0,0.0,0.0,0.0,0.0,0.0,0.0,0.0,0.0,0.0,0.0,0.0,0.0,0.0,0.0,0.0,0.0,0.0,0.0,0.0,0.0,0.0,0.0,0.0,0.0,0.0,0.0,0.0,0.0,0.0,0.0,0.0,0.0,0.0,0.0,0.0,0.0,0.0,0.0,0.0,0.0,0.0,0.0,0.0,0.0,0.0,0.0,0.0,0.0,0.0,0.0,0.0,0.0,0.0,0.0,0.0,0.0,0.0,0.0,0.0,0.0,0.0,0.0,0.0,0.0,0.0,0.0,0.0,0.0,0.0,0.0,0.0,0.0,0.0,0.0,0.0,0.0,0.0,0.0,0.0,0.0,0.0,0.0,0.0,0.0,0.0,0.0,0.0,0.0,0.0,0.0,0.0,0.0,0.0,0.0,0.0,0.0,0.0,0.0,0.0,0.0,0.0,0.0,0.0,0.0,0.0,0.0,0.0,0.0,0.0,0.0,0.0,0.0,0.0,0.0,0.0,0.0,0.0,0.0,0.0,0.0,0.0,0.0,0.0,0.0,0.0,0.0,0.0,0.0,0.0,0.0,0.0,0.0,0.0,0.0,0.0,0.0,0.0,0.0,0.0,0.0,0.0,0.0,0.0,0.0,0.0,0.0,0.0,0.0,0.0,0.0,0.0,0.0,0.0,0.0,0.0,0.0,0.0,0.0,0.0,0.0,0.0,0.0,0.0,0.0,0.0,0.0,0.0,0.0,0.0,0.0,0.0,0.0,0.0,0.0,0.0,0.0,0.0,0.0,0.0,0.0,0.0,0.0,0.0,0.0,0.0,0.0,0.0,0.0,0.0,0.0,0.0,0.0,0.0,0.0,0.0,0.0,0.0,0.0,0.0,0.0,0.0,0.0,0.0,0.0,0.0,0.0,0.0,0.0,0.0,0.0,0.0,0.0,0.0,0.0,0.0,0.0,0.0,0.0,0.0,0.0,0.0,0.0,0.0,0.0,0.0,0.0,0.0,0.0,0.0,0.0,0.0,0.0,0.0,0.0,0.0,0.0,0.0,0.0,0.0,0.0,0.0,0.0,0.0,0.0,0.0,0.0,0.0,0.0,0.0,0.0,0.0,0.0,0.0,0.0,0.0,0.0,0.0,0.0,0.0,0.0,0.0,0.0,0.0,0.0,0.0,0.0,0.0,0.0,0.0,0.0,0.0,0.0,0.0,0.0,0.0,0.0,0.0,0.0,0.0,0.0,0.0,0.0,0.0,1.293,0.0,0.0,0.0,0.0,0.0,0.0,0.0,0.0,0.0,0.0,0.0,0.0,0.0,0.0,0.0,0.0,0.0,0.0,0.0,0.0,0.0,0.0,0.0,0.0,0.0,0.0,0.0,0.0,0.0,0.0,0.0,0.0,0.0,0.0,0.0,0.0,0.0,0.0,0.0,0.0,0.0,0.0,0.0,0.0,0.0,0.0,0.0,0.0,0.0,0.0,0.0,0.0,0.0,0.0,0.0,0.0,0.0,0.0,0.0,0.0,0.0,0.0,0.0,0.0,0.0,0.0,0.0,0.0,0.0,0.0,0.0,0.0,0.0,0.0,0.0,0.0,0.0,0.0,0.0,0.0,0.0,0.0,0.0,0.0,0.0,0.0,0.0,0.0,0.0,0.0,0.0,0.0,0.0,0.0,0.0,0.0,0.0,0.0,0.0,0.0,0.0,0.0,0.0,0.0,0.0,0.0,0.0,0.0,0.0,0.0,1.4212,1.4041,1.4532,1.4041,1.2409,0.0,0.0,0.0,0.0,0.0,0.0,0.0,0.0,0.0,0.0,0.0,0.0,0.0,0.0,0.0,0.0,0.0,0.0,0.0,0.0,0.0,0.0,0.0,0.0,0.0,0.0,0.0,0.0,0.0,0.0,0.0,0.0,0.0,0.0,0.0,0.0,0.0,0.0,0.0,0.0,0.0,0.0,0.0,0.0,0.0,0.0,0.0,0.0,0.0,0.0,0.0,0.0,0.0,0.0,0.0,0.0,0.0,0.0,0.0,0.0,0.0,0.0,0.0,0.0,0.0,0.0,0.0,0.0,0.0,0.0,0.0,0.0,0.0,0.0,0.0,0.0,0.0,0.0,0.0,0.0,0.0,0.0,0.0,0.0,0.0,0.0,0.0,0.0,0.0,0.0,0.0,0.0,0.0,0.0,0.0,0.0,0.0,0.0,0.0,0.0,0.0,0.0,0.0,0.0,0.0,0.0,0.0,0.0,0.0,0.0,0.0,0.0,1.483,1.4075,1.2025,0.0,0.0,0.0,0.0,0.0,0.0,0.0,0.0,0.0,0.0,0.0,0.0,0.0,0.0,0.0,0.0,0.0,0.0,0.0,0.0,0.0,0.0,0.0,0.0,0.0,0.0,0.0,0.0,0.0,0.0,0.0,0.0,0.0,0.0,0.0,0.0,0.0,0.0,0.0,0.0,0.0,0.0,0.0,0.0,0.0,0.0,0.0,0.0,0.0,0.0,0.0,0.0,0.0,0.0,0.0,0.0,0.0,0.0,0.0,0.0,0.0,0.0,0.0,0.0,0.0,0.0,0.0,0.0,0.0,0.0,0.0,0.0,0.0,0.0,0.0,0.0,0.0,0.0,0.0,0.0,0.0,0.0,0.0,0.0,0.0,0.0,0.0,0.0,0.0,0.0,0.0,0.0,0.0,0.0,0.0,0.0,0.0,0.0,0.0,0.0,0.0,0.0,0.0,0.0,0.0,0.0,0.0,0.0,0.0,0.0,1.4421,1.6357,1.5993,0.0,1.2284,0.0,0.0,0.0,0.0,0.0,0.0,0.0,0.0,0.0,0.0,0.0,0.0,0.0,0.0,0.0,0.0,0.0,0.0,0.0,0.0,0.0,0.0,0.0,0.0,0.0,0.0,0.0,0.0,0.0,0.0,0.0,0.0,0.0,0.0,0.0,0.0,0.0,0.0,0.0,0.0,0.0,0.0,0.0,0.0,0.0,0.0,0.0,0.0,0.0,0.0,0.0,0.0,0.0,0.0,0.0,0.0,0.0,0.0,0.0,0.0,0.0,0.0,0.0,0.0,0.0,0.0,0.0,0.0,0.0,0.0,0.0,0.0,0.0,0.0,0.0,0.0,0.0,0.0,0.0,0.0,0.0,0.0,0.0,0.0,0.0,0.0,0.0,0.0,0.0,0.0,0.0,0.0,0.0,0.0,0.0,0.0,0.0,0.0,0.0,0.0,0.0,0.0,0.0,0.0,0.0,0.0,0.0,0.0,0.0,0.0,1.4447,1.5141,1.4184,1.3009,0.0,0.0,0.0,0.0,0.0,0.0,0.0,0.0,0.0,0.0,0.0,0.0,0.0,0.0,0.0,0.0,0.0,0.0,0.0,0.0,0.0,0.0,0.0,0.0,0.0,0.0,0.0,0.0,0.0,0.0,0.0,0.0,0.0,0.0,0.0,0.0,0.0,0.0,0.0,0.0,0.0,0.0,0.0,0.0,0.0,0.0,0.0,0.0,0.0,0.0,0.0,0.0,0.0,0.0,0.0,0.0,0.0,0.0,0.0,0.0,0.0,0.0,0.0,0.0,0.0,0.0,0.0,0.0,0.0,0.0,0.0,0.0,0.0,0.0,0.0,0.0,0.0,0.0,0.0,0.0,0.0,0.0,0.0,0.0,0.0,0.0,0.0,0.0,0.0,0.0,0.0,0.0,0.0,0.0,0.0,0.0,0.0,0.0,0.0,0.0,0.0,0.0,0.0,0.0,0.0,0.0,0.0,0.0,0.0,0.0,1.4332,1.4413,1.4432,1.3033,1.1951,1.1349,0.0,0.0,0.0,0.0,0.0,0.0,0.0,0.0,0.0,0.0,0.0,0.0,0.0,0.0,0.0,0.0,0.0,0.0,0.0,0.0,0.0,0.0,0.0,0.0,0.0,0.0,0.0,0.0,0.0,0.0,0.0,0.0,0.0,0.0,0.0,0.0,0.0,0.0,0.0,0.0,0.0,0.0,0.0,0.0,0.0,0.0,0.0,0.0,0.0,0.0,0.0,0.0,0.0,0.0,0.0,0.0,0.0,0.0,0.0,0.0,0.0,0.0,0.0,0.0,0.0,0.0,0.0,0.0,0.0,0.0,0.0,0.0,0.0,0.0,0.0,0.0,0.0,0.0,0.0,0.0,0.0,0.0,0.0,0.0,0.0,0.0,0.0,0.0,0.0,0.0,0.0,0.0,0.0,0.0,0.0,0.0,0.0,0.0,0.0,0.0,0.0,0.0,0.0,0.0,0.0,0.0,0.0,0.0,1.6247,1.4679,1.4323,1.5404,1.3616,1.2293,0.0,0.0,0.0,0.0,0.0,0.0,0.0,0.0,0.0,0.0,0.0,0.0,0.0,0.0,0.0,0.0,0.0,0.0,0.0,0.0,0.0,0.0,0.0,0.0,0.0,0.0,0.0,0.0,0.0,0.0,0.0,0.0,0.0,0.0,0.0,0.0,0.0,0.0,0.0,0.0,0.0,0.0,0.0,0.0,0.0,0.0,0.0,0.0,0.0,0.0,0.0,0.0,0.0,0.0,0.0,0.0,0.0,0.0,0.0,0.0,0.0,0.0,0.0,0.0,0.0,0.0,0.0,0.0,0.0,0.0,0.0,0.0,0.0,0.0,0.0,0.0,0.0,0.0,0.0,0.0,0.0,0.0,0.0,0.0,0.0,0.0,0.0,0.0,0.0,0.0,0.0,0.0,0.0,0.0,0.0,0.0,0.0,0.0,0.0,0.0,0.0,0.0,0.0,0.0,0.0,0.0,0.0,0.0,0.0,1.5358,1.4681,1.4409,1.4652,1.3376,1.2284,0.0,0.0,0.0,0.0,0.0,0.0,0.0,0.0,0.0,0.0,0.0,0.0,0.0,0.0,0.0,0.0,0.0,0.0,0.0,0.0,0.0,0.0,0.0,0.0,0.0,0.0,0.0,0.0,0.0,0.0,0.0,0.0,0.0,0.0,0.0,0.0,0.0,0.0,0.0,0.0,0.0,0.0,0.0,0.0,0.0,0.0,0.0,0.0,0.0,0.0,0.0,0.0,0.0,0.0,0.0,0.0,0.0,0.0,0.0,0.0,0.0,0.0,0.0,0.0,0.0,0.0,0.0,0.0,0.0,0.0,0.0,0.0,0.0,0.0,0.0,0.0,0.0,0.0,0.0,0.0,0.0,0.0,0.0,0.0,0.0,0.0,0.0,0.0,0.0,0.0,0.0,0.0,0.0,0.0,0.0,0.0,0.0,0.0,0.0,0.0,0.0,0.0,0.0,0.0,0.0,0.0,0.0,0.0,0.0,1.476,0.0,1.4729,1.4246,1.3238,1.2147,0.0,0.0,0.0,0.0,0.0,0.0,0.0,0.0,0.0,0.0,0.0,0.0,0.0,0.0,0.0,0.0,0.0,0.0,0.0,0.0,0.0,0.0,0.0,0.0,0.0,0.0,0.0,0.0,0.0,0.0,0.0,0.0,0.0,0.0,0.0,0.0,0.0,0.0,0.0,0.0,0.0,0.0,0.0,0.0,0.0,0.0,0.0,0.0,0.0,0.0,0.0,0.0,0.0,0.0,0.0,0.0,0.0,0.0,0.0,0.0,0.0,0.0,0.0,0.0,0.0,0.0,0.0,0.0,0.0,0.0,0.0,0.0,0.0,0.0,0.0,0.0,0.0,0.0,0.0,0.0,0.0,0.0,0.0,0.0,0.0,0.0,0.0,0.0,0.0,0.0,0.0,0.0,0.0,0.0,0.0,0.0,0.0,0.0,0.0,0.0,0.0,0.0,0.0,0.0,0.0,0.0,0.0,0.0,1.4114,1.4673,1.5277,1.5138,1.4415,1.3268,1.1874,0.0,0.0,0.0,0.0,0.0,0.0,0.0,0.0,0.0,0.0,0.0,0.0,0.0,0.0,0.0,0.0,0.0,0.0,0.0,0.0,0.0,0.0,0.0,0.0,0.0,0.0,0.0,0.0,0.0,0.0,0.0,0.0,0.0,0.0,0.0,0.0,0.0,0.0,0.0,0.0,0.0,0.0,0.0,0.0,0.0,0.0,0.0,0.0,0.0,0.0,0.0,0.0,0.0,0.0,0.0,0.0,0.0,0.0,0.0,0.0,0.0,0.0,0.0,0.0,0.0,0.0,0.0,0.0,0.0,0.0,0.0,0.0,0.0,0.0,0.0,0.0,0.0,0.0,0.0,0.0,0.0,0.0,0.0,0.0,0.0,0.0,0.0,0.0,0.0,0.0,0.0,0.0,0.0,0.0,0.0,0.0,0.0,0.0,0.0,0.0,0.0,0.0,0.0,0.0,0.0,0.0,0.0,0.0,0.0,1.4016,1.377,1.385,1.4181,1.2618,1.1535,0.0,0.0,0.0,0.0,0.0,0.0,0.0,0.0,0.0,0.0,0.0,0.0,0.0,0.0,0.0,0.0,0.0,0.0,0.0,0.0,0.0,0.0,0.0,0.0,0.0,0.0,0.0,0.0,0.0,0.0,0.0,0.0,0.0,0.0,0.0,0.0,0.0,0.0,0.0,0.0,0.0,0.0,0.0,0.0,0.0,0.0,0.0,0.0,0.0,0.0,0.0,0.0,0.0,0.0,0.0,0.0,0.0,0.0,0.0,0.0,0.0,0.0,0.0,0.0,0.0,0.0,0.0,0.0,0.0,0.0,0.0,0.0,0.0,0.0,0.0,0.0,0.0,0.0,0.0,0.0,0.0,0.0,0.0,0.0,0.0,0.0,0.0,0.0,0.0,0.0,0.0,0.0,0.0,0.0,0.0,0.0,0.0,0.0,0.0,0.0,0.0,0.0,0.0,0.0,0.0,0.0,0.0,0.0,0.0,1.3272,1.3386,1.3696,1.4189,1.2604,1.1435,1.0807,0.0,0.0,0.0,0.0,0.0,0.0,0.0,0.0,0.0,0.0,0.0,0.0,0.0,0.0,0.0,0.0,0.0,0.0,0.0,0.0,0.0,0.0,0.0,0.0,0.0,0.0,0.0,0.0,0.0,0.0,0.0,0.0,0.0,0.0,0.0,0.0,0.0,0.0,0.0,0.0,0.0,0.0,0.0,0.0,0.0,0.0,0.0,0.0,0.0,0.0,0.0,0.0,0.0,0.0,0.0,0.0,0.0,0.0,0.0,0.0,0.0,0.0,0.0,0.0,0.0,0.0,0.0,0.0,0.0,0.0,0.0,0.0,0.0,0.0,0.0,0.0,0.0,0.0,0.0,0.0,0.0,0.0,0.0,0.0,0.0,0.0,0.0,0.0,0.0,0.0,0.0,0.0,0.0,0.0,0.0,0.0,0.0,0.0,0.0,0.0,0.0,0.0,0.0,0.0,0.0,0.0,0.0,0.0,1.2596,1.3973,1.453,1.4141,1.2969,1.1541,0.0,0.0,0.0,0.0,0.0,0.0,0.0,0.0,0.0,0.0,0.0,0.0,0.0,0.0,0.0,0.0,0.0,0.0,0.0,0.0,0.0,0.0,0.0,0.0,0.0,0.0,0.0,0.0,0.0,0.0,0.0,0.0,0.0,0.0,0.0,0.0,0.0,0.0,0.0,0.0,0.0,0.0,0.0,0.0,0.0,0.0,0.0,0.0,0.0,0.0,0.0,0.0,0.0,0.0,0.0,0.0,0.0,0.0,0.0,0.0,0.0,0.0,0.0,0.0,0.0,0.0,0.0,0.0,0.0,0.0,0.0,0.0,0.0,0.0,0.0,0.0,0.0,0.0,0.0,0.0,0.0,0.0,0.0,0.0,0.0,0.0,0.0,0.0,0.0,0.0,0.0,0.0,0.0,0.0,0.0,0.0,0.0,0.0,0.0,0.0,0.0,0.0,0.0,0.0,0.0,0.0,0.0,0.0,0.0,1.4554,1.4132,1.3845,1.364,1.2,1.084,0.0,0.0,0.0,0.0,0.0,0.0,0.0,0.0,0.0,0.0,0.0,0.0,0.0,0.0,0.0,0.0,0.0,0.0,0.0,0.0,0.0,0.0,0.0,0.0,0.0,0.0,0.0,0.0,0.0,0.0,0.0,0.0,0.0,0.0,0.0,0.0,0.0,0.0,0.0,0.0,0.0,0.0,0.0,0.0,0.0,0.0,0.0,0.0,0.0,0.0,0.0,0.0,0.0,0.0,0.0,0.0,0.0,0.0,0.0,0.0,0.0,0.0,0.0,0.0,0.0,0.0,0.0,0.0,0.0,0.0,0.0,0.0,0.0,0.0,0.0,0.0,0.0,0.0,0.0,0.0,0.0,0.0,0.0,0.0,0.0,0.0,0.0,0.0,0.0,0.0,0.0,0.0,0.0,0.0,0.0,0.0,0.0,0.0,0.0,0.0,0.0,0.0,0.0,0.0,0.0,0.0,0.0,0.0,1.4595,1.3894,1.381,1.3427,1.2701,1.1859,1.0862,0.0,0.0,0.0,0.0,0.0,0.0,0.0,0.0,0.0,0.0,0.0,0.0,0.0,0.0,0.0,0.0,0.0,0.0,0.0,0.0,0.0,0.0,0.0,0.0,0.0,0.0,0.0,0.0,0.0,0.0,0.0,0.0,0.0,0.0,0.0,0.0,0.0,0.0,0.0,0.0,0.0,0.0,0.0,0.0,0.0,0.0,0.0,0.0,0.0,0.0,0.0,0.0,0.0,0.0,0.0,0.0,0.0,0.0,0.0,0.0,0.0,0.0,0.0,0.0,0.0,0.0,0.0,0.0,0.0,0.0,0.0,0.0,0.0,0.0,0.0,0.0,0.0,0.0,0.0,0.0,0.0,0.0,0.0,0.0,0.0,0.0,0.0,0.0,0.0,0.0,0.0,0.0,0.0,0.0,0.0,0.0,0.0,0.0,0.0,0.0,0.0,0.0,0.0,0.0,0.0,0.0,0.0,0.0,1.3947,1.214,1.3218,1.3115,1.171,1.2045,1.112,0.0,0.0,0.0,0.0,0.0,0.0,0.0,0.0,0.0,0.0,0.0,0.0,0.0,0.0,0.0,0.0,0.0,0.0,0.0,0.0,0.0,0.0,0.0,0.0,0.0,0.0,0.0,0.0,0.0,0.0,0.0,0.0,0.0,0.0,0.0,0.0,0.0,0.0,0.0,0.0,0.0,0.0,0.0,0.0,0.0,0.0,0.0,0.0,0.0,0.0,0.0,0.0,0.0,0.0,0.0,0.0,0.0,0.0,0.0,0.0,0.0,0.0,0.0,0.0,0.0,0.0,0.0,0.0,0.0,0.0,0.0,0.0,0.0,0.0,0.0,0.0,0.0,0.0,0.0,0.0,0.0,0.0,0.0,0.0,0.0,0.0,0.0,0.0,0.0,0.0,0.0,0.0,0.0,0.0,0.0,0.0,0.0,0.0,0.0,0.0,0.0,0.0,0.0,0.0,0.0,0.0,0.0,0.0,1.3975,1.3247,1.287,1.2373,1.1758,1.1219,1.0095,0.0,0.0,0.0,0.0,0.0,0.0,0.0,0.0,0.0,0.0,0.0,0.0,0.0,0.0,0.0,0.0,0.0,0.0,0.0,0.0,0.0,0.0,0.0,0.0,0.0,0.0,0.0,0.0,0.0,0.0,0.0,0.0,0.0,0.0,0.0,0.0,0.0,0.0,0.0,0.0,0.0,0.0,0.0,0.0,0.0,0.0,0.0,0.0,1.5425,0.0,0.0,0.0,0.0,0.0,0.0,0.0,0.0,0.0,0.0,0.0,0.0,0.0,0.0,0.0,0.0,0.0,0.0,0.0,0.0,0.0,0.0,0.0,0.0,0.0,0.0,0.0,0.0,0.0,0.0,0.0,0.0,0.0,0.0,0.0,0.0,0.0,0.0,0.0,0.0,0.0,0.0,0.0,0.0,0.0,0.0,0.0,0.0,0.0,0.0,0.0,0.0,0.0,0.0,0.0,0.0,0.0,0.0,0.0,1.342,1.3092,1.2658,1.2017,1.1118,1.0249,0.9384,0.0,0.0,0.0,0.0,0.0,0.0,0.0,0.0,0.0,0.0,0.0,0.0,0.0,0.0,0.0,0.0,0.0,0.0,0.0,0.0,0.0,0.0,0.0,0.0,0.0,0.0,0.0,0.0,0.0,0.0,0.0,0.0,0.0,0.0,0.0,0.0,0.0,0.0,0.0,0.0,0.0,0.0,0.0,0.0,0.0,0.0,0.0,0.0,0.0,0.0,0.0,0.0,0.0,0.0,0.0,0.0,0.0,0.0,0.0,0.0,0.0,0.0,0.0,0.0,0.0,0.0,0.0,0.0,0.0,0.0,0.0,0.0,0.0,0.0,0.0,0.0,0.0,0.0,0.0,0.0,0.0,0.0,0.0,0.0,0.0,0.0,0.0,0.0,0.0,0.0,0.0,0.0,0.0,0.0,0.0,0.0,0.0,0.0,0.0,0.0,0.0,0.0,0.0,0.0,0.0,0.0,0.0,1.305,1.2719,1.2419,1.228,1.1537,1.0151,0.9248,0.871,0.8546,0.0,0.0,0.0,0.0,0.0,0.0,0.0,0.0,0.0,0.0,0.0,0.0,0.0,0.0,0.0,0.0,0.0,0.0,0.0,0.0,0.0,0.0,0.0,0.0,0.0,0.0,0.0,0.0,0.0,0.0,0.0,0.0,0.0,0.0,0.0,0.0,0.0,0.0,1.2652,1.2325,0.0,0.0,0.0,0.0,0.0,0.0,0.0,0.0,1.5814,0.0,0.0,0.0,0.0,0.0,0.0,0.0,0.0,0.0,0.0,0.0,0.0,0.0,0.0,0.0,0.0,0.0,0.0,0.0,0.0,0.0,0.0,0.0,0.0,0.0,0.0,0.0,0.0,0.0,0.0,0.0,0.0,0.0,0.0,0.0,0.0,0.0,0.0,0.0,0.0,0.0,0.0,0.0,0.0,0.0,0.0,0.0,0.0,0.0,0.0,0.0,0.0,0.0,0.0,0.0,0.0,1.3178,1.2823,1.2459,1.2076,1.0983,1.005,0.9237,0.8243,0.7773,0.7832,0.0,0.0,0.0,0.0,0.0,0.0,0.0,0.0,0.0,0.0,0.0,0.0,0.0,0.0,0.0,0.0,0.0,0.0,0.0,0.0,0.0,0.0,0.0,0.0,0.0,0.0,0.0,0.0,0.0,0.0,0.0,0.0,0.0,0.0,0.0,0.0,0.0,0.0,0.0,1.3033,1.3312,0.0,0.0,0.0,0.0,0.0,0.0,0.0,0.0,1.4185,0.0,0.0,0.0,0.0,0.0,0.0,0.0,0.0,0.0,0.0,0.0,0.0,0.0,0.0,0.0,0.0,0.0,0.0,0.0,0.0,0.0,0.0,0.0,0.0,0.0,0.0,0.0,0.0,0.0,0.0,0.0,0.0,0.0,0.0,0.0,0.0,0.0,0.0,0.0,0.0,0.0,0.0,0.0,0.0,0.0,0.0,0.0,0.0,0.0,0.0,0.0,0.0,0.0,0.0,0.0,1.2885,1.2594,1.2182,1.1636,1.0825,0.9889,0.8772,0.7846,0.7363,0.0,0.0,0.0,0.0,0.0,0.0,0.0,0.0,0.0,0.0,0.0,0.0,0.0,0.0,0.0,0.0,0.0,0.0,0.0,0.0,0.0,0.0,0.0,0.0,0.0,0.0,0.0,0.0,0.0,0.0,0.0,0.0,0.0,0.0,0.0,0.0,0.0,0.0,0.0,0.0,1.2684,1.2707,1.2944,0.0,0.0,0.0,0.0,0.0,0.0,1.4403,1.3999,0.0,0.0,0.0,0.0,0.0,0.0,0.0,0.0,0.0,0.0,0.0,0.0,0.0,0.0,0.0,0.0,0.0,0.0,0.0,0.0,0.0,0.0,0.0,0.0,0.0,0.0,0.0,0.0,0.0,0.0,0.0,0.0,0.0,0.0,0.0,0.0,0.0,0.0,0.0,0.0,0.0,0.0,0.0,0.0,0.0,0.0,0.0,0.0,0.0,0.0,0.0,0.0,0.0,0.0,0.0,1.2527,1.2301,1.1849,1.113,1.0731,0.9816,0.8349,0.758,0.7201,0.0,0.0,0.0,0.0,0.0,0.0,0.0,0.0,0.0,0.0,0.0,0.0,0.0,0.0,0.0,0.0,0.0,0.0,0.0,0.0,0.0,0.0,0.0,0.0,0.0,0.0,0.0,0.0,0.0,0.0,0.0,0.0,0.0,0.0,0.0,0.0,0.0,0.0,0.0,0.0,0.0,1.2419,1.2707,1.2991,0.0,0.0,0.0,0.0,1.4725,1.4622,0.0,0.0,0.0,0.0,0.0,0.0,0.0,0.0,0.0,0.0,0.0,0.0,0.0,0.0,0.0,0.0,0.0,0.0,0.0,0.0,0.0,0.0,0.0,0.0,0.0,0.0,0.0,0.0,0.0,0.0,0.0,0.0,0.0,0.0,0.0,0.0,0.0,0.0,0.0,0.0,0.0,0.0,0.0,0.0,0.0,0.0,0.0,0.0,0.0,0.0,0.0,0.0,0.0,0.0,0.0,0.0,1.2004,1.1909,1.1386,1.0461,0.9911,0.901,0.7647,0.7358,0.7201,0.0,0.0,0.0,0.0,0.0,0.0,0.0,0.0,0.0,0.0,0.0,0.0,0.0,0.0,0.0,0.0,0.0,0.0,0.0,0.0,0.0,0.0,0.0,0.0,0.0,0.0,0.0,0.0,0.0,0.0,0.0,0.0,0.0,0.0,0.0,0.0,0.0,0.0,0.0,0.0,0.0,1.3811,1.3301,1.3747,1.4187,0.0,0.0,1.5241,1.4926,1.4672,0.0,0.0,0.0,0.0,0.0,0.0,0.0,0.0,0.0,0.0,0.0,0.0,0.0,0.0,0.0,0.0,0.0,0.0,0.0,0.0,0.0,0.0,0.0,0.0,0.0,0.0,0.0,0.0,0.0,0.0,0.0,0.0,0.0,0.0,0.0,0.0,0.0,0.0,0.0,0.0,0.0,0.0,0.0,0.0,0.0,0.0,0.0,0.0,0.0,0.0,0.0,0.0,0.0,0.0,0.0,1.1972,1.1944,1.1682,1.1122,1.0314,0.9694,0.8834,0.7712,0.7231,0.7113,0.0,0.0,0.0,0.0,0.0,0.0,0.0,0.0,0.0,0.0,0.0,0.0,0.0,0.0,0.0,0.0,0.0,0.0,0.0,0.0,0.0,0.0,0.0,0.0,0.0,0.0,0.0,0.0,0.0,0.0,0.0,0.0,0.0,0.0,0.0,0.0,0.0,0.0,0.0,0.0,0.0,0.0,1.3098,1.3286,0.0,0.0,0.0,1.4642,1.4754,0.0,0.0,0.0,0.0,0.0,0.0,0.0,0.0,0.0,0.0,0.0,0.0,0.0,0.0,0.0,0.0,0.0,0.0,0.0,0.0,0.0,0.0,0.0,0.0,0.0,0.0,0.0,0.0,0.0,0.0,0.0,0.0,0.0,0.0,0.0,0.0,0.0,0.0,0.0,0.0,0.0,0.0,0.0,0.0,0.0,0.0,0.0,0.0,0.0,0.0,0.0,0.0,0.0,0.0,0.0,0.0,0.0,1.1728,1.1357,1.077,0.9966,0.9443,0.8672,0.7671,0.723,0.0,0.0,0.0,0.0,0.0,0.0,0.0,0.0,0.0,0.0,0.0,0.0,0.0,0.0,0.0,0.0,0.0,0.0,0.0,0.0,0.0,0.0,0.0,0.0,0.0,0.0,0.0,1.2211,0.0,0.0,0.0,0.0,0.0,0.0,0.0,0.0,0.0,0.0,0.0,0.0,0.0,0.0,1.3167,1.3215,1.3282,1.3474,0.0,0.0,1.4459,1.4499,1.4219,1.3746,0.0,0.0,0.0,0.0,0.0,0.0,0.0,0.0,0.0,0.0,0.0,0.0,0.0,0.0,0.0,0.0,0.0,0.0,0.0,0.0,0.0,0.0,0.0,0.0,0.0,0.0,0.0,0.0,0.0,0.0,0.0,0.0,0.0,0.0,0.0,0.0,0.0,0.0,0.0,0.0,0.0,0.0,0.0,0.0,0.0,0.0,0.0,0.0,0.0,0.0,0.0,0.0,0.0,0.0,0.0,1.0978,1.0896,1.0203,0.8962,0.8849,0.8332,0.7289,0.7497,0.7793,0.0,0.0,0.0,0.0,0.0,0.0,0.0,0.0,0.0,0.0,0.0,0.0,0.0,0.0,0.0,0.0,0.0,0.0,0.0,0.0,0.0,0.0,0.0,0.0,0.0,0.0,0.0,0.0,0.0,0.0,0.0,0.0,0.0,0.0,0.0,0.0,0.0,0.0,0.0,0.0,0.0,1.4105,1.4101,1.4481,1.4764,0.0,1.5299,1.5269,1.4129,1.4287,1.4043,1.2595,0.0,0.0,0.0,0.0,0.0,0.0,0.0,0.0,0.0,0.0,0.0,0.0,0.0,0.0,0.0,0.0,0.0,0.0,0.0,0.0,0.0,0.0,0.0,0.0,0.0,0.0,0.0,0.0,0.0,0.0,0.0,0.0,0.0,0.0,0.0,0.0,0.0,0.0,0.0,0.0,0.0,0.0,0.0,0.0,0.0,0.0,0.0,0.0,0.0,0.0,0.0,0.0,0.0,1.1001,1.1135,1.022,0.9655,0.9468,0.8747,0.8179,0.7764,0.7922,0.8038,0.0,0.0,0.0,0.0,0.0,0.0,0.0,0.0,0.0,0.0,0.0,0.0,0.0,0.0,0.0,0.0,0.0,0.0,0.0,0.0,0.0,0.0,0.0,0.0,0.0,0.0,0.0,0.0,1.2534,1.2407,1.2465,0.0,0.0,0.0,0.0,0.0,0.0,0.0,0.0,0.0,0.0,1.3967,1.4561,1.4501,0.0,0.0,1.4651,1.4535,1.4575,1.3921,1.3311,1.2974,1.2624,0.0,0.0,0.0,0.0,0.0,0.0,0.0,0.0,0.0,0.0,0.0,0.0,0.0,0.0,0.0,0.0,0.0,0.0,0.0,0.0,0.0,0.0,0.0,0.0,0.0,0.0,0.0,0.0,0.0,0.0,0.0,0.0,0.0,0.0,0.0,0.0,0.0,0.0,0.0,0.0,0.0,0.0,0.0,0.0,0.0,0.0,0.0,0.0,0.0,0.0,0.0,0.0,1.0995,1.1103,0.9985,0.9412,0.9454,0.8617,0.8155,0.8149,0.8344,0.8506,0.0,0.0,0.0,0.0,0.0,0.0,0.0,0.0,0.0,0.0,0.0,0.0,0.0,0.0,0.0,0.0,0.0,0.0,0.0,0.0,0.0,0.0,0.0,0.0,0.0,0.0,0.0,0.0,1.2737,1.2747,1.2202,0.0,0.0,0.0,0.0,0.0,0.0,0.0,0.0,0.0,0.0,1.4014,1.4753,1.476,1.4796,1.5055,1.462,1.4407,1.4851,1.3853,1.3075,1.3116,0.0,0.0,0.0,0.0,0.0,0.0,0.0,0.0,0.0,0.0,0.0,0.0,0.0,0.0,0.0,0.0,0.0,0.0,0.0,0.0,0.0,0.0,0.0,0.0,0.0,0.0,0.0,1.3291,0.0,0.0,1.3273,0.0,0.0,0.0,0.0,0.0,0.0,0.0,0.0,0.0,0.0,0.0,0.0,0.0,0.0,0.0,0.0,0.0,0.0,0.0,0.0,0.0,0.0,1.1502,1.0629,1.0213,0.9519,0.8503,0.8396,0.8316,0.8216,0.878,0.9354,0.9929,0.0,0.0,0.0,0.0,0.0,0.0,0.0,0.0,0.0,0.0,0.0,0.0,0.0,0.0,0.0,0.0,0.0,0.0,0.0,0.0,0.0,0.0,0.0,0.0,0.0,0.0,1.2864,1.2908,1.2671,0.0,0.0,0.0,0.0,0.0,0.0,0.0,0.0,0.0,0.0,1.3959,1.4408,1.4772,1.5508,1.5902,1.5763,1.5617,1.5323,1.4768,1.4218,1.3603,0.0,0.0,0.0,0.0,0.0,0.0,0.0,0.0,0.0,0.0,0.0,0.0,0.0,0.0,0.0,0.0,0.0,0.0,0.0,0.0,0.0,0.0,0.0,0.0,0.0,0.0,0.0,1.4411,1.4772,0.0,0.0,0.0,0.0,0.0,0.0,0.0,0.0,0.0,0.0,0.0,1.1223,1.1599,0.0,0.0,0.0,0.0,0.0,0.0,0.0,0.0,0.0,0.0,0.0,0.0,1.0659,1.0545,0.9407,0.8713,0.8599,0.8472,0.8374,0.8332,0.9136,0.9968,1.0821,0.0,0.0,0.0,0.0,0.0,0.0,0.0,0.0,0.0,0.0,0.0,0.0,0.0,0.0,0.0,0.0,0.0,0.0,0.0,0.0,0.0,0.0,0.0,0.0,0.0,1.2798,0.0,0.0,0.0,0.0,0.0,0.0,0.0,0.0,0.0,0.0,0.0,1.4106,1.4442,1.4436,1.4564,1.5122,1.5219,1.5168,0.0,0.0,0.0,0.0,0.0,0.0,0.0,0.0,0.0,0.0,0.0,0.0,0.0,0.0,1.614,1.4814,1.473,1.4807,1.464,0.0,0.0,0.0,0.0,0.0,0.0,0.0,0.0,0.0,0.0,0.0,0.0,0.0,0.0,1.4462,0.0,1.4217,0.0,0.0,0.0,0.0,0.0,0.0,0.0,0.0,1.1961,1.2156,1.1961,1.2349,1.2467,0.0,1.3119,1.3171,0.0,0.0,0.0,0.0,0.0,0.0,0.0,0.0,1.0502,1.0221,0.9136,0.8609,0.8694,0.8576,0.8689,0.9087,1.0,1.0668,1.1044,1.0999,1.0953,0.0,0.0,0.0,0.0,0.0,0.0,0.0,0.0,0.0,0.0,0.0,0.0,0.0,0.0,0.0,0.0,0.0,0.0,0.0,0.0,0.0,0.0,0.0,1.2947,0.0,0.0,0.0,0.0,0.0,0.0,0.0,0.0,0.0,1.3854,1.4143,1.4568,1.5072,1.4842,1.4761,1.5229,0.0,0.0,0.0,0.0,0.0,0.0,0.0,1.3885,1.4007,1.4237,1.4459,1.4563,1.5525,1.6225,1.6094,0.0,0.0,1.4968,1.4976,1.5121,1.4806,1.5242,1.5697,1.5638,1.5837,1.6016,0.0,0.0,0.0,0.0,0.0,0.0,0.0,0.0,1.384,1.3678,0.0,1.438,0.0,0.0,0.0,0.0,1.2357,1.3035,0.0,0.0,1.2697,1.3,1.3051,1.3079,1.3076,1.3025,1.3132,1.3015,1.2773,1.3729,0.0,0.0,0.0,0.0,0.0,0.0,1.1018,0.9676,0.9434,0.9144,0.8742,0.8703,0.9238,1.034,1.1225,1.1351,1.0696,1.106,1.1074,1.0646,1.0617,0.0,0.0,0.0,0.0,0.0,0.0,0.0,0.0,0.0,0.0,0.0,0.0,0.0,0.0,0.0,0.0,0.0,0.0,0.0,0.0,1.3234,0.0,0.0,0.0,0.0,0.0,0.0,0.0,0.0,0.0,0.0,1.4169,1.4259,1.4598,1.5352,0.0,0.0,0.0,0.0,1.5875,1.5435,1.5582,1.5777,1.5967,1.571,1.5355,1.5022,0.0,0.0,1.5149,1.5761,1.6218,1.5809,1.6173,1.6335,1.6419,1.5962,1.558,1.534,1.5671,1.5897,1.5821,1.6192,1.6407,1.4528,0.0,0.0,0.0,0.0,1.5447,1.5426,1.5212,1.4898,1.4728,1.4725,1.4687,0.0,0.0,0.0,0.0,0.0,0.0,1.3397,1.3391,1.3988,1.4256,1.429,1.4529,1.4402,1.394,1.3958,1.3596,1.2935,1.2884,1.2774,1.2586,0.0,0.0,0.0,0.0,1.0094,0.9793,0.9082,0.8777,0.8906,0.876,0.9289,1.0503,1.0474,1.0698,1.1214,1.1192,1.1059,1.0905,1.0787,0.0,0.0,0.0,0.0,0.0,0.0,0.0,0.0,0.0,0.0,0.0,0.0,0.0,0.0,0.0,0.0,0.0,0.0,0.0,1.3253,1.3449,1.3546,0.0,0.0,0.0,0.0,0.0,0.0,0.0,0.0,0.0,1.4145,1.4505,1.5063,0.0,0.0,1.4438,1.4636,1.4763,1.4544,1.3828,1.4009,0.0,1.3742,1.3962,1.4324,1.479,1.5971,1.6851,1.674,1.737,1.7944,1.7978,1.8355,1.8572,1.8371,1.722,1.6349,1.6344,1.6788,1.7084,1.6918,1.7279,1.7556,1.4956,1.4736,1.525,1.5626,1.5878,1.5935,1.5842,1.5676,1.5287,1.5123,1.5186,1.5207,1.4919,1.4409,1.4458,0.0,0.0,0.0,1.4298,1.4525,1.4998,1.5298,1.5419,1.5221,1.4894,1.448,1.4014,1.3411,1.2694,1.2388,1.2275,1.2291,0.0,0.0,1.1279,1.0412,0.9831,0.952,0.9038,0.8855,0.9,0.9423,0.9991,1.0694,1.0842,1.1113,1.1488,1.1236,1.1023,1.0857,1.0858,1.0841,0.0,0.0,0.0,0.0,0.0,0.0,0.0,0.0,0.0,0.0,0.0,1.2057,1.2107,0.0,0.0,0.0,1.3622,1.3502,1.3575,1.3392,0.0,0.0,0.0,0.0,0.0,0.0,0.0,1.4387,1.4324,1.4337,1.4639,1.4642,1.4877,1.5544,1.4724,1.4081,1.4171,0.0,1.4172,1.3516,1.3721,1.3941,1.3865,1.4147,1.4646,1.5366,1.6441,1.7332,1.7673,1.8211,1.8643,1.8827,1.9038,1.9053,1.8639,1.7601,1.7003,1.7435,1.7942,1.8191,1.7948,1.8336,1.8592,1.5564,1.5135,1.5882,1.6482,1.6893,1.6267,1.5984,1.5927,1.5225,1.5007,1.5203,1.564,1.5557,1.506,1.4923,0.0,1.4472,1.4969,1.5189,1.5274,1.5583,1.5907,1.6166,1.5208,1.4739,1.4674,1.3581,1.2792,1.2314,1.2211,1.1905,1.1419,1.1217,1.0807,1.0258,1.0347,0.9948,0.9033,0.9203,0.9203,0.9025,1.0264,1.0881,1.0826,1.1744,1.1965,1.1464,1.1159,1.0896,1.0672,1.0871,1.1019,1.1035,0.0,0.0,0.0,0.0,0.0,0.0,0.0,0.0,0.0,0.0,0.0,0.0,0.0,0.0,0.0,1.3831,0.0,1.3885,1.3141,0.0,0.0,0.0,1.2829,1.2913,1.3619,1.4121,1.4171,0.0,0.0,1.5206,1.4526,1.4149,1.4362,1.4139,1.3905,1.3707,1.4098,1.4305,1.3861,1.4187,1.4605,1.4884,1.5215,1.5585,1.6167,1.6731,1.7211,1.7838,1.8242,1.846,1.8582,1.8591,1.8406,1.766,1.7517,1.7642,1.8272,1.8742,1.8946,1.8576,1.8923,1.9171,1.7365,1.7492,1.7658,1.6977,1.5762,1.6044,1.5998,1.5783,1.5782,1.5146,1.4104,1.4357,1.3937,1.3025,1.2979,1.3056,1.3256,1.334,1.3699,1.4155,1.4276,1.4476,1.4782,1.4546,1.4271,1.4033,1.3756,1.3398,1.3006,1.231,1.182,1.1538,1.0855,1.0406,1.0201,0.9797,0.9457,0.9236,0.9279,0.9203,0.9005,0.9178,0.9533,1.0118,0.9993,1.0231,1.0932,1.0515,1.0467,1.0872,1.0972,1.1106,1.1286,1.1182,0.0,0.0,0.0,0.0,0.0,0.0,0.0,0.0,0.0,1.2814,1.2987,0.0,1.4345,0.0,1.4245,1.3514,1.3187,1.3069,0.0,0.0,1.3476,1.3906,1.479,1.4462,1.4317,1.4663,1.4294,1.3841,1.3464,1.3034,1.2711,1.2643,1.3231,1.3605,1.3555,1.3629,1.3439,1.2798,1.3233,1.3603,1.3466,1.4309,1.5274,1.5801,1.6414,1.7022,1.7484,1.7657,1.7903,1.8259,1.8417,1.8435,1.8379,1.7952,1.7542,1.7723,1.7967,1.7978,1.7489,1.8164,1.8591,1.7362,1.7498,1.7011,1.614,1.5225,1.6565,1.6943,1.6625,1.6332,1.5597,1.4624,1.4277,1.3787,1.3196,1.319,1.3296,1.345,1.3479,1.368,1.4015,1.4027,1.4123,1.4268,1.3806,1.3497,1.3288,1.2866,1.2509,1.2194,1.1711,1.1367,1.1139,1.0673,1.0418,1.0356,0.9866,0.958,0.9572,0.9266,0.9099,0.9009,0.9075,0.9368,0.9862,0.9646,0.9963,1.0927,1.0493,1.052,1.1156,1.1326,1.1473,1.161,1.1607,1.1583,0.0,0.0,0.0,0.0,0.0,0.0,0.0,0.0,0.0,0.0,0.0,1.4806,1.4573,1.3973,1.3484,1.3193,1.2972,1.2988,1.3362,1.3437,1.3756,1.4589,1.4404,1.4405,1.4766,1.4488,1.4111,1.3705,1.354,1.3321,1.2943,1.3304,1.341,1.2954,1.2952,1.2893,1.2547,1.2856,1.3233,1.3145,1.4032,1.4806,1.5065,1.5542,1.6038,1.6444,1.6779,1.7105,1.741,1.7633,1.7661,1.7452,1.7045,1.6664,1.6525,1.6574,1.6698,1.6878,1.7579,1.788,1.6465,1.6422,1.5447,1.5014,1.5187,1.7152,1.776,1.7352,1.6462,1.5798,1.5348,1.4352,1.3913,1.3908,1.3902,1.3908,1.3908,1.3949,1.3943,1.3908,1.3919,1.3943,1.386,1.2944,1.2514,1.2471,1.1624,1.1109,1.0934,1.0934,1.0849,1.0645,1.0659,1.0636,1.0621,1.027,1.0023,0.9885,0.9313,0.9019,0.9015,0.9327,0.9597,0.9867,0.9887,1.0287,1.1113,1.0753,1.0827,1.1421,1.1754,1.1908,1.1948,1.2149,1.2167,0.0,1.1942,0.0,0.0,0.0,0.0,0.0,0.0,0.0,0.0,1.5453,1.5196,1.3697,1.3529,1.3485,1.3494,1.2976,1.2847,1.3408,1.3249,1.3214,1.3598,1.4048,1.444,1.4689,1.4976,1.5026,1.4534,1.4648,1.4462,1.3781,1.35,1.3108,1.2319,1.2358,1.2605,1.2838,1.2771,1.2955,1.3689,1.4128,1.4339,1.431,1.4558,1.485,1.5358,1.583,1.6194,1.6321,1.6568,1.6523,1.5763,1.5647,1.5476,1.5271,1.5241,1.5511,1.629,1.6899,1.7106,1.5777,1.6026,1.5789,1.571,1.5737,1.6184,1.6002,1.5407,1.4893,1.4172,1.3245,1.2405,1.1944,1.1805,1.1775,1.1795,1.178,1.1964,1.1925,1.18,1.1939,1.1949,1.178,1.158,1.1482,1.1487,1.1292,1.1175,1.1137,1.1137,1.1033,1.0863,1.0858,1.0858,1.082,0.0,0.0,0.0,0.9627,0.9369,0.9165,0.8906,0.9127,0.9781,0.9397,0.0,1.0942,1.0803,1.1021,1.1755,1.1855,0.0,0.0,0.0,0.0,0.0,0.0,0.0,0.0,0.0,0.0,0.0,1.5562,1.5186,1.4367,1.4637,1.4609,1.3951,1.3653,1.3481,1.3499,1.3381,1.3363,1.347,1.3439,1.3631,1.4221,1.4418,1.456,1.4836,1.4924,1.4638,1.395,1.3759,1.3539,1.3016,1.2668,1.2494,1.2314,1.2402,1.2375,1.2099,1.222,1.2662,1.3687,1.3723,1.3777,1.4019,1.4182,1.4468,1.5011,1.5007,1.5188,1.5672,1.5683,1.5519,1.5306,1.502,1.4827,1.4742,1.4716,1.4774,1.4999,1.5637,1.5919,1.4898,1.5013,1.4417,1.4175,0.0,1.4056,1.3885,1.3687,1.394,1.3385,1.2224,1.1817,1.1579,1.1505,1.1505,1.1505,1.151,1.1589,1.1532,1.1364,1.1468,1.1406,1.1194,1.1194,1.1194,1.1194,1.1194,1.1194,1.1194,1.1194,1.1142,1.1042,1.1047,1.1042,1.1038,1.0716,1.0329,0.9852,0.9432,0.9106,0.8929,0.9052,0.9245,0.9501,0.9601,0.0,0.0,0.0,0.0,0.0,0.0,0.0,0.0,1.2581,0.0,1.2783,1.2947,1.3362,1.4077,1.4186,1.4566,1.5358,1.5205,1.4846,1.4387,1.4467,1.4397,1.4023,1.384,1.3825,1.3971,1.3708,1.3642,1.3935,1.3854,1.4008,1.4567,1.4699,1.4745,1.4885,1.5039,1.4878,1.4277,1.4343,1.4106,1.3382,1.3323,1.3201,1.282,1.2493,1.2225,1.2088,1.2426,1.2871,1.3306,1.3365,1.3303,1.3552,1.3608,1.3759,1.4085,1.414,1.4291,1.4784,1.4895,1.4901,1.4885,1.4716,1.4587,1.4587,1.4587,1.4587,1.4605,1.4919,1.5107,1.3894,1.3792,1.2785,1.2382,1.24,1.2208,1.2258,1.2454,0.0,0.0,0.0,1.1834,1.1824,1.1817,1.1817,1.1817,1.1817,1.1855,1.1746,1.1494,1.1557,1.1439,1.1198,1.1194,1.1194,1.1194,1.1194,1.1194,1.1194,1.1194,1.1194,1.1194,1.1194,1.1169,1.1111,1.0695,1.0268,0.984,0.9232,0.8822,0.8706,0.9221,0.9438,0.9307,0.9977,1.0701,1.1428,1.1706,1.205,1.2478,1.2932,1.3073,1.2865,1.3249,1.3503,1.3555,1.385,1.4132,1.4317,1.4387,1.4446,1.458,1.4623,1.4668,1.4642,1.4561,1.4404,1.4165,1.4169,1.4286,1.4543,1.4037,1.3869,1.4379,1.4162,1.4216,1.4737,1.4878,1.4915,1.4995,1.5214,1.5256,1.4854,1.4986,1.4906,1.4171,1.4085,1.4167,1.3464,1.2876,1.2545,1.2515,1.2859,1.3165,1.3052,1.3012,1.3012,1.302,1.3012,1.3036,1.3187,1.3418,1.3736,1.4252,1.4423,1.4581,1.4595,1.4595,1.4587,1.4587,1.4587,1.4587,1.4587,1.4587,1.4623,1.2681,1.2627,1.2463,1.2382,1.2382,1.2354,1.2354,1.2409,1.2534,1.2278,1.1806,1.1989,1.1966,1.1817,1.1817,1.1817,1.1806,1.1954,1.1862,1.1509,1.1699,1.1567,1.1203,1.1194,1.1194,1.1194,1.1194,1.1194,1.1194,1.1194,1.1194,1.1194,1.1194,1.1071,1.085,1.0554,1.0262,0.9983,0.9553,0.9229,0.9042,0.8832,0.9078,0.9691,1.0254,1.0938,1.1728,1.266,1.3257,1.3333,1.3616,1.3759,1.3724,1.3798,1.3905,1.4075,1.4354,1.4586,1.4781,1.5069,1.5133,1.4885,1.511,1.5151,1.4892,1.4619,1.458,1.4752,1.471,1.4783,1.4832,1.4509,1.424,1.4125,1.4037,1.4155,1.4565,1.4789,1.5022,1.5234,1.5373,1.5161,1.4704,1.4631,1.446,1.3851,1.4031,1.4019,1.3702,1.3628,1.344,1.3107,1.306,1.2996,1.2789,1.267,1.2702,1.2654,1.2694,1.2885,1.3418,1.3545,1.3815,1.4417,1.4557,1.4579,1.4587,1.4587,1.4587,1.4587,1.4587,1.4587,1.4587,1.4587,1.4587,1.2522,1.2391,1.2382,1.2305,1.2169,1.2028,1.1978,1.1978,1.1973,1.2035,1.215,1.223,1.222,1.2131,1.2126,1.2131,1.2131,1.2208,1.2055,1.1678,1.159,1.1367,1.1001,1.0973,1.1002,1.0978,1.1125,1.1125,1.0973,1.0973,1.0929,1.0781,1.0752,1.0708,1.0585,1.0314,1.0117,0.999,0.9608,0.9353,0.9254,0.9404,0.9575,0.9789,1.0417,1.1148,1.1988,1.2639,1.324,1.3686,1.4064,1.4197,1.4061,1.4309,1.4502,1.4569,1.4866,1.5088,1.5149,1.5301,1.5344,1.5177,1.5322,1.5351,1.5185,1.4891,1.4714,1.4684,1.4538,1.4482,1.464,1.4238,1.4084,1.446,1.4374,1.4477,1.4896,1.5088,1.5103,1.4949,1.5044,1.4997,1.4685,1.4613,1.4598,1.4366,1.4358,1.4166,1.3916,1.3938,1.3731,1.3028,1.2973,1.2941,1.2662,1.2606,1.2606,1.2606,1.2606,1.2877,1.3458,1.361,1.387,1.4431,1.4579,1.4587,1.4587,1.4587,1.4587,1.4587,1.4587,1.4587,1.4587,1.4587,1.4587,1.2446,1.2223,1.2223,1.2114,1.1896,1.1678,1.1596,1.1596,1.1596,1.1841,1.2191,1.2219,1.2196,1.2223,1.2219,1.2223,1.2223,1.2223,1.1974,1.1638,1.1403,1.1092,1.0739,1.0708,1.0708,1.0728,1.0924,1.0929,1.0728,1.0703,1.0609,1.0413,1.0413,1.0388,1.0319,1.0117,0.9969,0.9887,0.9612,0.9421,0.9416,0.9776,0.9844,0.9627,1.0395,1.1119,1.1755,1.2291,1.2864,1.3514,1.3946,1.4062,1.3882,1.4203,1.4397,1.4425,1.4642,1.4887,1.511,1.5298,1.541,1.541,1.541,1.541,1.5388,1.509,1.4805,1.4616,1.4392,1.4318,1.4426,1.4081,1.4018,1.4716,1.4699,1.4741,1.511,1.5236,1.5088,1.4631,1.4692,1.4773,1.4664,1.4678,1.4824,1.5019,1.4796,1.4436,1.4175,1.4099,1.3696,1.3012,1.2893,1.2941,1.267,1.2606,1.2606,1.2606,1.2606,1.2861,1.3291,1.3474,1.3743,1.4264,1.4462,1.4502,1.4547,1.4587,1.4587,1.4587,1.4587,1.4587,1.4587,1.4587,1.4587,1.1804,1.1691,1.1678,1.165,1.165,1.1596,1.1568,1.1568,1.1596,1.1623,1.165,1.1678,1.1678,1.1678,1.1705,1.1705,1.1705,1.1678,1.1491,1.1123,1.1045,1.0807,1.0455,1.0437,1.0437,1.0437,1.0487,1.0487,1.0437,1.0413,1.0413,1.0413,1.0413,1.0265,1.0064,0.9994,0.9871,0.9649,0.9612,0.9518,0.94,0.9263,0.9098,0.8913,1.0023,1.0556,1.0624,1.1712,1.2444,1.2547,1.2796,1.288,1.2877,1.2901,1.2935,1.2929,1.296,1.3303,1.416,1.4978,1.5326,1.541,1.5326,1.5326,1.5333,1.5056,1.488,1.4827,1.482,1.4672,1.4528,1.4416,1.4396,1.4528,1.4728,1.4803,1.4699,1.4796,1.4825,1.4543,1.4521,1.4423,1.4265,1.4502,1.491,1.5196,1.4878,1.4501,1.412,1.3949,1.3656,1.2917,1.2877,1.2917,1.2678,1.2606,1.2606,1.2606,1.2606,1.2797,1.3076,1.3211,1.3362,1.3974,1.4139,1.4217,1.4431,1.4579,1.4565,1.4534,1.454,1.4587,1.4587,1.4587,1.4587,1.1776,1.16,1.1596,1.1486,1.1295,1.1131,1.1048,1.1076,1.1076,1.1076,1.1076,1.1076,1.1263,1.1596,1.1596,1.1596,1.1596,1.1596,1.1389,1.101,1.0832,1.0557,1.0192,1.0167,1.0167,1.0191,1.0314,1.031,1.0167,0.9994,0.992,0.9924,0.9949,0.9875,0.9752,0.9772,0.9776,0.9846,0.9846,0.9813,0.975,0.9603,0.9396,0.9221,0.9713,1.0265,1.071,1.1289,1.1886,1.2495,1.2659,1.2696,1.2696,1.2696,1.2696,1.2696,1.2696,1.2866,1.326,1.362,1.3795,1.381,1.381,1.4006,1.4524,1.3997,1.3925,1.4725,1.4779,1.4531,1.4286,1.4394,1.4484,1.4506,1.4609,1.475,1.5028,1.4794,1.4616,1.4518,1.4342,1.4212,1.4245,1.457,1.4853,1.4867,1.4489,1.4103,1.3831,1.3465,1.3076,1.2742,1.2734,1.275,1.2638,1.2606,1.2606,1.2606,1.2606,1.2726,1.2989,1.3084,1.3267,1.3744,1.3783,1.3839,1.395,1.4029,1.4053,1.4226,1.451,1.4587,1.4587,1.4587,1.4587,1.1526,1.1362,1.135,1.1213,1.0994,1.0774,1.0719,1.0719,1.0719,1.0719,1.0719,1.0719,1.0939,1.1322,1.1345,1.1324,1.1285,1.1324,1.1112,1.0716,1.0547,1.0276,0.99,0.99,0.9895,0.992,1.0068,1.0093,0.9871,0.9702,0.9599,0.9599,0.9599,0.9599,0.9599,0.9599,0.9723,0.9969,1.0019,1.0019,1.0071,1.0078,0.989,0.9569,0.966,1.0057,1.066,1.0776,1.1131,1.189,1.1955,1.1955,1.1955,1.1949,1.1955,1.1992,1.219,1.2318,1.2312,1.2547,1.2696,1.2696,1.2696,1.2999,1.3423,1.3078,1.3319,1.4419,1.4511,1.4322,1.4314,1.4457,1.4638,1.4733,1.4748,1.4918,1.5148,1.4807,1.4499,1.4462,1.4221,1.4113,1.4369,1.4531,1.4551,1.4543,1.4183,1.3701,1.3566,1.3234,1.2989,1.2678,1.2678,1.271,1.2622,1.2606,1.2606,1.2606,1.2606,1.2678,1.2901,1.2941,1.3052,1.337,1.3418,1.3545,1.372,1.3713,1.3728,1.4053,1.4344,1.4571,1.4587,1.4587,1.4587,1.0918,1.0755,1.0747,1.0743,1.0715,1.0684,1.0711,1.0679,1.0699,1.0707,1.0676,1.0707,1.0715,1.0778,1.0798,1.0661,1.0516,1.0697,1.051,1.0076,1.0156,0.9991,0.964,0.9624,0.9628,0.9649,0.9702,0.9677,0.9653,0.9599,0.9599,0.9599,0.9628,0.9624,0.9628,0.9649,0.9752,1.0043,1.0068,1.0117,1.0359,1.0621,1.0416,0.9912,0.9981,1.0095,1.0044,1.0236,1.0319,1.0156,1.0229,1.0207,1.0185,1.0207,1.0229,1.0287,1.0922,1.137,1.1489,1.2089,1.2547,1.2611,1.2462,1.2653,1.2717,1.2547,1.2945,1.4021,1.3989,1.4104,1.4656,1.4809,1.5001,1.522,1.5307,1.5205,1.4973,1.4741,1.4521,1.4489,1.425,1.4235,1.4661,1.4231,1.4247,1.4439,1.4423,1.4102,1.3611,1.3721,1.348,1.2973,1.2845,1.2965,1.2686,1.2606,1.2606,1.2606,1.2598,1.2606,1.2598,1.2654,1.2845,1.2996,1.3076,1.3235,1.3498,1.3657,1.3743,1.4004,1.4344,1.455,1.4579,1.4587,1.4587,1.0753,1.0719,1.0719,1.0631,1.0503,1.0498,1.0465,1.0386,1.0382,1.0424,1.049,1.0503,1.0586,1.0719,1.0719,1.066,1.0599,1.0531,1.0355,1.0097,1.0035,0.986,0.9624,0.9599,0.9599,0.9599,0.9599,0.9599,0.9599,0.9599,0.9599,0.9628,0.9776,0.985,0.9895,1.0019,1.024,1.0487,1.0511,1.0556,1.0654,1.0757,1.0667,1.0473,1.0554,1.0523,1.0338,1.0343,1.0262,1.0181,1.0075,1.0016,1.0016,1.0016,1.0061,1.0192,1.0377,1.0532,1.0664,1.0826,1.0977,1.0977,1.0977,1.1278,1.1574,1.1359,1.1574,1.2744,1.2623,1.288,1.4171,1.4876,1.517,1.511,1.5082,1.5133,1.5117,1.4809,1.4558,1.467,1.4514,1.4378,1.4398,1.4265,1.4222,1.4379,1.4101,1.3869,1.3816,1.3733,1.3522,1.3306,1.3156,1.3068,1.2965,1.2718,1.2606,1.2606,1.2614,1.2598,1.2606,1.2606,1.2758,1.2789,1.2829,1.2877,1.3116,1.3434,1.3568,1.3799,1.4163,1.4494,1.4579,1.4587,1.4587,1.0623,1.0565,1.0582,1.0482,1.0355,1.0351,1.0274,1.019,1.0186,1.0259,1.0343,1.0381,1.0473,1.0526,1.0582,1.057,1.0521,1.0426,1.0247,1.0002,0.9942,0.9795,0.9628,0.9599,0.9599,0.9599,0.9599,0.9599,0.9599,0.9599,0.9628,0.9752,0.9924,1.0068,1.0142,1.0314,1.0531,1.0757,1.0806,1.0826,1.09,1.0929,1.0929,1.093,1.0964,1.0891,1.0711,1.0565,1.0438,1.0385,1.0274,1.0198,1.0198,1.0132,1.0194,1.036,1.0151,1.0089,1.0233,1.0113,1.0016,1.0016,1.0038,1.0294,1.0771,1.0337,1.0831,1.1703,1.1767,1.2009,1.3345,1.4433,1.4976,1.5015,1.5074,1.5141,1.5337,1.4948,1.4752,1.4812,1.473,1.4565,1.4393,1.429,1.4216,1.4227,1.3877,1.3837,1.3814,1.3821,1.3526,1.3456,1.3388,1.3216,1.3106,1.2941,1.2742,1.271,1.2701,1.2677,1.2654,1.2638,1.2622,1.2614,1.2606,1.2606,1.2781,1.3124,1.3386,1.3601,1.3966,1.4351,1.447,1.4587,1.4603,1.0619,1.0451,1.0386,1.0432,1.0329,1.0238,1.0186,1.0145,1.0175,1.0149,1.0172,1.03,1.031,1.0276,1.0371,1.0339,1.0255,1.0314,1.0114,0.9717,0.9811,0.9778,0.9611,0.9599,0.9599,0.9599,0.9599,0.9599,0.9599,0.9653,0.9752,0.9945,1.0043,1.0216,1.0388,1.0487,1.058,1.0781,1.0855,1.0949,1.1149,1.1169,1.1169,1.1169,1.1175,1.1085,1.0901,1.0872,1.0759,1.0621,1.0569,1.0584,1.0522,1.0394,1.0389,1.0498,1.0236,1.0132,1.0257,1.0105,1.0016,1.0016,1.0016,1.0038,1.0125,1.0081,1.0381,1.109,1.1284,1.1639,1.2574,1.343,1.43,1.5208,1.5261,1.5352,1.5323,1.5112,1.4907,1.4949,1.4927,1.4769,1.4528,1.4281,1.4088,1.3984,1.3931,1.3902,1.3749,1.3932,1.3864,1.3456,1.3384,1.3416,1.3281,1.3152,1.2972,1.2837,1.2821,1.2805,1.2773,1.2734,1.267,1.2654,1.2614,1.2622,1.2813,1.3156,1.3434,1.3688,1.4005,1.4288,1.4462,1.4595,1.466,1.2707,1.2474,1.1643,1.1195,1.0943,1.0301,0.9908,0.9799,0.9769,0.986,0.9991,1.003,1.0087,1.019,1.0251,1.0144,1.0011,1.0026,0.9957,0.9811,0.9713,0.9689,0.9636,0.9599,0.9599,0.9599,0.9599,0.9599,0.9653,0.9776,0.9924,1.0043,1.0388,1.058,1.0679,1.085,1.1022,1.1071,1.1076,1.1125,1.1194,1.1194,1.1194,1.1194,1.1194,1.1161,1.1099,1.0972,1.0891,1.0792,1.0674,1.0593,1.0584,1.0536,1.0607,1.0745,1.0427,1.0285,1.0423,1.0203,1.003,1.0021,0.9999,1.0016,1.0016,1.0016,1.0125,1.0424,1.0424,1.0761,1.158,1.1966,1.2878,1.4349,1.502,1.5368,1.5402,1.5315,1.525,1.5256,1.5256,1.511,1.4811,1.4501,1.4282,1.41,1.3929,1.373,1.3886,1.3927,1.4031,1.3798,1.3749,1.3565,1.3395,1.3302,1.3215,1.3104,1.3059,1.2949,1.2901,1.2861,1.2789,1.267,1.2614,1.2678,1.2885,1.3148,1.3426,1.3823,1.4195,1.4399,1.4532,1.466,1.474,1.3553,1.319,1.2092,1.1719,1.1751,1.08,1.0319,1.0216,1.0207,1.0053,0.9862,0.986,0.9934,0.9999,1.0056,0.9983,0.9803,0.9786,0.9791,0.9778,0.9664,0.9603,0.9599,0.9599,0.9599,0.9599,0.9599,0.9599,0.9624,0.9846,1.0043,1.0212,1.0585,1.0855,1.0924,1.1096,1.1194,1.1194,1.1194,1.1194,1.1194,1.1194,1.1194,1.1194,1.1194,1.1194,1.1189,1.1066,1.1005,1.099,1.0868,1.083,1.0825,1.0745,1.0787,1.0901,1.0683,1.0498,1.065,1.0431,1.0227,1.0222,1.0161,1.0118,1.0099,1.0061,1.0016,1.0016,1.0033,1.0207,1.0744,1.1171,1.2003,1.3387,1.4349,1.5027,1.5285,1.541,1.541,1.5395,1.5395,1.5221,1.4964,1.4781,1.4548,1.4312,1.4018,1.3759,1.3944,1.3855,1.3891,1.3879,1.3766,1.3585,1.3462,1.3425,1.3418,1.3378,1.335,1.3184,1.3076,1.3036,1.2965,1.2718,1.2614,1.2598,1.2781,1.3084,1.3394,1.3861,1.4274,1.4486,1.4611,1.4811,1.4901,1.3509,1.2807,1.1964,1.2133,1.2613,1.1604,1.1091,1.1121,1.0979,1.0408,0.9772,0.9786,0.9782,0.9701,0.9819,0.9786,0.9632,0.9624,0.9652,0.9628,0.9603,0.9599,0.9599,0.9599,0.9599,0.9599,0.9599,0.9599,0.9599,0.9871,1.0117,1.0339,1.0605,1.09,1.1071,1.1169,1.1194,1.1194,1.1194,1.1194,1.1194,1.1194,1.1194,1.1194,1.1194,1.1194,1.1189,1.117,1.1175,1.1189,1.1151,1.1127,1.1142,1.1009,1.1,1.1166,1.083,1.0749,1.0825,1.0664,1.0536,1.0513,1.0412,1.0322,1.0274,1.018,1.0089,1.0056,1.0064,1.0076,1.0273,1.0673,1.1607,1.2611,1.3837,1.4699,1.5285,1.541,1.541,1.541,1.5374,1.5287,1.5002,1.4922,1.47,1.4448,1.4286,1.4067,1.391,1.3799,1.3678,1.3651,1.365,1.3594,1.3448,1.3509,1.353,1.3587,1.3583,1.349,1.3312,1.3242,1.3116,1.2861,1.2734,1.2702,1.2813,1.3179,1.3402,1.3688,1.4069,1.4423,1.4676,1.4811,1.5012,1.5517,1.5235,1.4054,1.3676,1.3613,1.198,1.1219,1.1097,1.04,1.0138,0.9694,0.9673,0.9726,0.9636,0.9673,0.964,0.9611,0.9599,0.9599,0.9599,0.9599,0.9599,0.9599,0.9599,0.9599,0.9599,0.9599,0.9599,0.9599,0.9875,1.0048,1.0117,1.058,1.0826,1.0924,1.1096,1.1194,1.1194,1.1194,1.1194,1.1194,1.1194,1.1194,1.1194,1.1194,1.1194,1.1194,1.1194,1.1194,1.1194,1.1194,1.1194,1.1189,1.1137,1.1127,1.1132,1.0976,1.083,1.0868,1.0735,1.0617,1.0593,1.0565,1.0474,1.0314,1.0385,1.0342,1.0262,1.0209,1.0276,1.0297,1.044,1.1197,1.2589,1.4069,1.5082,1.5326,1.541,1.541,1.541,1.541,1.5351,1.5236,1.5046,1.4862,1.4692,1.4393,1.4121,1.3996,1.3704,1.3572,1.3561,1.355,1.352,1.3509,1.3575,1.365,1.3757,1.3798,1.3831,1.3673,1.3549,1.3338,1.3092,1.3164,1.3164,1.3259,1.3481,1.3585,1.3641,1.4156,1.4629,1.4587,1.47,1.5028,1.6223,1.5976,1.4792,1.4538,1.4699,1.3167,1.2514,1.2393,1.1863,1.1282,1.0915,1.0404,1.0281,1.0232,0.9821,0.9628,0.9599,0.9599,0.9599,0.9599,0.9599,0.9599,0.9599,0.9599,0.9599,0.9599,0.9599,0.9653,0.9776,0.9924,1.0117,1.0359,1.063,1.085,1.0998,1.1096,1.1194,1.1194,1.1194,1.1194,1.1194,1.1194,1.1194,1.1194,1.1194,1.1194,1.1194,1.1194,1.1194,1.1194,1.1194,1.1194,1.1194,1.1194,1.1194,1.1189,1.108,1.1023,1.1005,1.0924,1.0868,1.0844,1.0773,1.0655,1.0588,1.0602,1.0591,1.1046,1.1053,1.1292,1.1683,1.1811,1.2318,1.33,1.4559,1.5389,1.541,1.541,1.541,1.541,1.541,1.541,1.541,1.5227,1.5061,1.4869,1.4514,1.4323,1.4169,1.3818,1.3598,1.3671,1.362,1.3587,1.3565,1.3598,1.3616,1.3728,1.3836,1.3927,1.3921,1.3775,1.3566,1.341,1.3537,1.3618,1.3601,1.3624,1.3727,1.395,1.444,1.4597,1.455,1.466,1.4988,1.6072,1.5737,1.4819,1.4968,1.554,1.4729,1.4082,1.422,1.3811,1.3294,1.249,1.1687,1.1224,1.115,1.0281,0.9752,0.9628,0.9599,0.9599,0.9599,0.9599,0.9599,0.9599,0.9599,0.9599,0.9599,0.9599,0.9727,0.9826,0.992,1.0191,1.0433,1.0634,1.088,1.0973,1.1145,1.1194,1.1194,1.1194,1.1194,1.1194,1.1194,1.1194,1.1194,1.1194,1.1194,1.1194,1.1194,1.1194,1.1194,1.1194,1.1194,1.1194,1.1194,1.1194,1.1194,1.1179,1.1165,1.1184,1.1146,1.1161,1.1118,1.1,1.091,1.0891,1.0961,1.1298,1.1886,1.2197,1.2632,1.3153,1.3931,1.4041,1.4143,1.4845,1.5347,1.541,1.541,1.541,1.541,1.541,1.541,1.541,1.5388,1.5307,1.509,1.4752,1.4582,1.4414,1.4128,1.4015,1.403,1.3898,1.3693,1.3664,1.3642,1.362,1.3659,1.3772,1.3881,1.401,1.3921,1.3754,1.3685,1.3852,1.379,1.3617,1.3688,1.3894,1.3997,1.4306,1.4393,1.4433,1.466,1.4956,1.5861,1.5778,1.5564,1.5581,1.5618,1.4747,1.4322,1.4274,1.3463,1.3143,1.2702,1.2484,1.198,1.1268,1.1003,1.0429,0.9821,0.9797,0.9599,0.9599,0.9599,0.9599,0.9628,0.9653,0.9599,0.9599,0.9599,0.9653,0.9702,0.9752,0.9747,0.992,1.0339,1.0511,1.0634,1.0998,1.1194,1.1194,1.1194,1.1194,1.1194,1.1194,1.1194,1.1194,1.1194,1.1194,1.1194,1.1194,1.1194,1.1194,1.1194,1.1194,1.1194,1.1194,1.1194,1.1194,1.1194,1.1194,1.1194,1.1194,1.1194,1.1184,1.1142,1.1061,1.0986,1.1686,1.2102,1.2554,1.3066,1.3359,1.3576,1.4097,1.4424,1.4562,1.4979,1.5454,1.5417,1.5417,1.541,1.541,1.541,1.541,1.541,1.541,1.5344,1.5236,1.5053,1.4854,1.4643,1.4443,1.4338,1.4272,1.4213,1.4001,1.377,1.3788,1.3818,1.377,1.3837,1.3843,1.3999,1.4071,1.3894,1.3981,1.4178,1.4039,1.3862,1.4036,1.4296,1.425,1.4188,1.4329,1.4504,1.47,1.4795,1.5801,1.5801,1.5801,1.5801,1.5706,1.5255,1.4992,1.4914,1.4424,1.416,1.404,1.3703,1.3149,1.2606,1.2145,1.1546,1.1179,1.1033,1.1082,1.0984,1.069,1.035,1.0158,0.9846,0.9599,0.9624,0.9599,0.9649,0.9723,0.9677,0.9752,0.9949,1.0167,1.029,1.0437,1.0801,1.0998,1.1047,1.1145,1.1194,1.1194,1.1194,1.1194,1.1194,1.1194,1.1194,1.1194,1.1194,1.1194,1.1194,1.1194,1.1194,1.1194,1.1194,1.1194,1.1194,1.1194,1.1194,1.1194,1.1194,1.1194,1.1194,1.1194,1.1142,1.1119,1.1691,1.2171,1.2539,1.3063,1.3485,1.4141,1.5082,1.5374,1.531,1.5569,1.5811,1.5651,1.5505,1.541,1.541,1.541,1.541,1.541,1.541,1.5402,1.5309,1.5082,1.4885,1.4979,1.4772,1.4514,1.4426,1.4448,1.4308,1.4008,1.3942,1.4046,1.4028,1.4017,1.3992,1.3996,1.405,1.4053,1.4181,1.4277,1.4403,1.4306,1.451,1.4468,1.4298,1.4234,1.4375,1.4494,1.4573,1.466,1.5801,1.5801,1.5801,1.5801,1.5801,1.5778,1.573,1.5754,1.5801,1.5534,1.5659,1.4849,1.4358,1.4052,1.3342,1.292,1.263,1.2557,1.2344,1.2247,1.1707,1.1443,1.1248,1.0743,1.0379,1.0039,0.9747,0.9752,0.9772,0.9747,0.9776,1.0146,1.0117,1.0117,1.0364,1.058,1.0777,1.0855,1.1027,1.1145,1.1194,1.1194,1.1194,1.1194,1.1194,1.1194,1.1194,1.1194,1.1194,1.1194,1.1194,1.1194,1.1194,1.1194,1.1194,1.1194,1.1194,1.1194,1.1194,1.1194,1.1194,1.1194,1.1194,1.1194,1.1233,1.1517,1.2042,1.2624,1.3221,1.4016,1.5183,1.6044,1.6466,1.6389,1.6338,1.6221,1.5936,1.5636,1.5534,1.541,1.541,1.541,1.541,1.541,1.541,1.5373,1.5126,1.5002,1.5096,1.5096,1.4853,1.4777,1.4823,1.4714,1.4401,1.414,1.4244,1.4252,1.4229,1.4153,1.4114,1.4197,1.4254,1.4207,1.4296,1.4391,1.4472,1.4486,1.4399,1.4239,1.4314,1.4478,1.4494,1.4447,1.455,1.5801,1.5801,1.5801,1.5801,1.5801,1.5801,1.5801,1.5801,1.5801,1.5801,1.5778,1.5611,1.501,1.446,1.4196,1.3583,1.3119,1.3071,1.2944,1.292,1.2581,1.2465,1.2368,1.2004,1.195,1.1658,1.0743,0.9941,0.9867,0.9624,0.9994,0.99,1.0019,1.0138,1.0142,1.0314,1.0556,1.0683,1.083,1.0949,1.112,1.1194,1.1194,1.1194,1.1194,1.1194,1.1194,1.1194,1.1194,1.1194,1.1194,1.1194,1.1194,1.1194,1.1194,1.1194,1.1194,1.1194,1.1194,1.1194,1.1194,1.1194,1.1194,1.1194,1.1365,1.1843,1.2179,1.2848,1.4004,1.5201,1.5292,1.6262,1.6666,1.6514,1.644,1.6338,1.6052,1.5892,1.5724,1.5534,1.5475,1.541,1.541,1.541,1.541,1.541,1.5307,1.5199,1.5264,1.53,1.5227,1.522,1.5285,1.5096,1.4842,1.4545,1.443,1.4452,1.4435,1.4363,1.4367,1.443,1.4465,1.4297,1.426,1.4294,1.4356,1.4443,1.4476,1.4403,1.4484,1.4581,1.455,1.4526,1.4597,1.5801,1.5801,1.5801,1.5801,1.5801,1.5801,1.5801,1.5801,1.5801,1.5801,1.5801,1.5778,1.5564,1.5159,1.5057,1.4717,1.4376,1.4304,1.4298,1.425,1.3824,1.3535,1.339,1.3047,1.2756,1.2436,1.1639,1.1179,1.1228,1.1277,1.0866,1.0527,1.0571,1.0355,0.9945,1.0043,1.0265,1.0413,1.0531,1.0732,1.1002,1.11,1.1194,1.1194,1.1194,1.1194,1.1194,1.1194,1.1194,1.1194,1.1194,1.1194,1.1194,1.1194,1.1194,1.1194,1.1194,1.1194,1.1194,1.1194,1.1194,1.1194,1.1194,1.1194,1.1292,1.1604,1.1985,1.2441,1.3734,1.4957,1.4807,1.622,1.6896,1.6916,1.6843,1.6689,1.6514,1.6433,1.6111,1.5717,1.5541,1.5468,1.541,1.541,1.541,1.541,1.541,1.541,1.541,1.5402,1.5388,1.5249,1.522,1.5117,1.4915,1.4745,1.4667,1.4697,1.4673,1.4594,1.4529,1.458,1.4449,1.426,1.4246,1.4243,1.4335,1.4425,1.4497,1.4567,1.4611,1.4637,1.4613,1.4603,1.4748,1.5801,1.5801,1.5801,1.5801,1.5801,1.5801,1.5801,1.5801,1.5801,1.5801,1.5801,1.5801,1.5801,1.5778,1.5778,1.5754,1.5801,1.5706,1.5635,1.5469,1.4938,1.458,1.4334,1.3872,1.3499,1.3674,1.3451,1.3089,1.2465,1.2441,1.215,1.1712,1.1487,1.0979,1.0277,1.033,1.0216,1.0093,1.0187,1.0437,1.0708,1.0904,1.1076,1.1096,1.11,1.112,1.1194,1.1194,1.1194,1.1194,1.1194,1.1194,1.1194,1.1194,1.1194,1.1194,1.1194,1.1194,1.1194,1.1194,1.1194,1.1194,1.1194,1.1194,1.1218,1.1316,1.1385,1.177,1.3138,1.4579,1.5018,1.6264,1.7093,1.7266,1.7229,1.7194,1.6924,1.6734,1.6492,1.6111,1.5724,1.5534,1.549,1.541,1.541,1.541,1.541,1.541,1.541,1.541,1.5351,1.5117,1.4988,1.4971,1.4884,1.484,1.4867,1.5021,1.4968,1.4905,1.4786,1.4684,1.4507,1.4343,1.4219,1.4245,1.4335,1.4446,1.4522,1.4607,1.4672,1.4821,1.4988,1.5043,1.5133,1.5801,1.5801,1.5801,1.5801,1.5801,1.5801,1.5801,1.5801,1.5801,1.5801,1.5801,1.5801,1.5801,1.5801,1.5801,1.5801,1.5801,1.5801,1.5801,1.5737,1.5564,1.5445,1.5547,1.5571,1.5075,1.498,1.5146,1.4304,1.3433,1.3022,1.2756,1.2587,1.246,1.2023,1.1126,1.091,1.067,1.0162,1.0068,1.0196,1.0413,1.0511,1.0659,1.0777,1.0875,1.0973,1.1111,1.1155,1.117,1.1169,1.1189,1.1189,1.1194,1.1194,1.1194,1.1194,1.1194,1.1194,1.1175,1.1184,1.117,1.1165,1.1184,1.1189,1.1194,1.1243,1.1531,1.2538,1.3572,1.4483,1.5222,1.6513,1.7138,1.7309,1.7302,1.7179,1.699,1.699,1.677,1.6499,1.6118,1.5768,1.5578,1.549,1.541,1.541,1.5424,1.5454,1.5432,1.5439,1.5417,1.5212,1.5053,1.503,1.4893,1.4854,1.4935,1.5183,1.5145,1.5092,1.5041,1.4885,1.4663,1.452,1.4393,1.4436,1.4618,1.4686,1.4626,1.4699,1.4851,1.5173,1.5531,1.5558,1.547,1.5678,1.5801,1.5801,1.5801,1.5801,1.5801,1.5801,1.5801,1.5801,1.5801,1.5801,1.5801,1.5801,1.5801,1.5801,1.5801,1.5801,1.5801,1.5801,1.5801,1.5801,1.5801,1.5778,1.5801,1.5801,1.5801,1.5778,1.5439,1.4567,1.4328,1.4256,1.3631,1.3559,1.3076,1.2096,1.1487,1.1077,1.0645,1.031,1.0097,1.0191,1.0314,1.0437,1.058,1.0708,1.0821,1.0921,1.1022,1.1002,1.1006,1.1011,1.0993,1.1014,1.1086,1.118,1.1023,1.1023,1.1019,1.1057,1.1132,1.1123,1.109,1.1118,1.1194,1.1194,1.1243,1.1316,1.177,1.278,1.3836,1.4889,1.5846,1.6655,1.7061,1.7232,1.7244,1.7143,1.7143,1.7033,1.6785,1.6528,1.6228,1.5957,1.5848,1.584,1.5877,1.5862,1.5848,1.5709,1.5519,1.5475,1.5388,1.5271,1.5191,1.5017,1.49,1.4893,1.5066,1.5059,1.507,1.5214,1.5124,1.487,1.4847,1.4893,1.4933,1.4992,1.4822,1.4658,1.4822,1.5038,1.5372,1.5701,1.5709,1.5693,1.5608,1.5801,1.5728,1.5735,1.5801,1.5801,1.5801,1.5801,1.5801,1.5801,1.5801,1.5801,1.5801,1.5801,1.5801,1.5801,1.5801,1.5801,1.5801,1.5801,1.5801,1.5801,1.5801,1.5801,1.5801,1.5801,1.5801,1.5683,1.573,1.5611,1.5201,1.4699,1.4675,1.407,1.3173,1.249,1.198,1.1077,1.0621,1.0256,0.9994,1.0097,1.0191,1.0339,1.0482,1.0607,1.0637,1.0759,1.0759,1.068,1.0851,1.0914,1.0906,1.1012,1.1042,1.0948,1.0896,1.0816,1.0872,1.0957,1.1005,1.1014,1.1061,1.1194,1.1194,1.1194,1.1433,1.177,1.232,1.3282,1.4196,1.5253,1.6011,1.6702,1.7084,1.7209,1.7302,1.7244,1.7216,1.704,1.685,1.6792,1.6521,1.6316,1.6272,1.6345,1.6323,1.625,1.5994,1.5695,1.5549,1.5483,1.5373,1.53,1.5192,1.5061,1.5024,1.4995,1.5002,1.5074,1.5267,1.524,1.5033,1.51,1.521,1.5146,1.5018,1.4849,1.4738,1.5214,1.5586,1.5594,1.5748,1.5812,1.5963,1.5788,1.5764,1.5531,1.5555,1.5801,1.5801,1.5795,1.5801,1.5788,1.5788,1.5801,1.5801,1.5801,1.5801,1.5801,1.5801,1.5801,1.5801,1.5801,1.5801,1.5801,1.5801,1.5801,1.5801,1.5801,1.5801,1.5801,1.5801,1.5801,1.5801,1.573,1.5689,1.5445,1.4968,1.4364,1.3733,1.2708,1.1731,1.1077,1.0547,1.0039,0.9821,0.9821,0.9994,1.0055,1.0085,1.0149,1.0372,1.0432,1.0289,1.057,1.0749,1.07,1.0838,1.0868,1.0735,1.073,1.0641,1.0683,1.0816,1.091,1.0962,1.1061,1.1194,1.1194,1.1194,1.1575,1.2131,1.2296,1.2974,1.4028,1.5103,1.5633,1.6254,1.6803,1.7232,1.7309,1.7302,1.7258,1.7214,1.715,1.7033,1.6996,1.6762,1.6638,1.6682,1.6558,1.6448,1.6191,1.5907,1.5687,1.5556,1.5446,1.5388,1.5395,1.5322,1.5242,1.5227,1.5234,1.5278,1.5372,1.5273,1.5152,1.5164,1.5228,1.5141,1.5172,1.525,1.5463,1.5878,1.6111,1.6007,1.6118,1.6273,1.6392,1.5108,1.5271,1.4961,1.5208,1.5795,1.5615,1.5635,1.5755,1.5621,1.5671,1.5801,1.5801,1.5801,1.5801,1.5801,1.5801,1.5801,1.5801,1.5801,1.5801,1.5801,1.5801,1.5801,1.5801,1.5801,1.5801,1.5801,1.5801,1.5801,1.5801,1.5801,1.5801,1.5801,1.5635,1.5183,1.4586,1.3468,1.2417,1.1565,1.0935,1.0645,0.9891,0.9649,0.9747,0.9969,0.9942,0.9949,1.0,1.001,1.0055,1.0204,1.0278,1.0384,1.0562,1.0594,1.0464,1.0482,1.056,1.0531,1.0712,1.0938,1.1075,1.1151,1.1194,1.1194,1.1194,1.1316,1.1648,1.1843,1.2374,1.3234,1.4244,1.508,1.5822,1.649,1.7091,1.7309,1.7309,1.7302,1.7258,1.7244,1.7216,1.7208,1.7194,1.7091,1.7004,1.6829,1.6639,1.6367,1.6104,1.5848,1.5607,1.5483,1.5417,1.541,1.541,1.541,1.541,1.541,1.541,1.541,1.5395,1.5311,1.5277,1.5327,1.5413,1.5569,1.5856,1.6021,1.6079,1.6198,1.6293,1.6464,1.6673,1.6689,1.477,1.4975,1.4765,1.5003,1.5524,1.5444,1.5504,1.5635,1.5568,1.5625,1.5801,1.5801,1.5801,1.5801,1.5801,1.5801,1.5801,1.5801,1.5801,1.5801,1.5801,1.5801,1.5801,1.5801,1.5801,1.5801,1.5801,1.5801,1.5801,1.5801,1.5801,1.5801,1.5801,1.5778,1.5611,1.5105,1.422,1.3216,1.2611,1.1858,1.1639,1.1057,1.033,1.0288,1.0318,0.9961,0.9733,0.9594,0.9568,0.9621,0.9731,0.984,0.9994,1.0145,1.0306,1.0278,1.0301,1.0513,1.0575,1.0697,1.099,1.1137,1.1179,1.1194,1.1194,1.1194,1.1292,1.1267,1.1287,1.16,1.2611,1.3788,1.4841,1.5704,1.6709,1.7309,1.7309,1.7309,1.7309,1.7295,1.7288,1.728,1.7273,1.7258,1.7222,1.7156,1.7106,1.6836,1.6492,1.6206,1.5972,1.5717,1.5497,1.5446,1.541,1.541,1.541,1.541,1.541,1.541,1.541,1.541,1.541,1.5377,1.5486,1.5705,1.5805,1.5835,1.5915,1.5992,1.6213,1.6464,1.6543,1.6689,1.6689,1.4984,1.4986,1.5006,1.5019,1.5129,1.53,1.5404,1.5484,1.5661,1.5775,1.5801,1.5801,1.5775,1.5768,1.5735,1.5728,1.5735,1.5755,1.5781,1.5795,1.5801,1.5801,1.5801,1.5801,1.5801,1.5801,1.5801,1.5801,1.5801,1.5801,1.5801,1.5801,1.5801,1.5801,1.5801,1.5778,1.5231,1.4412,1.4142,1.3414,1.2829,1.2387,1.1731,1.124,1.1071,1.0662,0.9711,0.9584,0.9514,0.9267,0.9539,0.9642,0.9655,1.0104,1.0228,1.0062,1.0366,1.0636,1.0872,1.0891,1.1019,1.119,1.1194,1.1194,1.1194,1.1194,1.1194,1.1194,1.1365,1.177,1.2684,1.3764,1.4841,1.5704,1.6709,1.7309,1.7309,1.7309,1.7309,1.7309,1.7309,1.7309,1.7302,1.7302,1.7302,1.7288,1.7302,1.7062,1.6653,1.6345,1.6089,1.579,1.5556,1.5454,1.541,1.541,1.541,1.541,1.541,1.541,1.541,1.541,1.5431,1.5431,1.5486,1.5582,1.5637,1.569,1.5861,1.6042,1.641,1.6634,1.6681,1.6689,1.6689,1.5091,1.6076,1.5503,1.5262,1.5254,1.5171,1.524,1.5431,1.5685,1.5801,1.5801,1.5801,1.5675,1.5581,1.5521,1.5538,1.5538,1.5528,1.5561,1.5788,1.5781,1.5801,1.5801,1.5801,1.5801,1.5801,1.5801,1.5801,1.5801,1.5801,1.5801,1.5801,1.5801,1.5801,1.5801,1.5801,1.5516,1.5183,1.4699,1.4076,1.3733,1.3138,1.2542,1.2008,1.2018,1.135,1.0044,1.0058,0.9831,0.9281,0.9517,0.9402,0.9374,0.9759,0.9678,0.9628,0.9894,1.0604,1.0928,1.1099,1.1142,1.1175,1.1194,1.1194,1.1194,1.1194,1.1194,1.1409,1.1819,1.2252,1.2829,1.4429,1.5507,1.5846,1.6584,1.7115,1.7309,1.7309,1.7309,1.7309,1.7309,1.7309,1.7309,1.7309,1.7309,1.7309,1.7309,1.7157,1.6822,1.6499,1.6213,1.5877,1.5629,1.549,1.541,1.541,1.541,1.541,1.541,1.541,1.541,1.541,1.541,1.5431,1.5431,1.5423,1.552,1.5637,1.5865,1.6118,1.6381,1.6587,1.6607,1.6628,1.6689,1.5327,1.6394,1.5901,1.5724,1.5772,1.5431,1.5306,1.5312,1.5444,1.5531,1.5518,1.5495,1.5408,1.5307,1.5267,1.5267,1.5267,1.5273,1.5398,1.5645,1.5655,1.5708,1.5768,1.5812,1.5801,1.5795,1.5795,1.5801,1.5801,1.5801,1.5801,1.5801,1.5801,1.5801,1.5801,1.5778,1.5778,1.554,1.5135,1.489,1.4645,1.4202,1.3546,1.3112,1.2808,1.2415,1.1359,1.0843,1.069,0.9935,0.9589,0.9384,0.9317,0.9293,0.9317,0.9429,0.9917,1.0623,1.1069,1.1179,1.1179,1.1189,1.1194,1.1194,1.1194,1.1194,1.1502,1.1838,1.2344,1.3065,1.3782,1.5412,1.5893,1.6224,1.6678,1.7239,1.7309,1.7309,1.7309,1.7309,1.7309,1.7309,1.7309,1.7309,1.7309,1.7309,1.7302,1.7121,1.6961,1.6653,1.6301,1.5943,1.5702,1.5578,1.5475,1.541,1.541,1.541,1.541,1.541,1.541,1.541,1.541,1.541,1.541,1.5431,1.5465,1.5582,1.5769,1.5976,1.6203,1.6368,1.6471,1.6512,1.6553,1.574,1.613,1.6142,1.6337,1.656,1.5979,1.5453,1.5046,1.5073,1.5138,1.5125,1.53,1.5445,1.5254,1.5174,1.5256,1.525,1.5212,1.547,1.5487,1.5562,1.5671,1.5738,1.5762,1.5631,1.5688,1.5701,1.5638,1.5755,1.5801,1.5801,1.5801,1.5801,1.5801,1.5801,1.5801,1.5801,1.5713,1.5635,1.5493,1.5343,1.5456,1.4721,1.4237,1.3913,1.331,1.2528,1.2124,1.157,1.1071,1.0798,1.0061,0.9637,0.9516,0.9628,0.9869,1.0446,1.0734,1.1036,1.1085,1.1142,1.1132,1.1179,1.1189,1.1194,1.1218,1.1458,1.2058,1.2708,1.3974,1.5175,1.5775,1.6349,1.6709,1.7091,1.7309,1.7309,1.7309,1.7309,1.7309,1.7309,1.7309,1.7309,1.7309,1.7309,1.7309,1.7273,1.7135,1.6961,1.6793,1.6418,1.5965,1.5768,1.5665,1.5563,1.5439,1.541,1.541,1.541,1.541,1.541,1.541,1.541,1.541,1.541,1.5431,1.5451,1.5506,1.5624,1.5831,1.5942,1.6128,1.6232,1.6252,1.6252,1.6289,1.7426,1.6845,1.6654,1.6658,1.5933,1.536,1.5097,1.5598,1.5939,1.5946,1.6588,1.6415,1.6512,1.6511,1.6446,1.621,1.6074,1.6352,1.6242,1.5784,1.5779,1.5735,1.5638,1.5361,1.526,1.5294,1.5414,1.5558,1.5691,1.5801,1.5801,1.5761,1.5775,1.5775,1.5795,1.5788,1.5801,1.5801,1.5801,1.5801,1.5801,1.5303,1.5026,1.4984,1.4288,1.3549,1.3384,1.2836,1.217,1.1881,1.145,1.1595,1.1444,1.1362,1.0829,1.0711,1.0462,1.0726,1.0924,1.1067,1.1139,1.1162,1.1184,1.1194,1.1243,1.1414,1.2082,1.2926,1.4094,1.5151,1.5869,1.649,1.7021,1.7286,1.7309,1.7309,1.7309,1.7309,1.7309,1.7309,1.7309,1.7309,1.7309,1.7309,1.7309,1.7251,1.7135,1.6997,1.6814,1.647,1.603,1.5797,1.568,1.5556,1.5432,1.5417,1.541,1.5417,1.5417,1.541,1.541,1.541,1.541,1.541,1.541,1.541,1.5486,1.5541,1.5506,1.5618,1.5805,1.5971,1.5991,1.6012,1.6875,1.7834,1.7347,1.698,1.6714,1.6239,1.572,1.5365,1.576,1.5983,1.6038,1.6467,1.6662,1.6423,1.6501,1.6588,1.6526,1.6364,1.6586,1.6709,1.6264,1.6199,1.6022,1.577,1.5416,1.5181,1.5048,1.52,1.5378,1.5638,1.5788,1.5638,1.5635,1.5635,1.5645,1.5638,1.5695,1.5755,1.5801,1.5801,1.5801,1.5795,1.5621,1.5475,1.5611,1.5021,1.446,1.4471,1.3986,1.328,1.2997,1.2651,1.2477,1.2054,1.2147,1.1694,1.169,1.1635,1.1831,1.1588,1.1517,1.1411,1.1327,1.119,1.1194,1.1218,1.1556,1.2082,1.3022,1.4004,1.4978,1.5886,1.6584,1.7232,1.7279,1.7309,1.7309,1.7309,1.7309,1.7309,1.7309,1.7309,1.7309,1.7309,1.7309,1.7309,1.7302,1.7236,1.7084,1.6909,1.6499,1.6009,1.5819,1.568,1.5578,1.5534,1.5519,1.5512,1.5454,1.5446,1.5424,1.5424,1.5432,1.5424,1.541,1.5417,1.5424,1.5417,1.5431,1.541,1.541,1.5576,1.5701,1.5701,1.5742,1.728,1.7597,1.7466,1.7125,1.6856,1.6745,1.6294,1.5607,1.5706,1.5634,1.5741,1.5782,1.6071,1.6403,1.6602,1.6718,1.6801,1.6815,1.7089,1.7214,1.6851,1.6713,1.663,1.6301,1.5755,1.5275,1.5061,1.5146,1.5287,1.5448,1.5498,1.5394,1.5364,1.5357,1.5357,1.5444,1.5551,1.5661,1.5755,1.5801,1.5801,1.5768,1.5675,1.5451,1.5441,1.5308,1.5331,1.5229,1.5005,1.4489,1.4079,1.3607,1.3048,1.2479,1.2646,1.2509,1.2602,1.2574,1.2569,1.2385,1.2353,1.2141,1.1828,1.1875,1.1978,1.138,1.1531,1.1892,1.2708,1.374,1.474,1.5602,1.6349,1.699,1.7286,1.7309,1.7309,1.7309,1.7309,1.7309,1.7309,1.7309,1.7309,1.7309,1.7309,1.7309,1.7302,1.728,1.7143,1.6961,1.6668,1.6155,1.6016,1.5928,1.5877,1.5818,1.5695,1.5636,1.5578,1.5461,1.5411,1.5432,1.5446,1.5461,1.5475,1.5446,1.5439,1.5424,1.541,1.541,1.541,1.541,1.5451,1.5493,1.5535,1.6258,1.6381,1.6519,1.6688,1.6856,1.6874,1.6571,1.6139,1.644,1.6455,1.66,1.7065,1.7347,1.7198,1.7312,1.7495,1.7738,1.7375,1.7891,1.7827,1.7506,1.7216,1.7276,1.6807,1.6184,1.5557,1.5255,1.5152,1.5045,1.5134,1.5193,1.5099,1.5093,1.5086,1.5106,1.5211,1.5418,1.5511,1.5661,1.5748,1.5761,1.5748,1.5675,1.5491,1.5421,1.5421,1.5414,1.5361,1.5408,1.5321,1.541,1.515,1.4813,1.437,1.4039,1.379,1.3391,1.327,1.3133,1.3079,1.3028,1.3181,1.3094,1.3335,1.3036,1.1886,1.1477,1.1863,1.2406,1.3458,1.4525,1.5365,1.6153,1.6756,1.7309,1.7309,1.7309,1.7309,1.7309,1.7309,1.7309,1.7309,1.7309,1.7309,1.7309,1.7309,1.7309,1.7251,1.7122,1.6969,1.6983,1.6602,1.6367,1.6265,1.6155,1.606,1.595,1.5899,1.5855,1.5665,1.5455,1.5614,1.5739,1.56,1.5549,1.5527,1.549,1.5424,1.541,1.541,1.541,1.541,1.541,1.5451,1.5431,1.6019,1.596,1.6011,1.6156,1.634,1.635,1.6239,1.6101,1.6276,1.635,1.6448,1.7144,1.756,1.7633,1.7743,1.7917,1.8126,1.7894,1.8007,1.8099,1.7987,1.7609,1.7414,1.7239,1.6712,1.6085,1.5681,1.5397,1.5016,1.4923,1.4986,1.4825,1.4792,1.4858,1.4847,1.5053,1.5243,1.5217,1.5461,1.5595,1.5641,1.5675,1.5635,1.5484,1.5398,1.5391,1.536,1.5317,1.5384,1.5501,1.5501,1.5449,1.5246,1.5128,1.4967,1.4716,1.4389,1.4009,1.3841,1.3722,1.3718,1.39,1.3589,1.3547,1.369,1.2734,1.2803,1.3067,1.2392,1.3186,1.472,1.5751,1.6372,1.6967,1.7232,1.7309,1.7309,1.7309,1.7309,1.7309,1.7309,1.7309,1.7309,1.7309,1.7309,1.7309,1.7309,1.7309,1.7135,1.7005,1.7027,1.6968,1.669,1.6345,1.606,1.6089,1.6191,1.6147,1.6045,1.5921,1.576,1.5965,1.606,1.5731,1.5578,1.5615,1.5585,1.5454,1.541,1.541,1.541,1.541,1.541,1.5424,1.5468,1.5867,1.5864,1.5721,1.5684,1.5689,1.5707,1.567,1.5643,1.5689,1.568,1.5743,1.6434,1.6725,1.6954,1.7156,1.7348,1.7533,1.7724,1.7999,1.8136,1.8098,1.7862,1.7669,1.7467,1.7043,1.6424,1.579,1.5587,1.5368,1.5138,1.4827,1.4564,1.46,1.4673,1.4603,1.4835,1.5144,1.4977,1.5084,1.5304,1.5451,1.5585,1.5511,1.5431,1.5364,1.5344,1.5273,1.5253,1.5197,1.5334,1.5447,1.544,1.5475,1.5522,1.549,1.5262,1.5147,1.5049,1.5056,1.4667,1.4617,1.4467,1.3868,1.3785,1.4053,1.4056,1.4136,1.4003,1.3309,1.3419,1.4984,1.5917,1.649,1.7037,1.7185,1.7309,1.7309,1.7309,1.7309,1.7309,1.7309,1.7309,1.7309,1.7309,1.7309,1.7309,1.7309,1.7309,1.7266,1.7179,1.7128,1.7055,1.6895,1.6506,1.6184,1.6074,1.6235,1.6133,1.6038,1.603,1.6052,1.6148,1.6045,1.5651,1.5556,1.5724,1.5607,1.5432,1.541,1.541,1.541,1.541,1.541,1.5439,1.5541,1.481,1.5284,1.5346,1.5497,1.565,1.567,1.5515,1.5294,1.5542,1.554,1.5393,1.5677,1.6074,1.6398,1.646,1.6708,1.7211,1.7449,1.7798,1.8054,1.7844,1.7888,1.792,1.772,1.7426,1.6699,1.5767,1.4967,1.5431,1.5192,1.4705,1.4347,1.5786,1.5442,1.415,1.4592,1.5254,1.496,1.4867,1.5138,1.5066,1.5156,1.528,1.5217,1.5186,1.5113,1.5086,1.5231,1.52,1.5302,1.5576,1.5557,1.5573,1.567,1.5748,1.5492,1.541,1.541,1.5266,1.5176,1.5078,1.529,1.4952,1.5143,1.5186,1.4949,1.5177,1.5642,1.5104,1.4628,1.5583,1.5903,1.6396,1.6967,1.7286,1.7309,1.7309,1.7309,1.7309,1.7309,1.7309,1.7309,1.7309,1.7309,1.7309,1.7309,1.7309,1.7309,1.7309,1.7266,1.7214,1.7128,1.7011,1.6975,1.6778,1.6199,1.6155,1.6082,1.6045,1.6126,1.6177,1.6235,1.6052,1.5614,1.5709,1.5965,1.5774,1.541,1.541,1.541,1.541,1.541,1.541,1.5446,1.5534]},{"header":{"parameterUnit":"m.s-1","parameterCategory":1,"la1":31.0,"la2":29.5877,"lo1":-88.7671,"lo2":-86.6584,"dy":0.0162,"dx":0.0185,"nx":115,"ny":88,"refTime":"2023-05-03T12:00:00:Z","depth":0,"parameterNumber":3,"parameterNumberName":"V-component_of_WINDS"},"data":[0.0,0.0,0.0,0.0,0.0,0.0,0.0,0.0,0.0,0.0,0.0,0.0,0.0,0.0,0.0,0.0,0.0,0.0,0.0,0.0,0.0,0.0,0.0,0.0,0.0,0.0,0.0,0.0,0.0,0.0,0.0,0.0,0.0,0.0,0.0,0.0,0.0,0.0,0.0,0.0,0.0,0.0,0.0,0.0,0.0,0.0,0.0,0.0,0.0,0.0,0.0,0.0,0.0,0.0,0.0,0.0,0.0,0.0,0.0,0.0,0.0,0.0,0.0,0.0,0.0,0.0,0.0,0.0,0.0,0.0,0.0,0.0,0.0,0.0,0.0,0.0,0.0,0.0,0.0,0.0,0.0,0.0,0.0,0.0,0.0,0.0,0.0,0.0,0.0,0.0,0.0,0.0,0.0,0.0,0.0,0.0,0.0,0.0,0.0,0.0,0.0,0.0,0.0,0.0,0.0,0.0,0.0,0.0,0.0,0.0,0.0,0.0,0.0,0.0,0.0,0.0,0.0,0.0,0.0,0.0,0.0,0.0,0.0,0.0,0.0,0.0,0.0,0.0,0.0,0.0,0.0,0.0,0.0,0.0,0.0,0.0,0.0,0.0,0.0,0.0,0.0,0.0,0.0,0.0,0.0,0.0,0.0,0.0,0.0,0.0,0.0,0.0,0.0,0.0,0.0,0.0,0.0,0.0,0.0,0.0,0.0,0.0,0.0,0.0,0.0,0.0,0.0,0.0,0.0,0.0,0.0,0.0,0.0,0.0,0.0,0.0,0.0,0.0,0.0,0.0,0.0,0.0,0.0,0.0,0.0,0.0,0.0,0.0,0.0,0.0,0.0,0.0,0.0,0.0,0.0,0.0,0.0,0.0,0.0,0.0,0.0,0.0,0.0,0.0,0.0,0.0,0.0,0.0,0.0,0.0,0.0,0.0,0.0,0.0,0.0,0.0,0.0,0.0,0.0,0.0,0.0,0.0,0.0,0.0,0.0,0.0,0.0,0.0,0.0,0.0,0.0,0.0,0.0,0.0,0.0,0.0,0.0,0.0,0.0,0.0,0.0,0.0,0.0,0.0,0.0,0.0,0.0,0.0,0.0,0.0,0.0,0.0,0.0,0.0,0.0,0.0,0.0,0.0,0.0,0.0,0.0,0.0,0.0,0.0,0.0,0.0,0.0,0.0,0.0,0.0,0.0,0.0,0.0,0.0,0.0,0.0,0.0,0.0,0.0,0.0,0.0,0.0,0.0,0.0,0.0,0.0,0.0,0.0,0.0,0.0,0.0,0.0,0.0,0.0,0.0,0.0,0.0,0.0,0.0,0.0,0.0,0.0,0.0,0.0,0.0,0.0,0.0,0.0,0.0,0.0,0.0,0.0,0.0,0.0,0.0,0.0,0.0,0.0,0.0,0.0,0.0,0.0,0.0,0.0,0.0,0.0,0.0,0.0,0.0,0.0,0.0,0.0,0.0,0.0,0.0,0.0,0.0,0.0,0.0,0.0,0.0,0.0,0.0,0.0,0.0,0.0,0.0,0.0,0.0,0.0,0.0,0.0,0.0,0.0,0.0,0.0,0.0,0.0,0.0,0.0,0.0,0.0,0.0,0.0,0.0,0.0,0.0,0.0,0.0,0.0,0.0,0.0,0.0,0.0,0.0,0.0,0.0,0.0,0.0,0.0,0.0,0.0,0.0,0.0,0.0,0.0,0.0,0.0,0.0,0.0,0.0,0.0,0.0,0.0,0.0,0.0,0.0,0.0,0.0,0.0,0.0,0.0,0.0,0.0,0.0,0.0,0.0,0.0,0.0,0.0,0.0,0.0,0.0,0.0,0.0,0.0,0.0,0.0,0.0,0.0,0.0,0.0,0.0,0.0,0.0,0.0,0.0,0.0,0.0,0.0,0.0,0.0,0.0,0.0,0.0,0.0,0.0,0.0,0.0,0.0,0.0,0.0,0.0,0.0,0.0,0.0,0.0,0.0,0.0,0.0,0.0,0.0,0.0,0.0,0.0,0.0,0.0,0.0,0.0,0.0,0.0,0.0,0.0,0.0,0.0,0.0,0.0,0.0,0.0,0.0,0.0,0.0,0.0,0.0,0.0,0.0,0.0,0.0,0.0,0.0,0.0,0.0,0.0,0.0,0.0,0.0,0.0,0.0,0.0,0.0,0.0,0.0,0.0,0.0,0.0,0.0,0.0,0.0,0.0,0.0,0.0,0.0,0.0,0.0,0.0,0.0,0.0,0.0,0.0,0.0,0.0,0.0,0.0,0.0,0.0,0.0,0.0,0.0,0.0,0.0,0.0,0.0,0.0,0.0,0.0,0.0,0.0,0.0,0.0,0.0,0.0,0.0,0.0,0.0,0.0,0.0,0.0,0.0,0.0,0.0,0.0,0.0,0.0,0.0,0.0,0.0,0.0,0.0,0.0,0.0,0.0,0.0,0.0,0.0,0.0,0.0,0.0,0.0,0.0,0.0,0.0,0.0,0.0,0.0,0.0,0.0,0.0,0.0,0.0,0.0,0.0,0.0,0.0,0.0,0.0,0.0,0.0,0.0,0.0,0.0,0.0,0.0,0.0,0.0,0.0,0.0,0.0,0.0,0.0,0.0,0.0,0.0,0.0,0.0,0.0,0.0,0.0,0.0,0.0,0.0,0.0,0.0,0.0,0.0,0.0,0.0,0.0,0.0,0.0,0.0,0.0,0.0,0.0,0.0,0.0,0.0,0.0,0.0,0.0,0.0,0.0,0.0,0.0,0.0,0.0,0.0,0.0,0.0,0.0,0.0,0.0,0.0,0.0,0.0,0.0,0.0,0.0,0.0,0.0,0.0,0.0,0.0,0.0,0.0,0.0,0.0,0.0,0.0,0.0,0.0,0.0,0.0,0.0,0.0,0.0,0.0,0.0,0.0,0.0,0.0,0.0,0.0,0.0,0.0,0.0,0.0,0.0,0.0,0.0,0.0,0.0,0.0,0.0,0.0,0.0,0.0,0.0,0.0,0.0,0.0,0.0,0.0,0.0,0.0,0.0,0.0,0.0,0.0,0.0,0.0,0.0,0.0,0.0,0.0,0.0,0.0,0.0,0.0,0.0,0.0,0.0,0.0,0.0,0.0,0.0,0.0,0.0,0.0,0.0,0.0,0.0,0.0,0.0,0.0,0.0,0.0,0.0,0.0,0.0,0.0,0.0,0.0,0.0,0.0,0.0,0.0,0.0,0.0,0.0,0.0,0.0,0.0,0.0,0.0,0.0,0.0,0.0,0.0,0.0,0.0,0.0,0.0,0.0,0.0,0.0,0.0,0.0,0.0,0.0,0.0,0.0,0.0,0.0,0.0,0.0,0.0,0.0,0.0,0.0,0.0,0.0,0.0,0.0,0.0,0.0,0.0,0.0,0.0,0.0,0.0,0.0,0.0,0.0,0.0,0.0,0.0,0.0,0.0,0.0,0.0,0.0,0.0,0.0,0.0,0.0,0.0,0.0,0.0,0.0,0.0,0.0,0.0,0.0,0.0,0.0,0.0,0.0,0.0,0.0,0.0,0.0,0.0,0.0,0.0,0.0,0.0,0.0,0.0,0.0,0.0,0.0,0.0,0.0,0.0,0.0,0.0,0.0,0.0,0.0,0.0,0.0,0.0,0.0,0.0,0.0,0.0,0.0,0.0,0.0,0.0,0.0,0.0,0.0,0.0,0.0,0.0,0.0,0.0,0.0,0.0,0.0,0.0,0.0,0.0,0.0,0.0,0.0,0.0,0.0,0.0,0.0,0.0,0.0,0.0,0.0,0.0,0.0,0.0,0.0,0.0,0.0,0.0,0.0,0.0,0.0,0.0,0.0,0.0,0.0,0.0,0.0,0.0,0.0,0.0,0.0,0.0,0.0,0.0,0.0,0.0,0.0,0.0,0.0,0.0,0.0,0.0,0.0,0.0,0.0,0.0,0.0,0.0,0.0,0.0,0.0,0.0,0.0,0.0,0.0,0.0,0.0,0.0,0.0,0.0,0.0,0.0,0.0,0.0,0.0,0.0,0.0,0.0,0.0,0.0,0.0,0.0,0.0,0.0,0.0,0.0,0.0,0.0,0.0,0.0,0.0,0.0,0.0,0.0,0.0,0.0,0.0,0.0,0.0,0.0,0.0,0.0,0.0,0.0,0.0,0.0,0.0,0.0,0.0,0.0,0.0,0.0,0.0,0.0,0.0,0.0,0.0,0.0,0.0,0.0,0.0,0.0,0.0,0.0,0.0,0.0,0.0,0.0,0.0,0.0,0.0,0.0,1.4219,0.0,0.0,0.0,0.0,0.0,0.0,0.0,0.0,0.0,0.0,0.0,0.0,0.0,0.0,0.0,0.0,0.0,0.0,0.0,0.0,0.0,0.0,0.0,0.0,0.0,0.0,0.0,0.0,0.0,0.0,0.0,0.0,0.0,0.0,0.0,0.0,0.0,0.0,0.0,0.0,0.0,0.0,0.0,0.0,0.0,0.0,0.0,0.0,0.0,0.0,0.0,0.0,0.0,0.0,0.0,0.0,0.0,0.0,0.0,0.0,0.0,0.0,0.0,0.0,0.0,0.0,0.0,0.0,0.0,0.0,0.0,0.0,0.0,0.0,0.0,0.0,0.0,0.0,0.0,0.0,0.0,0.0,0.0,0.0,0.0,0.0,0.0,0.0,0.0,0.0,0.0,0.0,0.0,0.0,0.0,0.0,0.0,0.0,0.0,0.0,0.0,0.0,0.0,0.0,0.0,0.0,0.0,0.0,0.0,0.0,1.2995,1.318,1.3911,1.4651,1.541,0.0,0.0,0.0,0.0,0.0,0.0,0.0,0.0,0.0,0.0,0.0,0.0,0.0,0.0,0.0,0.0,0.0,0.0,0.0,0.0,0.0,0.0,0.0,0.0,0.0,0.0,0.0,0.0,0.0,0.0,0.0,0.0,0.0,0.0,0.0,0.0,0.0,0.0,0.0,0.0,0.0,0.0,0.0,0.0,0.0,0.0,0.0,0.0,0.0,0.0,0.0,0.0,0.0,0.0,0.0,0.0,0.0,0.0,0.0,0.0,0.0,0.0,0.0,0.0,0.0,0.0,0.0,0.0,0.0,0.0,0.0,0.0,0.0,0.0,0.0,0.0,0.0,0.0,0.0,0.0,0.0,0.0,0.0,0.0,0.0,0.0,0.0,0.0,0.0,0.0,0.0,0.0,0.0,0.0,0.0,0.0,0.0,0.0,0.0,0.0,0.0,0.0,0.0,0.0,0.0,0.0,0.0,0.0,0.0,0.0,0.0,0.0,1.4558,1.5632,1.7354,0.0,0.0,0.0,0.0,0.0,0.0,0.0,0.0,0.0,0.0,0.0,0.0,0.0,0.0,0.0,0.0,0.0,0.0,0.0,0.0,0.0,0.0,0.0,0.0,0.0,0.0,0.0,0.0,0.0,0.0,0.0,0.0,0.0,0.0,0.0,0.0,0.0,0.0,0.0,0.0,0.0,0.0,0.0,0.0,0.0,0.0,0.0,0.0,0.0,0.0,0.0,0.0,0.0,0.0,0.0,0.0,0.0,0.0,0.0,0.0,0.0,0.0,0.0,0.0,0.0,0.0,0.0,0.0,0.0,0.0,0.0,0.0,0.0,0.0,0.0,0.0,0.0,0.0,0.0,0.0,0.0,0.0,0.0,0.0,0.0,0.0,0.0,0.0,0.0,0.0,0.0,0.0,0.0,0.0,0.0,0.0,0.0,0.0,0.0,0.0,0.0,0.0,0.0,0.0,0.0,0.0,0.0,0.0,0.0,0.0,1.3258,1.5676,1.624,0.0,2.0144,0.0,0.0,0.0,0.0,0.0,0.0,0.0,0.0,0.0,0.0,0.0,0.0,0.0,0.0,0.0,0.0,0.0,0.0,0.0,0.0,0.0,0.0,0.0,0.0,0.0,0.0,0.0,0.0,0.0,0.0,0.0,0.0,0.0,0.0,0.0,0.0,0.0,0.0,0.0,0.0,0.0,0.0,0.0,0.0,0.0,0.0,0.0,0.0,0.0,0.0,0.0,0.0,0.0,0.0,0.0,0.0,0.0,0.0,0.0,0.0,0.0,0.0,0.0,0.0,0.0,0.0,0.0,0.0,0.0,0.0,0.0,0.0,0.0,0.0,0.0,0.0,0.0,0.0,0.0,0.0,0.0,0.0,0.0,0.0,0.0,0.0,0.0,0.0,0.0,0.0,0.0,0.0,0.0,0.0,0.0,0.0,0.0,0.0,0.0,0.0,0.0,0.0,0.0,0.0,0.0,0.0,0.0,0.0,0.0,0.0,1.4028,1.5324,1.7264,1.8644,0.0,0.0,0.0,0.0,0.0,0.0,0.0,0.0,0.0,0.0,0.0,0.0,0.0,0.0,0.0,0.0,0.0,0.0,0.0,0.0,0.0,0.0,0.0,0.0,0.0,0.0,0.0,0.0,0.0,0.0,0.0,0.0,0.0,0.0,0.0,0.0,0.0,0.0,0.0,0.0,0.0,0.0,0.0,0.0,0.0,0.0,0.0,0.0,0.0,0.0,0.0,0.0,0.0,0.0,0.0,0.0,0.0,0.0,0.0,0.0,0.0,0.0,0.0,0.0,0.0,0.0,0.0,0.0,0.0,0.0,0.0,0.0,0.0,0.0,0.0,0.0,0.0,0.0,0.0,0.0,0.0,0.0,0.0,0.0,0.0,0.0,0.0,0.0,0.0,0.0,0.0,0.0,0.0,0.0,0.0,0.0,0.0,0.0,0.0,0.0,0.0,0.0,0.0,0.0,0.0,0.0,0.0,0.0,0.0,0.0,1.381,1.4699,1.5941,1.8125,1.9431,1.9608,0.0,0.0,0.0,0.0,0.0,0.0,0.0,0.0,0.0,0.0,0.0,0.0,0.0,0.0,0.0,0.0,0.0,0.0,0.0,0.0,0.0,0.0,0.0,0.0,0.0,0.0,0.0,0.0,0.0,0.0,0.0,0.0,0.0,0.0,0.0,0.0,0.0,0.0,0.0,0.0,0.0,0.0,0.0,0.0,0.0,0.0,0.0,0.0,0.0,0.0,0.0,0.0,0.0,0.0,0.0,0.0,0.0,0.0,0.0,0.0,0.0,0.0,0.0,0.0,0.0,0.0,0.0,0.0,0.0,0.0,0.0,0.0,0.0,0.0,0.0,0.0,0.0,0.0,0.0,0.0,0.0,0.0,0.0,0.0,0.0,0.0,0.0,0.0,0.0,0.0,0.0,0.0,0.0,0.0,0.0,0.0,0.0,0.0,0.0,0.0,0.0,0.0,0.0,0.0,0.0,0.0,0.0,0.0,1.5706,1.4377,1.511,1.8256,1.8957,2.0184,0.0,0.0,0.0,0.0,0.0,0.0,0.0,0.0,0.0,0.0,0.0,0.0,0.0,0.0,0.0,0.0,0.0,0.0,0.0,0.0,0.0,0.0,0.0,0.0,0.0,0.0,0.0,0.0,0.0,0.0,0.0,0.0,0.0,0.0,0.0,0.0,0.0,0.0,0.0,0.0,0.0,0.0,0.0,0.0,0.0,0.0,0.0,0.0,0.0,0.0,0.0,0.0,0.0,0.0,0.0,0.0,0.0,0.0,0.0,0.0,0.0,0.0,0.0,0.0,0.0,0.0,0.0,0.0,0.0,0.0,0.0,0.0,0.0,0.0,0.0,0.0,0.0,0.0,0.0,0.0,0.0,0.0,0.0,0.0,0.0,0.0,0.0,0.0,0.0,0.0,0.0,0.0,0.0,0.0,0.0,0.0,0.0,0.0,0.0,0.0,0.0,0.0,0.0,0.0,0.0,0.0,0.0,0.0,0.0,1.4912,1.512,1.6251,1.8318,1.9507,2.0622,0.0,0.0,0.0,0.0,0.0,0.0,0.0,0.0,0.0,0.0,0.0,0.0,0.0,0.0,0.0,0.0,0.0,0.0,0.0,0.0,0.0,0.0,0.0,0.0,0.0,0.0,0.0,0.0,0.0,0.0,0.0,0.0,0.0,0.0,0.0,0.0,0.0,0.0,0.0,0.0,0.0,0.0,0.0,0.0,0.0,0.0,0.0,0.0,0.0,0.0,0.0,0.0,0.0,0.0,0.0,0.0,0.0,0.0,0.0,0.0,0.0,0.0,0.0,0.0,0.0,0.0,0.0,0.0,0.0,0.0,0.0,0.0,0.0,0.0,0.0,0.0,0.0,0.0,0.0,0.0,0.0,0.0,0.0,0.0,0.0,0.0,0.0,0.0,0.0,0.0,0.0,0.0,0.0,0.0,0.0,0.0,0.0,0.0,0.0,0.0,0.0,0.0,0.0,0.0,0.0,0.0,0.0,0.0,0.0,1.4905,0.0,1.7573,1.8734,1.9953,2.0907,0.0,0.0,0.0,0.0,0.0,0.0,0.0,0.0,0.0,0.0,0.0,0.0,0.0,0.0,0.0,0.0,0.0,0.0,0.0,0.0,0.0,0.0,0.0,0.0,0.0,0.0,0.0,0.0,0.0,0.0,0.0,0.0,0.0,0.0,0.0,0.0,0.0,0.0,0.0,0.0,0.0,0.0,0.0,0.0,0.0,0.0,0.0,0.0,0.0,0.0,0.0,0.0,0.0,0.0,0.0,0.0,0.0,0.0,0.0,0.0,0.0,0.0,0.0,0.0,0.0,0.0,0.0,0.0,0.0,0.0,0.0,0.0,0.0,0.0,0.0,0.0,0.0,0.0,0.0,0.0,0.0,0.0,0.0,0.0,0.0,0.0,0.0,0.0,0.0,0.0,0.0,0.0,0.0,0.0,0.0,0.0,0.0,0.0,0.0,0.0,0.0,0.0,0.0,0.0,0.0,0.0,0.0,0.0,1.4362,1.6066,1.7749,1.8904,1.9704,2.0285,2.1041,0.0,0.0,0.0,0.0,0.0,0.0,0.0,0.0,0.0,0.0,0.0,0.0,0.0,0.0,0.0,0.0,0.0,0.0,0.0,0.0,0.0,0.0,0.0,0.0,0.0,0.0,0.0,0.0,0.0,0.0,0.0,0.0,0.0,0.0,0.0,0.0,0.0,0.0,0.0,0.0,0.0,0.0,0.0,0.0,0.0,0.0,0.0,0.0,0.0,0.0,0.0,0.0,0.0,0.0,0.0,0.0,0.0,0.0,0.0,0.0,0.0,0.0,0.0,0.0,0.0,0.0,0.0,0.0,0.0,0.0,0.0,0.0,0.0,0.0,0.0,0.0,0.0,0.0,0.0,0.0,0.0,0.0,0.0,0.0,0.0,0.0,0.0,0.0,0.0,0.0,0.0,0.0,0.0,0.0,0.0,0.0,0.0,0.0,0.0,0.0,0.0,0.0,0.0,0.0,0.0,0.0,0.0,0.0,0.0,1.6667,1.7546,1.8932,2.0755,2.0466,2.1273,0.0,0.0,0.0,0.0,0.0,0.0,0.0,0.0,0.0,0.0,0.0,0.0,0.0,0.0,0.0,0.0,0.0,0.0,0.0,0.0,0.0,0.0,0.0,0.0,0.0,0.0,0.0,0.0,0.0,0.0,0.0,0.0,0.0,0.0,0.0,0.0,0.0,0.0,0.0,0.0,0.0,0.0,0.0,0.0,0.0,0.0,0.0,0.0,0.0,0.0,0.0,0.0,0.0,0.0,0.0,0.0,0.0,0.0,0.0,0.0,0.0,0.0,0.0,0.0,0.0,0.0,0.0,0.0,0.0,0.0,0.0,0.0,0.0,0.0,0.0,0.0,0.0,0.0,0.0,0.0,0.0,0.0,0.0,0.0,0.0,0.0,0.0,0.0,0.0,0.0,0.0,0.0,0.0,0.0,0.0,0.0,0.0,0.0,0.0,0.0,0.0,0.0,0.0,0.0,0.0,0.0,0.0,0.0,0.0,1.8458,1.9072,2.0234,2.1875,2.1613,2.2232,2.3922,0.0,0.0,0.0,0.0,0.0,0.0,0.0,0.0,0.0,0.0,0.0,0.0,0.0,0.0,0.0,0.0,0.0,0.0,0.0,0.0,0.0,0.0,0.0,0.0,0.0,0.0,0.0,0.0,0.0,0.0,0.0,0.0,0.0,0.0,0.0,0.0,0.0,0.0,0.0,0.0,0.0,0.0,0.0,0.0,0.0,0.0,0.0,0.0,0.0,0.0,0.0,0.0,0.0,0.0,0.0,0.0,0.0,0.0,0.0,0.0,0.0,0.0,0.0,0.0,0.0,0.0,0.0,0.0,0.0,0.0,0.0,0.0,0.0,0.0,0.0,0.0,0.0,0.0,0.0,0.0,0.0,0.0,0.0,0.0,0.0,0.0,0.0,0.0,0.0,0.0,0.0,0.0,0.0,0.0,0.0,0.0,0.0,0.0,0.0,0.0,0.0,0.0,0.0,0.0,0.0,0.0,0.0,0.0,2.1119,2.2199,2.2863,2.2991,2.3427,2.3729,0.0,0.0,0.0,0.0,0.0,0.0,0.0,0.0,0.0,0.0,0.0,0.0,0.0,0.0,0.0,0.0,0.0,0.0,0.0,0.0,0.0,0.0,0.0,0.0,0.0,0.0,0.0,0.0,0.0,0.0,0.0,0.0,0.0,0.0,0.0,0.0,0.0,0.0,0.0,0.0,0.0,0.0,0.0,0.0,0.0,0.0,0.0,0.0,0.0,0.0,0.0,0.0,0.0,0.0,0.0,0.0,0.0,0.0,0.0,0.0,0.0,0.0,0.0,0.0,0.0,0.0,0.0,0.0,0.0,0.0,0.0,0.0,0.0,0.0,0.0,0.0,0.0,0.0,0.0,0.0,0.0,0.0,0.0,0.0,0.0,0.0,0.0,0.0,0.0,0.0,0.0,0.0,0.0,0.0,0.0,0.0,0.0,0.0,0.0,0.0,0.0,0.0,0.0,0.0,0.0,0.0,0.0,0.0,0.0,2.4044,2.6197,2.6702,2.5353,2.4134,2.41,0.0,0.0,0.0,0.0,0.0,0.0,0.0,0.0,0.0,0.0,0.0,0.0,0.0,0.0,0.0,0.0,0.0,0.0,0.0,0.0,0.0,0.0,0.0,0.0,0.0,0.0,0.0,0.0,0.0,0.0,0.0,0.0,0.0,0.0,0.0,0.0,0.0,0.0,0.0,0.0,0.0,0.0,0.0,0.0,0.0,0.0,0.0,0.0,0.0,0.0,0.0,0.0,0.0,0.0,0.0,0.0,0.0,0.0,0.0,0.0,0.0,0.0,0.0,0.0,0.0,0.0,0.0,0.0,0.0,0.0,0.0,0.0,0.0,0.0,0.0,0.0,0.0,0.0,0.0,0.0,0.0,0.0,0.0,0.0,0.0,0.0,0.0,0.0,0.0,0.0,0.0,0.0,0.0,0.0,0.0,0.0,0.0,0.0,0.0,0.0,0.0,0.0,0.0,0.0,0.0,0.0,0.0,0.0,2.4747,2.5326,2.812,2.921,2.836,2.6832,2.5943,0.0,0.0,0.0,0.0,0.0,0.0,0.0,0.0,0.0,0.0,0.0,0.0,0.0,0.0,0.0,0.0,0.0,0.0,0.0,0.0,0.0,0.0,0.0,0.0,0.0,0.0,0.0,0.0,0.0,0.0,0.0,0.0,0.0,0.0,0.0,0.0,0.0,0.0,0.0,0.0,0.0,0.0,0.0,0.0,0.0,0.0,0.0,0.0,0.0,0.0,0.0,0.0,0.0,0.0,0.0,0.0,0.0,0.0,0.0,0.0,0.0,0.0,0.0,0.0,0.0,0.0,0.0,0.0,0.0,0.0,0.0,0.0,0.0,0.0,0.0,0.0,0.0,0.0,0.0,0.0,0.0,0.0,0.0,0.0,0.0,0.0,0.0,0.0,0.0,0.0,0.0,0.0,0.0,0.0,0.0,0.0,0.0,0.0,0.0,0.0,0.0,0.0,0.0,0.0,0.0,0.0,0.0,0.0,2.572,2.5997,2.8962,3.0758,3.1216,3.0143,2.8367,0.0,0.0,0.0,0.0,0.0,0.0,0.0,0.0,0.0,0.0,0.0,0.0,0.0,0.0,0.0,0.0,0.0,0.0,0.0,0.0,0.0,0.0,0.0,0.0,0.0,0.0,0.0,0.0,0.0,0.0,0.0,0.0,0.0,0.0,0.0,0.0,0.0,0.0,0.0,0.0,0.0,0.0,0.0,0.0,0.0,0.0,0.0,0.0,0.0,0.0,0.0,0.0,0.0,0.0,0.0,0.0,0.0,0.0,0.0,0.0,0.0,0.0,0.0,0.0,0.0,0.0,0.0,0.0,0.0,0.0,0.0,0.0,0.0,0.0,0.0,0.0,0.0,0.0,0.0,0.0,0.0,0.0,0.0,0.0,0.0,0.0,0.0,0.0,0.0,0.0,0.0,0.0,0.0,0.0,0.0,0.0,0.0,0.0,0.0,0.0,0.0,0.0,0.0,0.0,0.0,0.0,0.0,0.0,2.7316,2.8368,3.0692,3.1715,3.1239,2.9856,2.8706,0.0,0.0,0.0,0.0,0.0,0.0,0.0,0.0,0.0,0.0,0.0,0.0,0.0,0.0,0.0,0.0,0.0,0.0,0.0,0.0,0.0,0.0,0.0,0.0,0.0,0.0,0.0,0.0,0.0,0.0,0.0,0.0,0.0,0.0,0.0,0.0,0.0,0.0,0.0,0.0,0.0,0.0,0.0,0.0,0.0,0.0,0.0,0.0,1.7019,0.0,0.0,0.0,0.0,0.0,0.0,0.0,0.0,0.0,0.0,0.0,0.0,0.0,0.0,0.0,0.0,0.0,0.0,0.0,0.0,0.0,0.0,0.0,0.0,0.0,0.0,0.0,0.0,0.0,0.0,0.0,0.0,0.0,0.0,0.0,0.0,0.0,0.0,0.0,0.0,0.0,0.0,0.0,0.0,0.0,0.0,0.0,0.0,0.0,0.0,0.0,0.0,0.0,0.0,0.0,0.0,0.0,0.0,0.0,2.8135,2.9362,3.1728,3.2519,3.1452,3.0409,2.9152,0.0,0.0,0.0,0.0,0.0,0.0,0.0,0.0,0.0,0.0,0.0,0.0,0.0,0.0,0.0,0.0,0.0,0.0,0.0,0.0,0.0,0.0,0.0,0.0,0.0,0.0,0.0,0.0,0.0,0.0,0.0,0.0,0.0,0.0,0.0,0.0,0.0,0.0,0.0,0.0,0.0,0.0,0.0,0.0,0.0,0.0,0.0,0.0,0.0,0.0,0.0,0.0,0.0,0.0,0.0,0.0,0.0,0.0,0.0,0.0,0.0,0.0,0.0,0.0,0.0,0.0,0.0,0.0,0.0,0.0,0.0,0.0,0.0,0.0,0.0,0.0,0.0,0.0,0.0,0.0,0.0,0.0,0.0,0.0,0.0,0.0,0.0,0.0,0.0,0.0,0.0,0.0,0.0,0.0,0.0,0.0,0.0,0.0,0.0,0.0,0.0,0.0,0.0,0.0,0.0,0.0,0.0,2.7056,2.8609,2.9843,3.2044,3.2692,3.1593,3.0973,2.9462,2.7,0.0,0.0,0.0,0.0,0.0,0.0,0.0,0.0,0.0,0.0,0.0,0.0,0.0,0.0,0.0,0.0,0.0,0.0,0.0,0.0,0.0,0.0,0.0,0.0,0.0,0.0,0.0,0.0,0.0,0.0,0.0,0.0,0.0,0.0,0.0,0.0,0.0,0.0,1.4879,1.6244,0.0,0.0,0.0,0.0,0.0,0.0,0.0,0.0,1.7641,0.0,0.0,0.0,0.0,0.0,0.0,0.0,0.0,0.0,0.0,0.0,0.0,0.0,0.0,0.0,0.0,0.0,0.0,0.0,0.0,0.0,0.0,0.0,0.0,0.0,0.0,0.0,0.0,0.0,0.0,0.0,0.0,0.0,0.0,0.0,0.0,0.0,0.0,0.0,0.0,0.0,0.0,0.0,0.0,0.0,0.0,0.0,0.0,0.0,0.0,0.0,0.0,0.0,0.0,0.0,0.0,2.732,2.7854,2.8999,3.0803,3.0961,3.0989,3.0935,3.0366,2.9137,2.7256,0.0,0.0,0.0,0.0,0.0,0.0,0.0,0.0,0.0,0.0,0.0,0.0,0.0,0.0,0.0,0.0,0.0,0.0,0.0,0.0,0.0,0.0,0.0,0.0,0.0,0.0,0.0,0.0,0.0,0.0,0.0,0.0,0.0,0.0,0.0,0.0,0.0,0.0,0.0,1.8125,1.9574,0.0,0.0,0.0,0.0,0.0,0.0,0.0,0.0,1.8115,0.0,0.0,0.0,0.0,0.0,0.0,0.0,0.0,0.0,0.0,0.0,0.0,0.0,0.0,0.0,0.0,0.0,0.0,0.0,0.0,0.0,0.0,0.0,0.0,0.0,0.0,0.0,0.0,0.0,0.0,0.0,0.0,0.0,0.0,0.0,0.0,0.0,0.0,0.0,0.0,0.0,0.0,0.0,0.0,0.0,0.0,0.0,0.0,0.0,0.0,0.0,0.0,0.0,0.0,0.0,2.7869,2.8621,2.9455,3.0513,3.1327,3.1246,3.0217,2.9603,2.8861,0.0,0.0,0.0,0.0,0.0,0.0,0.0,0.0,0.0,0.0,0.0,0.0,0.0,0.0,0.0,0.0,0.0,0.0,0.0,0.0,0.0,0.0,0.0,0.0,0.0,0.0,0.0,0.0,0.0,0.0,0.0,0.0,0.0,0.0,0.0,0.0,0.0,0.0,0.0,0.0,1.7989,1.9063,1.838,0.0,0.0,0.0,0.0,0.0,0.0,1.8835,1.8919,0.0,0.0,0.0,0.0,0.0,0.0,0.0,0.0,0.0,0.0,0.0,0.0,0.0,0.0,0.0,0.0,0.0,0.0,0.0,0.0,0.0,0.0,0.0,0.0,0.0,0.0,0.0,0.0,0.0,0.0,0.0,0.0,0.0,0.0,0.0,0.0,0.0,0.0,0.0,0.0,0.0,0.0,0.0,0.0,0.0,0.0,0.0,0.0,0.0,0.0,0.0,0.0,0.0,0.0,0.0,2.8095,2.9024,2.9654,3.0119,3.1442,3.1371,2.9729,2.9047,2.868,0.0,0.0,0.0,0.0,0.0,0.0,0.0,0.0,0.0,0.0,0.0,0.0,0.0,0.0,0.0,0.0,0.0,0.0,0.0,0.0,0.0,0.0,0.0,0.0,0.0,0.0,0.0,0.0,0.0,0.0,0.0,0.0,0.0,0.0,0.0,0.0,0.0,0.0,0.0,0.0,0.0,1.8762,1.8402,1.9013,0.0,0.0,0.0,0.0,1.9742,1.9988,0.0,0.0,0.0,0.0,0.0,0.0,0.0,0.0,0.0,0.0,0.0,0.0,0.0,0.0,0.0,0.0,0.0,0.0,0.0,0.0,0.0,0.0,0.0,0.0,0.0,0.0,0.0,0.0,0.0,0.0,0.0,0.0,0.0,0.0,0.0,0.0,0.0,0.0,0.0,0.0,0.0,0.0,0.0,0.0,0.0,0.0,0.0,0.0,0.0,0.0,0.0,0.0,0.0,0.0,0.0,0.0,2.8408,2.8575,2.9186,3.0275,2.9945,2.976,2.9836,2.9104,2.868,0.0,0.0,0.0,0.0,0.0,0.0,0.0,0.0,0.0,0.0,0.0,0.0,0.0,0.0,0.0,0.0,0.0,0.0,0.0,0.0,0.0,0.0,0.0,0.0,0.0,0.0,0.0,0.0,0.0,0.0,0.0,0.0,0.0,0.0,0.0,0.0,0.0,0.0,0.0,0.0,0.0,2.0768,2.0263,2.0671,2.1057,0.0,0.0,2.0503,2.0709,2.1625,0.0,0.0,0.0,0.0,0.0,0.0,0.0,0.0,0.0,0.0,0.0,0.0,0.0,0.0,0.0,0.0,0.0,0.0,0.0,0.0,0.0,0.0,0.0,0.0,0.0,0.0,0.0,0.0,0.0,0.0,0.0,0.0,0.0,0.0,0.0,0.0,0.0,0.0,0.0,0.0,0.0,0.0,0.0,0.0,0.0,0.0,0.0,0.0,0.0,0.0,0.0,0.0,0.0,0.0,0.0,2.7699,2.9194,2.9846,3.0454,3.1108,3.098,3.0809,3.0646,2.8934,2.8461,0.0,0.0,0.0,0.0,0.0,0.0,0.0,0.0,0.0,0.0,0.0,0.0,0.0,0.0,0.0,0.0,0.0,0.0,0.0,0.0,0.0,0.0,0.0,0.0,0.0,0.0,0.0,0.0,0.0,0.0,0.0,0.0,0.0,0.0,0.0,0.0,0.0,0.0,0.0,0.0,0.0,0.0,1.9835,2.0459,0.0,0.0,0.0,2.148,2.2557,0.0,0.0,0.0,0.0,0.0,0.0,0.0,0.0,0.0,0.0,0.0,0.0,0.0,0.0,0.0,0.0,0.0,0.0,0.0,0.0,0.0,0.0,0.0,0.0,0.0,0.0,0.0,0.0,0.0,0.0,0.0,0.0,0.0,0.0,0.0,0.0,0.0,0.0,0.0,0.0,0.0,0.0,0.0,0.0,0.0,0.0,0.0,0.0,0.0,0.0,0.0,0.0,0.0,0.0,0.0,0.0,0.0,2.987,3.068,3.1222,3.1488,3.1689,3.1403,3.0556,2.8532,0.0,0.0,0.0,0.0,0.0,0.0,0.0,0.0,0.0,0.0,0.0,0.0,0.0,0.0,0.0,0.0,0.0,0.0,0.0,0.0,0.0,0.0,0.0,0.0,0.0,0.0,0.0,2.0074,0.0,0.0,0.0,0.0,0.0,0.0,0.0,0.0,0.0,0.0,0.0,0.0,0.0,0.0,2.1021,2.0156,2.0949,2.1774,0.0,0.0,2.2723,2.3689,2.3812,2.366,0.0,0.0,0.0,0.0,0.0,0.0,0.0,0.0,0.0,0.0,0.0,0.0,0.0,0.0,0.0,0.0,0.0,0.0,0.0,0.0,0.0,0.0,0.0,0.0,0.0,0.0,0.0,0.0,0.0,0.0,0.0,0.0,0.0,0.0,0.0,0.0,0.0,0.0,0.0,0.0,0.0,0.0,0.0,0.0,0.0,0.0,0.0,0.0,0.0,0.0,0.0,0.0,0.0,0.0,0.0,3.0112,3.0245,3.0548,3.0935,3.0988,3.0301,2.89,2.7796,2.7633,0.0,0.0,0.0,0.0,0.0,0.0,0.0,0.0,0.0,0.0,0.0,0.0,0.0,0.0,0.0,0.0,0.0,0.0,0.0,0.0,0.0,0.0,0.0,0.0,0.0,0.0,0.0,0.0,0.0,0.0,0.0,0.0,0.0,0.0,0.0,0.0,0.0,0.0,0.0,0.0,0.0,2.2738,2.2649,2.3287,2.38,0.0,2.4365,2.4406,2.3342,2.4498,2.4885,2.2987,0.0,0.0,0.0,0.0,0.0,0.0,0.0,0.0,0.0,0.0,0.0,0.0,0.0,0.0,0.0,0.0,0.0,0.0,0.0,0.0,0.0,0.0,0.0,0.0,0.0,0.0,0.0,0.0,0.0,0.0,0.0,0.0,0.0,0.0,0.0,0.0,0.0,0.0,0.0,0.0,0.0,0.0,0.0,0.0,0.0,0.0,0.0,0.0,0.0,0.0,0.0,0.0,0.0,2.9521,3.0907,3.1221,3.1952,3.3086,3.2293,3.1555,3.0995,2.8996,2.8091,0.0,0.0,0.0,0.0,0.0,0.0,0.0,0.0,0.0,0.0,0.0,0.0,0.0,0.0,0.0,0.0,0.0,0.0,0.0,0.0,0.0,0.0,0.0,0.0,0.0,0.0,0.0,0.0,2.086,2.0777,2.1536,0.0,0.0,0.0,0.0,0.0,0.0,0.0,0.0,0.0,0.0,2.3303,2.3559,2.3985,0.0,0.0,2.4873,2.4986,2.5437,2.4954,2.442,2.4114,2.3526,0.0,0.0,0.0,0.0,0.0,0.0,0.0,0.0,0.0,0.0,0.0,0.0,0.0,0.0,0.0,0.0,0.0,0.0,0.0,0.0,0.0,0.0,0.0,0.0,0.0,0.0,0.0,0.0,0.0,0.0,0.0,0.0,0.0,0.0,0.0,0.0,0.0,0.0,0.0,0.0,0.0,0.0,0.0,0.0,0.0,0.0,0.0,0.0,0.0,0.0,0.0,0.0,3.0106,3.1851,3.1973,3.2757,3.4307,3.3318,3.2408,3.1583,2.971,2.8545,0.0,0.0,0.0,0.0,0.0,0.0,0.0,0.0,0.0,0.0,0.0,0.0,0.0,0.0,0.0,0.0,0.0,0.0,0.0,0.0,0.0,0.0,0.0,0.0,0.0,0.0,0.0,0.0,2.133,2.1188,2.1214,0.0,0.0,0.0,0.0,0.0,0.0,0.0,0.0,0.0,0.0,2.391,2.4402,2.5058,2.5692,2.6242,2.5973,2.6024,2.6895,2.5615,2.4525,2.4636,0.0,0.0,0.0,0.0,0.0,0.0,0.0,0.0,0.0,0.0,0.0,0.0,0.0,0.0,0.0,0.0,0.0,0.0,0.0,0.0,0.0,0.0,0.0,0.0,0.0,0.0,0.0,2.503,0.0,0.0,2.5128,0.0,0.0,0.0,0.0,0.0,0.0,0.0,0.0,0.0,0.0,0.0,0.0,0.0,0.0,0.0,0.0,0.0,0.0,0.0,0.0,0.0,0.0,3.0814,3.2896,3.2208,3.2461,3.371,3.3676,3.2447,3.0009,2.9523,2.8895,2.7895,0.0,0.0,0.0,0.0,0.0,0.0,0.0,0.0,0.0,0.0,0.0,0.0,0.0,0.0,0.0,0.0,0.0,0.0,0.0,0.0,0.0,0.0,0.0,0.0,0.0,0.0,2.2252,2.2272,2.2003,0.0,0.0,0.0,0.0,0.0,0.0,0.0,0.0,0.0,0.0,2.3965,2.4676,2.5458,2.6793,2.7647,2.7862,2.7922,2.775,2.7163,2.6461,2.555,0.0,0.0,0.0,0.0,0.0,0.0,0.0,0.0,0.0,0.0,0.0,0.0,0.0,0.0,0.0,0.0,0.0,0.0,0.0,0.0,0.0,0.0,0.0,0.0,0.0,0.0,0.0,2.7067,2.7892,0.0,0.0,0.0,0.0,0.0,0.0,0.0,0.0,0.0,0.0,0.0,3.0626,3.1653,0.0,0.0,0.0,0.0,0.0,0.0,0.0,0.0,0.0,0.0,0.0,0.0,3.1177,3.2882,3.2473,3.2949,3.441,3.3979,3.3279,3.2363,3.0904,2.9576,2.842,0.0,0.0,0.0,0.0,0.0,0.0,0.0,0.0,0.0,0.0,0.0,0.0,0.0,0.0,0.0,0.0,0.0,0.0,0.0,0.0,0.0,0.0,0.0,0.0,0.0,2.2335,0.0,0.0,0.0,0.0,0.0,0.0,0.0,0.0,0.0,0.0,0.0,2.3947,2.4701,2.4569,2.4879,2.6159,2.6328,2.6605,0.0,0.0,0.0,0.0,0.0,0.0,0.0,0.0,0.0,0.0,0.0,0.0,0.0,0.0,2.6371,2.4503,2.3775,2.3497,2.3601,0.0,0.0,0.0,0.0,0.0,0.0,0.0,0.0,0.0,0.0,0.0,0.0,0.0,0.0,2.9126,0.0,2.903,0.0,0.0,0.0,0.0,0.0,0.0,0.0,0.0,3.2206,3.2675,3.2206,3.325,3.3456,0.0,3.352,3.2806,0.0,0.0,0.0,0.0,0.0,0.0,0.0,0.0,3.1848,3.3045,3.2875,3.3441,3.4789,3.4396,3.3904,3.3476,3.1416,2.9663,2.8355,2.8058,2.8076,0.0,0.0,0.0,0.0,0.0,0.0,0.0,0.0,0.0,0.0,0.0,0.0,0.0,0.0,0.0,0.0,0.0,0.0,0.0,0.0,0.0,0.0,0.0,2.2768,0.0,0.0,0.0,0.0,0.0,0.0,0.0,0.0,0.0,2.3755,2.413,2.4763,2.578,2.5259,2.5374,2.702,0.0,0.0,0.0,0.0,0.0,0.0,0.0,2.5309,2.5598,2.5784,2.5951,2.6138,2.7301,2.8138,2.7875,0.0,0.0,2.6089,2.552,2.5321,2.5167,2.5088,2.4968,2.4635,2.474,2.4811,0.0,0.0,0.0,0.0,0.0,0.0,0.0,0.0,3.0546,3.1132,0.0,3.062,0.0,0.0,0.0,0.0,3.0017,3.147,0.0,0.0,3.3076,3.3755,3.3777,3.385,3.3788,3.3766,3.4604,3.4523,3.3549,3.1387,0.0,0.0,0.0,0.0,0.0,0.0,3.287,3.3331,3.338,3.3906,3.4898,3.4908,3.4326,3.311,3.1103,2.9283,2.7819,2.8349,2.8385,2.7734,2.7703,0.0,0.0,0.0,0.0,0.0,0.0,0.0,0.0,0.0,0.0,0.0,0.0,0.0,0.0,0.0,0.0,0.0,0.0,0.0,0.0,2.357,0.0,0.0,0.0,0.0,0.0,0.0,0.0,0.0,0.0,0.0,2.4791,2.4604,2.5063,2.6657,0.0,0.0,0.0,0.0,2.8202,2.9375,2.8699,2.828,2.9067,2.8562,2.7844,2.7135,0.0,0.0,2.7154,2.8288,2.9107,2.8374,2.8953,2.9019,2.8048,2.7928,2.7785,2.7114,2.7487,2.7673,2.6926,2.7115,2.7374,3.4593,0.0,0.0,0.0,0.0,3.4042,3.4244,3.372,3.3859,3.3721,3.3317,3.2414,0.0,0.0,0.0,0.0,0.0,0.0,3.4229,3.4714,3.6263,3.7018,3.7046,3.7603,3.7275,3.6197,3.6421,3.5535,3.3696,3.3674,3.3277,3.2575,0.0,0.0,0.0,0.0,3.3472,3.4151,3.3821,3.4325,3.5803,3.5216,3.4291,3.3059,3.194,3.0689,2.9357,2.8968,2.8998,2.9411,2.885,0.0,0.0,0.0,0.0,0.0,0.0,0.0,0.0,0.0,0.0,0.0,0.0,0.0,0.0,0.0,0.0,0.0,0.0,0.0,2.3604,2.4076,2.4157,0.0,0.0,0.0,0.0,0.0,0.0,0.0,0.0,0.0,2.7427,2.675,2.7,0.0,0.0,2.6764,2.9236,2.836,2.7902,2.9195,2.9044,0.0,2.9344,2.9067,2.865,2.8148,2.8887,2.9445,2.9216,3.043,3.1317,3.0982,3.1553,3.1766,3.0841,2.9638,2.8787,2.8452,2.8895,2.9039,2.8297,2.8581,2.8825,3.7667,3.5035,3.5389,3.546,3.5454,3.654,3.6708,3.6269,3.6456,3.6397,3.6159,3.5237,3.5148,3.5719,3.534,0.0,0.0,0.0,3.6414,3.6934,3.8196,3.896,3.9269,3.9848,3.9638,3.8729,3.89,3.7871,3.5846,3.6428,3.6095,3.489,0.0,0.0,3.3833,3.4457,3.4932,3.522,3.5186,3.5514,3.6182,3.5166,3.4277,3.347,3.2229,3.106,3.0026,2.9223,2.9095,2.9678,2.9532,2.9434,0.0,0.0,0.0,0.0,0.0,0.0,0.0,0.0,0.0,0.0,0.0,2.582,2.5277,0.0,0.0,0.0,2.5385,2.536,2.5099,2.5352,0.0,0.0,0.0,0.0,0.0,0.0,0.0,2.7675,2.8037,2.86,2.9562,2.9168,2.9158,3.0221,2.8512,2.7898,2.9962,0.0,2.8856,3.0049,2.9806,2.9768,3.0513,3.0513,3.0406,3.0444,3.1208,3.1593,3.1157,3.2065,3.2785,3.2815,3.3099,3.3293,3.2944,3.1958,3.0793,2.9897,3.0233,3.0426,2.9614,2.9996,3.0228,4.0218,3.8919,3.8641,3.8133,3.7611,3.8034,3.8176,3.8157,3.8527,3.9031,3.9541,3.8529,3.8625,3.9491,3.8749,0.0,3.7395,3.8061,3.8436,3.8591,3.9309,4.0063,4.078,4.1084,4.1192,4.1153,4.1568,4.0959,3.943,3.9401,3.8637,3.7131,3.6335,3.5909,3.5846,3.6613,3.6804,3.6315,3.6997,3.6997,3.6196,3.4929,3.425,3.4206,3.2265,3.0868,3.016,2.9357,2.8997,2.9122,2.9818,3.0222,3.032,0.0,0.0,0.0,0.0,0.0,0.0,0.0,0.0,0.0,0.0,0.0,0.0,0.0,0.0,0.0,2.6357,0.0,2.7362,2.7056,0.0,0.0,0.0,2.6859,2.7035,2.8235,2.9033,2.9096,0.0,0.0,3.109,3.1284,3.1092,3.011,2.9437,2.944,3.0563,3.0363,3.046,3.1179,3.0817,3.0837,3.1828,3.2169,3.2447,3.3055,3.3975,3.3778,3.2897,3.3166,3.3692,3.3826,3.3843,3.3944,3.4382,3.4148,3.3577,3.1331,3.1621,3.1886,3.0992,3.1262,3.1477,4.3456,4.3636,4.3569,4.1822,3.9196,4.0471,4.0678,4.0196,4.0846,4.0711,3.9967,3.9648,3.9425,3.9284,3.9073,3.9232,3.9618,3.9796,4.05,4.1624,4.183,4.234,4.3081,4.3161,4.2883,4.2324,4.2415,4.1935,4.1015,4.1229,4.0803,3.9827,3.9816,3.8501,3.5944,3.6804,3.7236,3.713,3.7301,3.6997,3.6201,3.525,3.467,3.4504,3.34,3.2326,3.1248,3.0483,3.0025,2.9922,3.0093,3.046,3.106,3.0723,0.0,0.0,0.0,0.0,0.0,0.0,0.0,0.0,0.0,2.9207,2.7692,0.0,2.7521,0.0,2.8493,2.7939,2.6925,2.7285,0.0,0.0,2.7978,2.9072,3.0792,3.0969,3.1144,3.1716,3.1777,3.155,3.1012,3.0474,3.0081,2.9876,3.0026,3.0737,3.2374,3.1345,3.0362,3.0426,3.1556,3.2291,3.1628,3.2091,3.2896,3.3599,3.3608,3.3589,3.3902,3.4054,3.43,3.4797,3.4913,3.4947,3.4933,3.4032,3.3122,3.2515,3.3005,3.3154,3.1796,3.1821,3.1959,4.5156,4.5585,4.5727,4.457,4.2699,4.3224,4.3014,4.2341,4.2894,4.2564,4.1585,4.1685,4.1582,4.1302,4.1284,4.1537,4.1939,4.195,4.2419,4.3214,4.3251,4.3466,4.3912,4.4039,4.3889,4.3463,4.361,4.3267,4.2524,4.268,4.2328,4.148,4.1642,4.074,3.8818,3.8583,3.8695,3.9119,3.841,3.7807,3.7347,3.6063,3.5504,3.5714,3.4132,3.3103,3.2716,3.1646,3.0936,3.0754,3.1066,3.147,3.1898,3.1837,3.1825,0.0,0.0,0.0,0.0,0.0,0.0,0.0,0.0,0.0,0.0,0.0,2.9216,2.9921,2.9796,2.9291,2.8414,2.8923,2.9215,2.9025,2.9828,3.1033,3.2672,3.2882,3.318,3.396,3.4079,3.3857,3.3137,3.2994,3.2661,3.2035,3.1823,3.1736,3.1714,3.1124,3.0746,3.091,3.167,3.2296,3.1931,3.2809,3.3452,3.3443,3.3569,3.353,3.3027,3.3471,3.4029,3.44,3.4747,3.5039,3.51,3.4517,3.379,3.351,3.3747,3.3446,3.2037,3.2126,3.2339,4.6176,4.6295,4.6588,4.6729,4.6653,4.6029,4.5232,4.4406,4.4473,4.4153,4.3567,4.4008,4.4128,4.4027,4.4009,4.4027,4.4027,4.4158,4.4139,4.4027,4.4147,4.4139,4.4042,4.432,4.4464,4.4496,4.4745,4.4554,4.3853,4.3853,4.3411,4.2596,4.2552,4.2558,4.2501,4.0999,4.0577,4.1274,3.9744,3.897,3.8951,3.7148,3.6534,3.7068,3.4693,3.3515,3.3888,3.2609,3.1781,3.1593,3.224,3.2662,3.2773,3.3323,3.3316,0.0,3.2588,0.0,0.0,0.0,0.0,0.0,0.0,0.0,0.0,3.1121,3.0942,3.0674,3.0792,3.0875,3.085,3.1135,3.1209,3.093,3.174,3.2705,3.3603,3.4284,3.4968,3.5794,3.6437,3.6501,3.5415,3.6085,3.5908,3.4056,3.2947,3.1841,3.0349,3.0396,3.0907,3.1677,3.1071,3.1037,3.2445,3.3384,3.3527,3.3008,3.3283,3.3304,3.1885,3.2546,3.3433,3.3697,3.4206,3.464,3.4992,3.4938,3.4607,3.395,3.3835,3.3454,3.2318,3.2291,3.2513,4.7672,4.8248,4.8326,4.8351,4.8343,4.8195,4.7308,4.588,4.459,4.4107,4.4272,4.5305,4.5368,4.4738,4.4726,4.47,4.4745,4.5443,4.5393,4.4719,4.545,4.5387,4.4745,4.4777,4.4802,4.4821,4.487,4.4819,4.4668,4.4668,4.4251,4.3468,4.3449,4.3449,4.3398,0.0,0.0,0.0,4.0292,3.9791,3.9798,3.8194,3.7298,3.7233,3.5456,0.0,3.3184,3.288,3.2643,3.2406,3.2516,0.0,0.0,0.0,0.0,0.0,0.0,0.0,0.0,0.0,0.0,0.0,3.2718,3.1794,3.1572,3.2072,3.2149,3.1566,3.2312,3.2849,3.2842,3.2911,3.2918,3.2875,3.3056,3.3737,3.5142,3.5462,3.5868,3.6663,3.688,3.6174,3.4366,3.4001,3.3563,3.2216,3.0966,3.0256,2.9866,2.985,2.9692,2.9299,2.9186,2.9784,3.1809,3.1751,3.1685,3.1814,3.2041,3.2448,3.3082,3.2976,3.3473,3.439,3.4514,3.4202,3.4277,3.3784,3.34,3.316,3.315,3.3038,3.2722,3.2509,3.2459,4.873,4.9104,4.9262,4.9332,0.0,4.8919,4.8521,4.8029,4.6592,4.5921,4.592,4.6531,4.655,4.6146,4.6146,4.6146,4.6165,4.6588,4.6361,4.5577,4.5994,4.5748,4.4895,4.4895,4.4895,4.4895,4.4895,4.4895,4.4895,4.4895,4.4687,4.4289,4.4308,4.4289,4.427,4.3484,4.2714,4.1944,4.116,4.0553,4.0172,3.8822,3.7872,3.7325,3.5987,0.0,0.0,0.0,0.0,0.0,0.0,0.0,0.0,3.3705,0.0,3.3629,3.4005,3.4306,3.4462,3.446,3.4683,3.5215,3.4557,3.3541,3.2313,3.3472,3.3969,3.3237,3.3673,3.4164,3.4526,3.3875,3.3712,3.4436,3.4237,3.4617,3.6055,3.6381,3.6552,3.6959,3.7339,3.6941,3.5393,3.5556,3.4914,3.3121,3.2365,3.1675,3.0903,2.9791,2.8844,2.8521,2.9141,2.9779,3.042,3.0373,3.0144,3.0483,3.0564,3.0903,3.1635,3.176,3.2099,3.3205,3.3455,3.3517,3.3481,3.315,3.2908,3.2908,3.2908,3.2908,3.29,3.2737,3.2629,4.9472,4.9521,4.9771,4.9893,4.9848,4.9191,4.9279,4.9834,0.0,0.0,0.0,4.7574,4.7536,4.7397,4.7397,4.7397,4.7397,4.7548,4.7112,4.6209,4.6354,4.588,4.4914,4.4895,4.4895,4.4895,4.4895,4.4895,4.4895,4.4895,4.4895,4.4895,4.4895,4.4901,4.4875,4.4334,4.3713,4.305,4.2185,4.1394,4.074,3.9545,3.8569,3.7857,3.6594,3.5839,3.5634,3.5564,3.5119,3.4284,3.4762,3.4793,3.4182,3.4684,3.5005,3.5027,3.573,3.6165,3.6113,3.6233,3.6209,3.6029,3.6138,3.5465,3.3673,3.4939,3.5594,3.5059,3.5015,3.5305,3.5938,3.4689,3.4273,3.5478,3.4997,3.5186,3.6534,3.6941,3.7031,3.723,3.7774,3.782,3.6824,3.715,3.6951,3.4909,3.3952,3.3579,3.201,3.0287,2.9111,2.8783,2.9486,3.0098,2.9444,2.9226,2.9183,2.9244,2.9226,2.928,2.9619,3.0093,3.0807,3.201,3.2489,3.2846,3.2926,3.2926,3.2908,3.2908,3.2908,3.2908,3.2908,3.2908,3.2892,4.9817,4.9831,4.9872,4.9893,4.9893,4.9779,4.9779,4.9886,4.9694,4.8791,4.746,4.8199,4.8104,4.7397,4.7397,4.7397,4.746,4.8168,4.7687,4.6266,4.6923,4.6392,4.4933,4.4895,4.4895,4.4895,4.4895,4.4895,4.4895,4.4895,4.4895,4.4895,4.4895,4.4925,4.4979,4.4929,4.4897,4.4799,4.3314,4.2506,4.2426,4.0893,3.9918,3.9512,3.7773,3.6706,3.6502,3.6189,3.5933,3.578,3.582,3.5786,3.5695,3.5771,3.5813,3.5789,3.6498,3.691,3.6874,3.7474,3.7575,3.6959,3.7458,3.7441,3.6514,3.6013,3.6029,3.657,3.6524,3.6705,3.6769,3.591,3.5134,3.4906,3.4689,3.4979,3.5993,3.6661,3.724,3.7766,3.811,3.7584,3.6337,3.6156,3.5677,3.4069,3.3615,3.2729,3.1419,3.1111,3.0681,2.9612,2.9419,2.9233,2.8641,2.8374,2.8445,2.8381,2.8427,2.8898,3.0093,3.0379,3.1028,3.2428,3.2793,3.289,3.2908,3.2908,3.2908,3.2908,3.2908,3.2908,3.2908,3.2908,3.2908,5.0341,4.9931,4.9893,4.9932,4.9965,4.9979,5.0011,5.0011,4.9992,4.9535,4.8843,4.9166,4.9128,4.8768,4.8749,4.8768,4.8768,4.9191,4.8464,4.6948,4.7252,4.6562,4.5063,4.4949,4.4962,4.4968,4.4932,4.4932,4.4949,4.4949,4.498,4.5016,4.5003,4.5033,4.5062,4.5125,4.517,4.5178,4.4022,4.3418,4.3419,4.1667,4.0465,3.9911,3.8458,3.7336,3.6623,3.6837,3.6688,3.6065,3.6401,3.6391,3.5983,3.6326,3.6523,3.6517,3.7261,3.7698,3.7673,3.7991,3.8037,3.7683,3.7983,3.8055,3.7701,3.6914,3.6417,3.6345,3.5983,3.59,3.6236,3.524,3.486,3.5846,3.5522,3.5776,3.687,3.7403,3.744,3.7059,3.7295,3.7061,3.5839,3.572,3.5515,3.4576,3.3774,3.2581,3.1347,3.1444,3.1023,2.9262,2.9094,2.9023,2.8356,2.8189,2.8189,2.8189,2.8189,2.8838,3.0139,3.0478,3.1153,3.2507,3.289,3.2908,3.2908,3.2908,3.2908,3.2908,3.2908,3.2908,3.2908,3.2908,3.2908,5.0742,4.9952,4.9952,4.9978,5.0031,5.0082,5.0101,5.0101,5.0101,5.0044,4.994,4.9933,4.9959,4.9952,4.9933,4.9952,4.9952,4.9952,4.9048,4.7562,4.7498,4.6649,4.5166,4.5033,4.5033,4.5009,4.4961,4.498,4.5009,4.5014,4.5057,4.5103,4.5103,4.5108,4.5144,4.517,4.5203,4.5181,4.4621,4.4202,4.3944,4.2343,4.1103,4.0292,3.9394,3.8383,3.7354,3.7757,3.7627,3.6817,3.724,3.7238,3.6701,3.7122,3.7445,3.7518,3.802,3.8344,3.8299,3.8224,3.82,3.82,3.82,3.82,3.8146,3.7466,3.6759,3.612,3.562,3.5439,3.5649,3.4798,3.4697,3.648,3.6381,3.6427,3.7458,3.7828,3.7403,3.6156,3.6363,3.6393,3.5678,3.5546,3.557,3.5276,3.4181,3.2953,3.1979,3.1714,3.0761,2.9141,2.8873,2.9023,2.8374,2.8189,2.8189,2.8189,2.8189,2.8802,2.9808,3.0218,3.0868,3.2132,3.2579,3.2668,3.2819,3.2908,3.2908,3.2908,3.2908,3.2908,3.2908,3.2908,3.2908,5.0875,5.0139,5.0082,5.0089,5.0089,5.0101,5.0108,5.0108,5.0101,5.0095,5.0089,5.0082,5.0082,5.0082,5.0076,5.0076,5.0076,5.0082,4.9163,4.7705,4.7603,4.6695,4.5173,4.5097,4.5097,4.5097,4.5085,4.5085,4.5097,4.5103,4.5103,4.5103,4.5103,4.5136,4.5162,4.5197,4.5224,4.5272,4.522,4.4781,4.3987,4.3118,4.2234,4.1375,4.0959,4.0361,3.9393,3.9226,3.9021,3.8906,3.8804,3.8776,3.8695,3.8769,3.8799,3.878,3.8873,3.884,3.8577,3.833,3.8234,3.82,3.8234,3.8234,3.8189,3.75,3.7003,3.6814,3.6796,3.6371,3.5902,3.5569,3.5576,3.5902,3.6453,3.6697,3.6381,3.6679,3.6751,3.5938,3.5884,3.5587,3.4976,3.5174,3.5449,3.5157,3.4167,3.3053,3.1854,3.1375,3.0672,2.8969,2.888,2.8969,2.8392,2.8189,2.8189,2.8189,2.8189,2.8659,2.9326,2.9672,3.0011,3.1385,3.1803,3.2025,3.2507,3.289,3.2811,3.2739,3.2801,3.2908,3.2908,3.2908,3.2908,5.0881,5.012,5.0101,5.0126,5.017,5.0207,5.0225,5.0219,5.0219,5.0219,5.0219,5.0219,5.0157,5.0101,5.0101,5.0101,5.0101,5.0101,4.9207,4.7691,4.7631,4.6773,4.5273,4.5159,4.5159,4.5153,4.5125,4.5106,4.5159,4.5197,4.5213,4.5233,4.5227,4.5243,4.527,4.5246,4.5265,4.523,4.523,4.5077,4.4671,4.3883,4.3049,4.2247,4.1556,4.0698,3.9795,3.9533,3.9337,3.9107,3.9034,3.9001,3.9001,3.9001,3.9001,3.9001,3.9001,3.8945,3.8854,3.873,3.8688,3.8662,3.8662,3.8612,3.8462,3.8262,3.7873,3.7086,3.658,3.5965,3.5305,3.5514,3.5794,3.5848,3.6101,3.6508,3.7196,3.6616,3.612,3.5822,3.5388,3.4956,3.4604,3.4639,3.4518,3.3937,3.293,3.1862,3.1064,3.0243,2.9283,2.8534,2.8517,2.8552,2.826,2.8189,2.8189,2.8189,2.8189,2.8499,2.913,2.9387,2.9797,3.0825,3.0957,3.1082,3.1332,3.151,3.1564,3.2,3.2686,3.2908,3.2908,3.2908,3.2908,5.0939,5.0215,5.0158,5.0188,5.0237,5.0284,5.0296,5.0296,5.0296,5.0296,5.0296,5.0296,5.0249,5.0164,5.0139,5.0043,4.9872,5.0043,4.911,4.7477,4.7575,4.6835,4.5358,4.5238,4.5219,4.5213,4.5181,4.5175,4.5224,4.5281,4.5283,4.5283,4.5283,4.5283,4.5283,4.5283,4.5256,4.5203,4.5192,4.5192,4.508,4.4538,4.382,4.3051,4.237,4.1393,4.0132,4.004,3.9801,3.9275,3.9255,3.9255,3.9255,3.9236,3.9255,3.9223,3.9183,3.9143,3.9124,3.9049,3.9001,3.9001,3.9001,3.8922,3.8778,3.8875,3.8545,3.7625,3.6897,3.63,3.5483,3.5783,3.6174,3.6409,3.6445,3.6924,3.7611,3.659,3.583,3.5739,3.5142,3.4659,3.4638,3.4337,3.3819,3.3397,3.2232,3.0908,3.0605,2.9812,2.913,2.8392,2.8392,2.8463,2.8267,2.8189,2.8189,2.8189,2.8189,2.8392,2.8976,2.9023,2.9315,2.9986,3.0093,3.0379,3.0771,3.071,3.0789,3.1564,3.2311,3.2872,3.2908,3.2908,3.2908,5.1092,5.0328,5.029,5.0271,5.0277,5.0264,5.0258,5.0105,5.0201,5.0239,5.0225,5.0239,5.0277,5.0303,5.0259,4.9889,4.9341,4.9921,4.8923,4.6899,4.7401,4.6877,4.5354,4.5277,4.5297,4.5272,4.5281,4.5286,4.5291,4.5283,4.5283,4.5283,4.5297,4.5277,4.5297,4.5272,4.527,4.5186,4.5181,4.517,4.5095,4.4994,4.4561,4.3915,4.3779,4.287,4.1437,4.1148,4.0725,3.9899,3.982,3.9826,3.9832,3.9826,3.982,3.9866,3.9636,3.9489,3.9496,3.9234,3.9049,3.9029,3.9077,3.9015,3.8994,3.9049,3.8899,3.8524,3.8369,3.7911,3.7029,3.6884,3.7186,3.7729,3.7947,3.7693,3.7176,3.6427,3.5884,3.575,3.5214,3.4904,3.5341,3.4251,3.3821,3.376,3.3321,3.2289,3.1118,3.1091,3.0365,2.9094,2.8809,2.9076,2.841,2.8189,2.8189,2.8189,2.8213,2.8231,2.8213,2.8338,2.8809,2.9148,2.9326,2.9683,3.0229,3.0628,3.0868,3.15,3.2311,3.2775,3.289,3.2908,3.2908,5.0588,5.0296,5.0296,5.0015,4.9543,4.9524,4.9232,4.873,4.8711,4.9041,4.9486,4.9543,4.9805,5.0296,5.0296,5.0149,4.9862,4.9677,4.8716,4.7373,4.7087,4.6385,4.5397,4.5283,4.5283,4.5283,4.5283,4.5283,4.5283,4.5283,4.5283,4.5297,4.5265,4.5249,4.5219,4.5192,4.5142,4.5085,4.508,4.5049,4.5026,4.5022,4.4862,4.4587,4.4066,4.321,4.2049,4.1484,4.1061,4.0739,4.0222,3.9895,3.9895,3.9895,4.0165,4.0595,4.0125,4.0004,4.0414,3.9966,3.958,3.958,3.958,3.9495,3.9389,3.9452,3.9389,3.9006,3.9066,3.8776,3.8219,3.7887,3.7665,3.7458,3.7448,3.7575,3.7476,3.6653,3.5975,3.6309,3.5866,3.531,3.4922,3.4385,3.3916,3.3468,3.2822,3.2135,3.154,3.1257,3.0731,2.9929,2.9505,2.9308,2.9076,2.8481,2.8189,2.8189,2.8206,2.8213,2.8189,2.8189,2.857,2.8641,2.8731,2.8838,2.9373,3.0129,3.0475,3.0993,3.1857,3.265,3.289,3.2908,3.2908,4.9977,4.957,4.9786,4.9448,4.8716,4.8697,4.8334,4.7813,4.7794,4.8138,4.8659,4.897,4.927,4.9519,4.9786,4.9729,4.95,4.918,4.834,4.7054,4.6648,4.608,4.5416,4.5283,4.5283,4.5283,4.5283,4.5283,4.5283,4.5283,4.5297,4.527,4.5233,4.5181,4.5164,4.5125,4.5055,4.5022,4.501,4.4985,4.4967,4.498,4.498,4.4879,4.4388,4.3682,4.2861,4.2274,4.1863,4.1554,4.1018,4.0715,4.0715,4.0449,4.0696,4.1359,4.0525,4.0279,4.0948,4.0374,3.9895,3.9895,3.9889,3.9804,3.9677,3.9792,3.9641,3.9351,3.9332,3.9279,3.8825,3.8476,3.8079,3.7517,3.7367,3.7593,3.8019,3.6997,3.657,3.6777,3.6516,3.5824,3.5072,3.4713,3.4109,3.3214,3.2642,3.2255,3.1818,3.1645,3.1155,3.0717,3.0427,2.9991,2.9655,2.9194,2.8577,2.8463,2.8403,2.8349,2.8296,2.826,2.8224,2.8206,2.8189,2.8189,2.8624,2.9433,3.0022,3.0504,3.1367,3.2329,3.2596,3.2908,3.2944,4.9299,4.8136,4.873,4.856,4.7823,4.7783,4.7794,4.7603,4.7616,4.7622,4.7857,4.8588,4.8506,4.8214,4.8793,4.864,4.8118,4.8525,4.7709,4.5837,4.6156,4.6003,4.534,4.5283,4.5283,4.5283,4.5283,4.5283,4.5283,4.5291,4.527,4.5208,4.5186,4.5148,4.5108,4.5085,4.5043,4.5016,4.4998,4.4955,4.4926,4.4901,4.4901,4.4901,4.4819,4.4459,4.372,4.3606,4.3152,4.2501,4.2293,4.235,4.2103,4.1592,4.1573,4.2009,4.0866,4.0449,4.1042,4.0436,3.9895,3.9895,3.9895,3.9889,3.9867,3.9878,3.9781,3.9569,3.9514,3.937,3.9061,3.8796,3.8504,3.8239,3.8071,3.8118,3.8046,3.752,3.7013,3.7059,3.7005,3.6669,3.5902,3.5181,3.4437,3.3656,3.317,3.28,3.2293,3.2427,3.2222,3.1462,3.1153,3.0947,3.0453,2.9934,2.9308,2.8791,2.8713,2.8634,2.8563,2.8517,2.8374,2.8338,2.8206,2.8224,2.8695,2.9462,3.0129,3.07,3.1457,3.2186,3.2579,3.2926,3.3025,4.8479,4.8016,4.7922,4.7427,4.6704,4.6829,4.6615,4.6099,4.6085,4.6385,4.6877,4.7188,4.7455,4.7813,4.8099,4.7723,4.6972,4.7169,4.6844,4.6156,4.5818,4.5583,4.5335,4.5283,4.5283,4.5283,4.5283,4.5283,4.5291,4.5265,4.5233,4.5186,4.5108,4.5043,4.502,4.4979,4.4937,4.4925,4.4944,4.4932,4.4895,4.4895,4.4895,4.4895,4.4895,4.4762,4.4516,4.4004,4.3581,4.3284,4.271,4.2388,4.235,4.216,4.2445,4.2994,4.1725,4.1156,4.1706,4.0734,3.9951,3.9914,3.9919,3.9895,3.9895,3.9895,3.9867,3.977,3.977,3.964,3.9408,3.9292,3.8982,3.8507,3.8313,3.8217,3.8182,3.7965,3.7865,3.782,3.782,3.7458,3.6715,3.5892,3.5075,3.4199,3.3679,3.3148,3.2913,3.296,3.3106,3.2505,3.2293,3.1861,3.1318,3.0869,3.0438,2.9869,2.959,2.9084,2.8934,2.8802,2.8641,2.8374,2.8249,2.8392,2.8855,2.9444,3.0111,3.1046,3.1928,3.2436,3.2783,3.3025,3.3203,4.756,4.6769,4.6863,4.6354,4.554,4.5754,4.5605,4.5148,4.5109,4.5464,4.6026,4.6385,4.6609,4.6915,4.7182,4.6839,4.6118,4.6042,4.6061,4.6003,4.5588,4.5302,4.5283,4.5283,4.5283,4.5283,4.5283,4.5283,4.5277,4.523,4.5186,4.5129,4.5062,4.4998,4.4961,4.4919,4.4895,4.4895,4.4895,4.4895,4.4895,4.4895,4.4895,4.4895,4.4895,4.4895,4.4876,4.4383,4.4137,4.408,4.3587,4.3335,4.3316,4.3095,4.3265,4.3619,4.2748,4.2009,4.2615,4.1643,4.0828,4.0809,4.0563,4.0393,4.0317,4.0165,3.9895,3.9895,3.987,3.9826,3.9664,3.9526,3.9261,3.8811,3.8507,3.8332,3.8251,3.82,3.82,3.8164,3.8164,3.7792,3.7095,3.6643,3.5726,3.4767,3.4106,3.3579,3.3355,3.3244,3.3229,3.3149,3.2879,3.2446,3.2053,3.1772,3.1563,3.1092,3.0657,2.9919,2.9412,2.9237,2.9076,2.8481,2.8206,2.8213,2.8624,2.9344,3.004,3.1179,3.2107,3.2632,3.2961,3.3364,3.3517,4.6536,4.4665,4.5544,4.5379,4.4537,4.477,4.49,4.4812,4.4868,4.5084,4.5485,4.6042,4.6023,4.564,4.6194,4.6042,4.5436,4.5397,4.5411,4.5416,4.5302,4.5283,4.5283,4.5283,4.5283,4.5283,4.5283,4.5283,4.5283,4.5224,4.517,4.512,4.5038,4.4967,4.4925,4.4901,4.4895,4.4895,4.4895,4.4895,4.4895,4.4895,4.4895,4.4895,4.4895,4.4895,4.4876,4.48,4.4819,4.4876,4.4724,4.463,4.4687,4.4156,4.4118,4.468,4.3335,4.3013,4.3316,4.2672,4.216,4.2066,4.1567,4.1207,4.1018,4.0639,4.0279,4.0146,4.0084,4.0041,3.9991,3.9744,3.942,3.9029,3.8673,3.8417,3.8251,3.82,3.82,3.82,3.8172,3.7955,3.7249,3.7049,3.6212,3.526,3.4651,3.4065,3.3686,3.3521,3.3381,3.3265,3.316,3.2972,3.2567,3.2563,3.2364,3.2107,3.1663,3.0979,3.0119,2.983,2.9415,2.8802,2.8517,2.8445,2.8695,2.9558,3.0058,3.07,3.1599,3.2489,3.3061,3.3364,3.3766,4.5224,4.464,4.4575,4.4386,4.4181,4.4611,4.4788,4.4818,4.5045,4.5145,4.5362,4.5507,4.5515,4.5335,4.5507,4.5474,4.534,4.5283,4.5283,4.5283,4.5283,4.5283,4.5283,4.5283,4.5283,4.5283,4.5283,4.5283,4.5283,4.5243,4.5205,4.517,4.5043,4.4985,4.4961,4.4919,4.4895,4.4895,4.4895,4.4895,4.4895,4.4895,4.4895,4.4895,4.4895,4.4895,4.4895,4.4895,4.4895,4.4895,4.4895,4.4895,4.4876,4.4668,4.463,4.4649,4.4023,4.3436,4.3487,4.2956,4.2482,4.2388,4.2274,4.1814,4.127,4.1554,4.1383,4.1061,4.0853,4.0836,4.073,4.0189,3.962,3.9036,3.8589,3.8289,3.8234,3.82,3.82,3.82,3.82,3.8055,3.7828,3.7357,3.6842,3.6194,3.5346,3.4571,3.4263,3.3602,3.3382,3.3407,3.3327,3.3255,3.3175,3.3233,3.316,3.301,3.2654,3.2194,3.1305,3.0612,3.0001,2.9319,2.948,2.948,2.9736,3.0279,3.0468,3.0593,3.1796,3.2953,3.2908,3.3114,3.3802,4.4498,4.4193,4.4047,4.3926,4.3852,4.4275,4.4464,4.4498,4.4662,4.4833,4.4923,4.5065,4.5093,4.5104,4.5235,4.5297,4.5283,4.5283,4.5283,4.5283,4.5283,4.5283,4.5283,4.5283,4.5283,4.5283,4.5283,4.5291,4.5265,4.5233,4.517,4.5095,4.5032,4.4979,4.4943,4.4919,4.4895,4.4895,4.4895,4.4895,4.4895,4.4895,4.4895,4.4895,4.4895,4.4895,4.4895,4.4895,4.4895,4.4895,4.4895,4.4895,4.4895,4.4895,4.4895,4.4876,4.444,4.4213,4.4137,4.3714,4.3487,4.3392,4.3208,4.2735,4.2369,4.2426,4.2086,4.1585,4.1523,4.1418,4.1167,4.0439,3.9593,3.8902,3.8428,3.8209,3.82,3.82,3.82,3.82,3.82,3.82,3.82,3.7748,3.7393,3.686,3.5866,3.5395,3.5015,3.4146,3.3603,3.3784,3.3657,3.3523,3.3469,3.3498,3.3385,3.3297,3.3146,3.2811,3.2112,3.126,3.0605,3.0118,3.0361,3.0496,3.0504,3.06,3.0832,3.1332,3.2481,3.2882,3.2775,3.3025,3.3713,4.4158,4.3532,4.3812,4.3781,4.3582,4.3862,4.4074,4.401,4.414,4.4257,4.4471,4.4688,4.4807,4.4825,4.5093,4.527,4.5297,4.5283,4.5283,4.5283,4.5283,4.5283,4.5283,4.5283,4.5283,4.5283,4.5283,4.5275,4.5254,4.5213,4.5153,4.5078,4.5051,4.4992,4.4949,4.4907,4.4895,4.4895,4.4895,4.4895,4.4895,4.4895,4.4895,4.4895,4.4895,4.4895,4.4895,4.4895,4.4895,4.4895,4.4895,4.4895,4.4895,4.4895,4.4895,4.4895,4.4838,4.4781,4.4857,4.4706,4.4762,4.4592,4.4118,4.3758,4.3481,4.306,4.263,4.2145,4.2015,4.1723,4.1091,4.0317,3.9513,3.8791,3.836,3.8225,3.82,3.82,3.82,3.82,3.82,3.82,3.82,3.8146,3.7947,3.7466,3.657,3.6091,3.5675,3.4969,3.4635,3.4671,3.4345,3.3838,3.3766,3.3712,3.3552,3.3388,3.33,3.3,3.2414,3.1686,3.112,3.0872,3.1204,3.1018,3.0539,3.0743,3.1207,3.1439,3.2178,3.2374,3.2464,3.3025,3.3642,4.3653,4.3496,4.3573,4.3546,4.3575,4.3836,4.3997,4.4013,4.4206,4.4282,4.439,4.4452,4.4611,4.4776,4.4862,4.5059,4.5235,4.524,4.5283,4.5283,4.5283,4.5283,4.5297,4.5291,4.5283,4.5283,4.5283,4.5291,4.5281,4.527,4.5251,4.5213,4.512,4.508,4.5051,4.4943,4.4895,4.4895,4.4895,4.4895,4.4895,4.4895,4.4895,4.4895,4.4895,4.4895,4.4895,4.4895,4.4895,4.4895,4.4895,4.4895,4.4895,4.4895,4.4895,4.4895,4.4895,4.4895,4.4895,4.4895,4.4895,4.4857,4.4687,4.4364,4.3759,4.3901,4.3545,4.3071,4.2653,4.205,4.0871,4.0156,3.9562,3.8949,3.8518,3.8309,3.8218,3.8218,3.82,3.82,3.82,3.82,3.82,3.82,3.8037,3.7828,3.7375,3.6824,3.6298,3.5747,3.5432,3.5269,3.5124,3.4599,3.4081,3.4074,3.404,3.387,3.3716,3.3524,3.2929,3.2409,3.1954,3.1916,3.2128,3.1719,3.1135,3.1571,3.2204,3.2053,3.1867,3.2232,3.2624,3.3114,3.3328,4.3488,4.3488,4.3488,4.3488,4.3522,4.3682,4.3773,4.3779,4.3902,4.3988,4.4026,4.4132,4.4301,4.4418,4.4546,4.4745,4.4838,4.4875,4.4862,4.4887,4.4957,4.5057,4.5121,4.523,4.5283,4.5277,4.5283,4.5272,4.5256,4.5286,4.527,4.5227,4.5159,4.5131,4.5097,4.4991,4.4943,4.4931,4.4907,4.4895,4.4895,4.4895,4.4895,4.4895,4.4895,4.4895,4.4895,4.4895,4.4895,4.4895,4.4895,4.4895,4.4895,4.4895,4.4895,4.4895,4.4895,4.4895,4.4895,4.4895,4.4895,4.4895,4.4895,4.4687,4.439,4.4506,4.4356,4.3909,4.349,4.285,4.136,4.0881,4.0312,3.9689,3.9336,3.9134,3.8798,3.8436,3.82,3.82,3.82,3.82,3.82,3.82,3.8182,3.8009,3.7448,3.6959,3.7132,3.6562,3.5866,3.5649,3.5703,3.5359,3.4617,3.4454,3.4602,3.4503,3.4423,3.4202,3.3841,3.3353,3.2906,3.2809,3.2639,3.2541,3.2178,3.2686,3.264,3.216,3.2017,3.2382,3.265,3.2829,3.3025,4.3488,4.3488,4.3488,4.3488,4.3488,4.3496,4.3513,4.3505,4.3488,4.3563,4.3539,4.3822,4.3944,4.4064,4.4243,4.4327,4.4411,4.4431,4.4511,4.4538,4.4663,4.4751,4.4801,4.4965,4.507,4.5167,4.5251,4.527,4.5246,4.5251,4.5265,4.5183,4.517,4.517,4.5114,4.5043,4.4997,4.4998,4.4956,4.4907,4.4895,4.4895,4.4895,4.4895,4.4895,4.4895,4.4895,4.4895,4.4895,4.4895,4.4895,4.4895,4.4895,4.4895,4.4895,4.4895,4.4895,4.4895,4.4895,4.4895,4.4895,4.4895,4.4895,4.4895,4.4845,4.4733,4.4553,4.4392,4.4014,4.346,4.2361,4.1729,4.1207,4.0627,4.0437,4.0148,3.9504,3.8762,3.8508,3.82,3.82,3.82,3.82,3.82,3.82,3.811,3.7557,3.7249,3.7421,3.7421,3.6761,3.6518,3.6689,3.6417,3.5701,3.4943,3.509,3.5108,3.5054,3.4811,3.4553,3.4011,3.3479,3.3116,3.2929,3.2802,3.2745,3.2825,3.2628,3.2122,3.2196,3.2614,3.265,3.2543,3.2775,4.3488,4.3488,4.3488,4.3488,4.3488,4.3488,4.3488,4.3488,4.3488,4.3488,4.3496,4.3556,4.3747,4.3931,4.4017,4.4169,4.4289,4.4303,4.432,4.4327,4.4425,4.4478,4.4505,4.4604,4.4599,4.4676,4.4965,4.5189,4.5205,4.5277,4.5197,4.5238,4.5192,4.5145,4.5164,4.5125,4.5049,4.5039,4.5004,4.4955,4.4913,4.4895,4.4895,4.4895,4.4895,4.4895,4.4895,4.4895,4.4895,4.4895,4.4895,4.4895,4.4895,4.4895,4.4895,4.4895,4.4895,4.4895,4.4895,4.4895,4.4895,4.4895,4.4895,4.4895,4.4852,4.4688,4.4577,4.4348,4.3915,4.3225,4.2301,4.2022,4.1379,4.0809,4.0628,4.0374,3.9731,3.9396,3.8979,3.8508,3.8363,3.82,3.82,3.82,3.82,3.82,3.7947,3.7738,3.7838,3.7929,3.7748,3.7729,3.7892,3.7421,3.685,3.6001,3.5605,3.5659,3.5561,3.5274,3.4955,3.4464,3.4026,3.363,3.3242,3.2972,3.2967,3.2971,3.285,3.2541,3.2676,3.2846,3.2775,3.2721,3.2882,4.3488,4.3488,4.3488,4.3488,4.3488,4.3488,4.3488,4.3488,4.3488,4.3488,4.3488,4.3496,4.3573,4.3716,4.373,4.3825,4.3918,4.3941,4.3923,4.3938,4.4095,4.4184,4.4228,4.4311,4.4395,4.4465,4.4701,4.4838,4.4826,4.4814,4.4935,4.5036,4.5005,4.5076,4.5208,4.5186,4.5136,4.5103,4.5055,4.5028,4.4962,4.4938,4.4895,4.4895,4.4895,4.4895,4.4895,4.4895,4.4895,4.4895,4.4895,4.4895,4.4895,4.4895,4.4895,4.4895,4.4895,4.4895,4.4895,4.4895,4.4895,4.4895,4.4895,4.4895,4.487,4.477,4.463,4.4484,4.4061,4.3517,4.3155,4.2602,4.215,4.1868,4.1687,4.1307,4.0809,4.061,3.9876,3.8961,3.8526,3.8345,3.82,3.82,3.82,3.82,3.82,3.82,3.82,3.8182,3.8146,3.7802,3.7729,3.7476,3.7031,3.6552,3.6246,3.6319,3.6202,3.5897,3.5459,3.5037,3.4562,3.4112,3.3715,3.3101,3.3018,3.2979,3.2948,3.296,3.2961,3.2971,3.2918,3.2944,3.3221,4.3488,4.3488,4.3488,4.3488,4.3488,4.3488,4.3488,4.3488,4.3488,4.3488,4.3488,4.3488,4.3488,4.3496,4.3496,4.3505,4.3488,4.3522,4.3548,4.3607,4.3771,4.3892,4.3952,4.408,4.4154,4.4121,4.4169,4.4278,4.4478,4.4484,4.4565,4.4682,4.472,4.4868,4.5074,4.5081,4.5148,4.5175,4.5134,4.5097,4.5033,4.4986,4.4944,4.4919,4.4938,4.4913,4.4895,4.4895,4.4895,4.4895,4.4895,4.4895,4.4895,4.4895,4.4895,4.4895,4.4895,4.4895,4.4895,4.4895,4.4895,4.4895,4.4895,4.4895,4.4889,4.4864,4.4827,4.4707,4.4263,4.381,4.3537,4.3212,4.2912,4.2801,4.271,4.2556,4.1823,4.1288,4.0754,3.9876,3.8979,3.8508,3.84,3.82,3.82,3.82,3.82,3.82,3.82,3.82,3.8055,3.7476,3.7212,3.7114,3.6896,3.6788,3.6798,3.7178,3.6989,3.6719,3.6198,3.567,3.513,3.4522,3.3599,3.3057,3.3018,3.3076,3.315,3.3198,3.3148,3.3338,3.3713,3.3838,3.399,4.3488,4.3488,4.3488,4.3488,4.3488,4.3488,4.3488,4.3488,4.3488,4.3488,4.3488,4.3488,4.3488,4.3488,4.3488,4.3488,4.3488,4.3488,4.3488,4.3532,4.3573,4.3615,4.36,4.3592,4.3703,4.3736,4.3679,4.3941,4.4195,4.4318,4.4395,4.4443,4.4459,4.4579,4.4831,4.4904,4.4982,4.514,4.5181,4.5172,4.5103,4.508,4.5045,4.4997,4.4973,4.4949,4.4875,4.4844,4.48,4.4901,4.4876,4.4876,4.4895,4.4895,4.4895,4.4895,4.4895,4.4895,4.4819,4.4857,4.48,4.4781,4.4857,4.4876,4.4895,4.4883,4.4789,4.4457,4.4132,4.3841,4.359,4.316,4.2957,4.291,4.2892,4.252,4.1986,4.1986,4.1442,4.0773,3.9894,3.9088,3.8617,3.84,3.82,3.82,3.8237,3.8309,3.8255,3.8273,3.8218,3.7711,3.7375,3.7258,3.6977,3.6824,3.7023,3.7639,3.7486,3.7296,3.6938,3.6326,3.551,3.4786,3.3908,3.34,3.347,3.3526,3.3488,3.3456,3.3453,3.4079,3.4882,3.4892,3.4696,4.3075,4.3488,4.3488,4.3488,4.3488,4.3488,4.3488,4.3488,4.3488,4.3488,4.3488,4.3488,4.3488,4.3488,4.3488,4.3488,4.3488,4.3488,4.3488,4.3488,4.3488,4.3488,4.3496,4.3488,4.3488,4.3488,4.3496,4.3597,4.3855,4.3934,4.3957,4.4155,4.4177,4.4322,4.4559,4.472,4.4843,4.4988,4.5106,4.5194,4.5153,4.5125,4.5097,4.5043,4.5033,4.4966,4.4842,4.4414,4.454,4.466,4.4578,4.4502,4.4799,4.4881,4.4737,4.4213,4.4213,4.4194,4.4245,4.4649,4.4611,4.4478,4.4592,4.4895,4.4895,4.4883,4.4864,4.4707,4.4388,4.405,4.3705,4.3388,4.3105,4.2967,4.292,4.2747,4.2429,4.2429,4.2158,4.1479,4.0845,4.0166,3.9496,3.9224,3.9206,3.9297,3.926,3.9224,3.888,3.8472,3.8363,3.8146,3.7856,3.7657,3.7285,3.6995,3.6977,3.7349,3.7331,3.7242,3.7479,3.6967,3.6121,3.5624,3.5138,3.4654,3.4224,3.3786,3.356,3.3637,3.3776,3.4526,3.5213,3.5231,3.5195,4.2955,4.3488,4.3286,4.3304,4.3488,4.3488,4.3488,4.3488,4.3488,4.3488,4.3488,4.3488,4.3488,4.3488,4.3488,4.3488,4.3488,4.3488,4.3488,4.3488,4.3488,4.3488,4.3488,4.3488,4.3488,4.3488,4.3488,4.3531,4.3513,4.3556,4.3681,4.3852,4.386,4.4037,4.4294,4.4471,4.4611,4.4843,4.4994,4.5098,4.5197,4.5194,4.5153,4.512,4.5066,4.4937,4.4629,4.4177,4.4177,4.3955,4.4034,4.4079,4.4463,4.4477,4.4289,4.3809,4.36,4.3379,4.3606,4.3947,4.4137,4.4175,4.4364,4.4895,4.4895,4.4895,4.4814,4.4707,4.4518,4.422,4.3935,4.36,4.3328,4.3087,4.2958,4.2929,4.2892,4.2747,4.2611,4.2176,4.1705,4.1497,4.089,4.0383,4.0274,4.0392,4.0338,4.0157,3.9586,3.8907,3.8544,3.8381,3.811,3.7929,3.772,3.7393,3.7303,3.723,3.7249,3.7367,3.7668,3.7426,3.6688,3.6343,3.6107,3.5519,3.4851,3.4201,3.3695,3.4424,3.5007,3.5025,3.532,3.5463,3.5801,4.3451,4.346,4.2671,4.2808,4.3488,4.3488,4.3469,4.3488,4.3451,4.3451,4.3488,4.3488,4.3488,4.3488,4.3488,4.3488,4.3488,4.3488,4.3488,4.3488,4.3488,4.3488,4.3488,4.3488,4.3488,4.3488,4.3488,4.3488,4.3488,4.3488,4.3513,4.3549,4.3615,4.3781,4.3963,4.4143,4.4409,4.4657,4.4843,4.5011,4.5167,4.5235,4.5235,4.5197,4.5124,4.4797,4.3961,4.3728,4.3453,4.3065,4.3198,4.3516,4.3729,4.3776,4.3587,4.3258,4.2937,4.2678,4.2748,4.3379,4.3758,4.3966,4.4364,4.4895,4.4895,4.4895,4.4758,4.459,4.4525,4.4332,4.3989,4.3632,4.3466,4.3258,4.3069,4.292,4.291,4.2892,4.2783,4.2674,4.2448,4.2158,4.2067,4.1488,4.118,4.1289,4.0854,4.0646,4.0075,3.9432,3.8889,3.8563,3.8291,3.8146,3.8164,3.7983,3.7784,3.7748,3.7766,3.7874,3.8047,3.7624,3.7209,3.6951,3.665,3.6051,3.5635,3.5389,3.5403,3.5925,3.6185,3.5953,3.6203,3.6604,3.6872,4.1579,4.1956,4.1175,4.1854,4.3469,4.2974,4.3029,4.3359,4.2992,4.3057,4.3488,4.3488,4.3488,4.3488,4.3488,4.3488,4.3488,4.3488,4.3488,4.3488,4.3488,4.3488,4.3488,4.3488,4.3488,4.3488,4.3488,4.3488,4.3488,4.3488,4.3488,4.3488,4.3488,4.3548,4.3707,4.391,4.4225,4.4491,4.472,4.4898,4.4988,4.52,4.5272,4.5251,4.5203,4.4729,4.3967,4.3314,4.293,4.2599,4.2403,4.2606,4.2942,4.2959,4.279,4.2561,4.2335,4.2255,4.2141,4.2962,4.3872,4.4421,4.4724,4.4895,4.4895,4.4895,4.4864,4.4739,4.4688,4.4523,4.4234,4.392,4.364,4.3397,4.3169,4.2976,4.291,4.291,4.2892,4.2783,4.2747,4.2611,4.2592,4.2556,4.2303,4.2085,4.1587,4.1053,4.0447,3.9858,3.9287,3.8689,3.8381,3.8218,3.82,3.82,3.82,3.82,3.82,3.82,3.82,3.8164,3.7777,3.7517,3.7348,3.7038,3.6846,3.6851,3.6737,3.6434,3.6488,3.6595,3.7032,3.7559,3.7595,4.0579,4.1003,4.0498,4.1222,4.2653,4.2433,4.2598,4.3029,4.2845,4.2928,4.3488,4.3488,4.3488,4.3488,4.3488,4.3488,4.3488,4.3488,4.3488,4.3488,4.3488,4.3488,4.3488,4.3488,4.3488,4.3488,4.3488,4.3488,4.3488,4.3488,4.3488,4.3488,4.3488,4.3496,4.3556,4.3714,4.401,4.426,4.4436,4.4643,4.4701,4.4868,4.5081,4.5011,4.4804,4.4244,4.3454,4.2725,4.207,4.1777,4.1632,4.1686,4.2031,4.2256,4.2117,4.2003,4.1997,4.2166,4.2412,4.2905,4.408,4.4668,4.4838,4.4895,4.4895,4.4895,4.487,4.4877,4.4852,4.4751,4.4436,4.4065,4.3721,4.344,4.3105,4.291,4.291,4.291,4.291,4.2873,4.2855,4.2837,4.2819,4.2783,4.2692,4.2529,4.2339,4.1605,4.0691,4.0111,3.9532,3.8961,3.8418,3.8291,3.82,3.82,3.82,3.82,3.82,3.82,3.82,3.82,3.82,3.794,3.7853,3.7974,3.7806,3.7475,3.6932,3.6344,3.6631,3.7032,3.7211,3.7595,3.7595,4.0959,4.1103,4.095,4.0987,4.1217,4.1966,4.2323,4.2543,4.3102,4.3414,4.3488,4.3488,4.3414,4.3396,4.3304,4.3286,4.3304,4.3359,4.3433,4.3469,4.3488,4.3488,4.3488,4.3488,4.3488,4.3488,4.3488,4.3488,4.3488,4.3488,4.3488,4.3488,4.3488,4.3488,4.3488,4.3496,4.3691,4.3947,4.4014,4.4221,4.4374,4.4479,4.4657,4.4461,4.4302,4.3779,4.2699,4.2247,4.1622,4.1057,4.1115,4.1251,4.1509,4.1884,4.1995,4.2115,4.2263,4.2759,4.3506,4.3682,4.4194,4.4775,4.4895,4.4895,4.4895,4.4895,4.4895,4.4895,4.4852,4.4707,4.4416,4.4072,4.3721,4.344,4.3105,4.291,4.291,4.291,4.291,4.291,4.291,4.291,4.2892,4.2892,4.2892,4.2855,4.2892,4.223,4.1153,4.0392,3.9822,3.9142,3.8563,3.8309,3.82,3.82,3.82,3.82,3.82,3.82,3.82,3.82,3.8192,3.8192,3.8149,3.8088,3.8044,3.7938,3.7422,3.7004,3.7184,3.747,3.7577,3.7595,3.7595,3.9187,3.8751,3.8983,3.912,3.9354,4.0848,4.1801,4.2396,4.3094,4.3488,4.3488,4.3488,4.3139,4.2882,4.2717,4.269,4.269,4.2735,4.2827,4.3451,4.3433,4.3488,4.3488,4.3488,4.3488,4.3488,4.3488,4.3488,4.3488,4.3488,4.3488,4.3488,4.3488,4.3488,4.3488,4.3488,4.359,4.3707,4.3852,4.4056,4.4143,4.4263,4.4192,4.3854,4.3892,4.3303,4.2039,4.1795,4.1548,4.0914,4.102,4.0926,4.1113,4.1445,4.1102,4.1395,4.1714,4.313,4.4035,4.4516,4.4586,4.4819,4.4895,4.4895,4.4895,4.4895,4.4895,4.4821,4.4694,4.4557,4.4374,4.3839,4.349,4.3388,4.3132,4.2967,4.291,4.291,4.291,4.291,4.291,4.291,4.291,4.291,4.291,4.291,4.291,4.2466,4.1506,4.0773,4.013,3.936,3.8744,3.84,3.82,3.82,3.82,3.82,3.82,3.82,3.82,3.82,3.82,3.8192,3.8192,3.8174,3.8114,3.8044,3.795,3.7801,3.773,3.764,3.7631,3.7622,3.7595,3.7348,3.7149,3.7405,3.767,3.8137,3.9746,4.1006,4.1857,4.2433,4.2671,4.2635,4.2643,4.2405,4.1984,4.1874,4.1874,4.1874,4.1892,4.2304,4.2983,4.3084,4.3231,4.3396,4.3442,4.3488,4.3469,4.3469,4.3488,4.3488,4.3488,4.3488,4.3488,4.3488,4.3488,4.3488,4.3496,4.3496,4.3582,4.3724,4.3787,4.3849,4.3872,4.3711,4.3394,4.324,4.303,4.2027,4.1739,4.19,4.1383,4.1123,4.085,4.0966,4.1071,4.0865,4.1461,4.2531,4.3828,4.4604,4.4838,4.4838,4.4876,4.4895,4.4895,4.4895,4.4895,4.4777,4.4669,4.4511,4.4285,4.4046,4.3523,4.3371,4.3248,4.3096,4.2938,4.291,4.291,4.291,4.291,4.291,4.291,4.291,4.291,4.291,4.291,4.2892,4.2375,4.185,4.1153,4.0347,3.9523,3.8925,3.8617,3.8363,3.82,3.82,3.82,3.82,3.82,3.82,3.82,3.82,3.82,3.82,3.8192,3.8157,3.8088,3.8011,3.7925,3.7828,3.7757,3.7712,3.7694,3.7676,3.5666,3.6283,3.6363,3.6747,3.7524,3.8516,3.9801,4.106,4.1134,4.1172,4.1136,4.1196,4.1037,4.1004,4.0993,4.0941,4.0923,4.0958,4.1445,4.198,4.2182,4.262,4.2949,4.3086,4.2947,4.3176,4.3212,4.2965,4.3359,4.3488,4.3488,4.3488,4.3488,4.3488,4.3488,4.3488,4.3488,4.354,4.3548,4.3599,4.3631,4.357,4.3288,4.3018,4.2898,4.2618,4.204,4.1935,4.1807,4.168,4.1751,4.1312,4.1333,4.1842,4.2337,4.2963,4.3931,4.4284,4.4471,4.4459,4.4687,4.4649,4.4838,4.4876,4.4895,4.4889,4.4808,4.461,4.4409,4.3986,4.3607,4.3414,4.3222,4.3105,4.2976,4.291,4.291,4.291,4.291,4.291,4.291,4.291,4.291,4.291,4.291,4.291,4.2819,4.2411,4.1913,4.1433,4.0573,3.9577,3.9088,3.8834,3.8581,3.8273,3.82,3.82,3.82,3.82,3.82,3.82,3.82,3.82,3.82,3.8192,3.8183,3.814,3.8071,3.7985,3.796,3.7881,3.7837,3.7828,3.7828,3.5031,3.4807,3.507,3.5313,3.557,3.6157,3.8136,4.0854,4.0833,4.0659,4.0677,4.0357,3.9752,3.9437,3.9374,3.9401,3.9498,3.9722,4.0094,4.0581,4.1118,4.1308,4.1533,4.1757,4.1777,4.1856,4.1947,4.2278,4.2745,4.3112,4.3488,4.3488,4.3378,4.3414,4.3414,4.3469,4.3451,4.3488,4.3488,4.3488,4.3488,4.3488,4.3065,4.2728,4.2908,4.2548,4.201,4.2206,4.2233,4.2531,4.2126,4.182,4.253,4.2247,4.2127,4.2348,4.2861,4.3164,4.322,4.3714,4.4081,4.4264,4.4561,4.4857,4.4895,4.4883,4.484,4.4603,4.4346,4.3948,4.3615,4.338,4.3169,4.3004,4.2919,4.291,4.291,4.291,4.291,4.291,4.291,4.291,4.291,4.291,4.291,4.291,4.2765,4.2411,4.2004,4.1551,4.07,3.9677,3.916,3.8871,3.8563,3.8255,3.8218,3.82,3.8218,3.8218,3.82,3.82,3.82,3.82,3.82,3.82,3.82,3.8149,3.8105,3.814,3.8116,3.8039,3.7969,3.7961,3.7952,3.3707,3.363,3.3862,3.4244,3.47,3.4925,3.659,3.8513,3.8522,3.8409,3.8364,3.8098,3.7756,3.7435,3.7614,3.781,3.7837,3.8376,3.8897,3.9544,3.9941,4.0346,4.048,4.0683,4.1027,4.1011,4.1205,4.169,4.2249,4.2965,4.3451,4.2965,4.3029,4.3029,4.2983,4.2965,4.3194,4.3359,4.3488,4.3488,4.3488,4.3469,4.2992,4.2588,4.2892,4.2419,4.1994,4.2403,4.2648,4.3016,4.2511,4.237,4.2462,4.1609,4.1338,4.155,4.1977,4.2134,4.2302,4.3058,4.336,4.3731,4.4297,4.4775,4.4895,4.4889,4.4783,4.4603,4.4318,4.3997,4.3654,4.3353,4.3132,4.292,4.2901,4.291,4.291,4.291,4.291,4.291,4.291,4.291,4.291,4.291,4.291,4.291,4.2892,4.2729,4.2285,4.1786,4.0773,3.9623,3.9215,3.8871,3.8617,3.8508,3.8472,3.8454,3.8309,3.8291,3.8237,3.8237,3.8255,3.8237,3.82,3.8218,3.8237,3.8218,3.8192,3.82,3.82,3.8133,3.8082,3.8082,3.8064,3.1866,3.2494,3.2676,3.3339,3.437,3.4381,3.4597,3.4848,3.5018,3.5114,3.5302,3.5241,3.5367,3.5581,3.5962,3.6317,3.6602,3.711,3.7715,3.8494,3.8697,3.9076,3.9599,4.022,3.9997,4.0517,4.0826,4.0711,4.1929,4.2515,4.258,4.2223,4.2213,4.2194,4.2194,4.2433,4.2727,4.3102,4.3359,4.3488,4.3488,4.3396,4.3139,4.2451,4.2351,4.2274,4.2266,4.2345,4.2445,4.2913,4.309,4.275,4.1779,4.1137,4.0963,4.0678,4.114,4.1128,4.1355,4.1981,4.2641,4.323,4.4045,4.4416,4.451,4.4808,4.4789,4.4675,4.4409,4.408,4.3735,4.3456,4.3222,4.2995,4.2919,4.291,4.291,4.291,4.291,4.291,4.291,4.291,4.291,4.291,4.291,4.291,4.2892,4.2837,4.2429,4.1913,4.1189,3.9985,3.9641,3.9423,3.9297,3.9152,3.8907,3.8762,3.8617,3.8327,3.8263,3.8255,3.8291,3.8327,3.8363,3.8291,3.8273,3.8237,3.82,3.82,3.82,3.82,3.8183,3.8167,3.815,3.0021,3.0288,3.0945,3.1718,3.2423,3.2502,3.2218,3.1847,3.2395,3.3414,3.456,3.4463,3.4322,3.4353,3.458,3.4947,3.5481,3.5921,3.643,3.696,3.7329,3.7614,3.7909,3.8311,3.8536,3.8688,3.8976,3.9665,4.0645,4.1299,4.1672,4.1415,4.1397,4.1379,4.1434,4.1791,4.2359,4.2616,4.3102,4.3341,4.3378,4.3341,4.3139,4.2561,4.2296,4.2296,4.2278,4.2276,4.2695,4.3266,4.3441,4.2932,4.1975,4.1881,4.1209,4.0407,4.0314,4.0169,4.0194,4.0704,4.1397,4.2045,4.2746,4.3449,4.4008,4.4555,4.4783,4.4662,4.4453,4.4106,4.3807,4.354,4.3275,4.3087,4.291,4.291,4.291,4.291,4.291,4.291,4.291,4.291,4.291,4.291,4.291,4.291,4.291,4.2765,4.2311,4.1868,4.1967,4.1026,4.0447,4.0193,3.9922,3.9749,3.9478,3.9351,3.9242,3.8834,3.8372,3.8707,3.9015,3.8671,3.8544,3.849,3.84,3.8237,3.82,3.82,3.82,3.82,3.82,3.8183,3.8192,2.935,2.9471,2.9954,3.0386,3.0731,3.0791,3.0541,3.0282,3.061,3.1366,3.2413,3.2802,3.3068,3.3206,3.3413,3.3741,3.4315,3.4789,3.5104,3.5474,3.588,3.6154,3.6357,3.6656,3.7371,3.7666,3.8449,3.9214,3.9634,4.0586,4.1103,4.0663,4.0571,4.0547,4.0655,4.1287,4.1737,4.1809,4.2551,4.2919,4.3047,4.3139,4.3029,4.2543,4.2304,4.2286,4.2131,4.2084,4.2268,4.2516,4.2516,4.1807,4.1049,4.0801,4.0299,3.9558,3.92,3.9151,3.9086,3.9501,4.0266,4.0947,4.1668,4.2482,4.3174,4.369,4.4015,4.3938,4.3849,4.3555,4.3598,4.3423,4.3213,4.3004,4.292,4.291,4.291,4.291,4.291,4.291,4.291,4.291,4.291,4.291,4.291,4.291,4.291,4.291,4.2411,4.2022,4.2076,4.1931,4.1243,4.0392,3.9749,3.9822,4.0012,3.9903,3.9713,3.9405,3.907,3.9514,3.9749,3.8997,3.8617,3.877,3.8635,3.8309,3.82,3.82,3.82,3.82,3.82,3.8237,3.8345,2.8922,2.9257,2.9334,2.942,2.9506,2.9541,2.9472,2.942,2.9506,2.9489,2.9765,3.099,3.1455,3.1886,3.2265,3.2628,3.3105,3.3777,3.3985,3.4244,3.4308,3.4915,3.5341,3.5615,3.6187,3.6943,3.777,3.8339,3.8827,3.9566,3.9788,3.9677,3.9643,3.9574,3.985,4.0347,4.0775,4.094,4.1442,4.2047,4.2451,4.2818,4.2616,4.2396,4.2213,4.2158,4.1892,4.1837,4.1754,4.1704,4.1662,4.0956,4.0378,4.0109,3.9388,3.8806,3.8515,3.8449,3.8467,3.9034,3.9554,4.0087,4.0855,4.1501,4.2153,4.2625,4.2948,4.3177,4.311,4.33,4.3363,4.3362,4.3169,4.2976,4.2939,4.291,4.291,4.291,4.291,4.291,4.291,4.291,4.291,4.291,4.291,4.291,4.291,4.291,4.2801,4.252,4.2393,4.2212,4.175,4.0854,4.0057,3.9786,4.0121,3.993,3.9695,3.9677,3.9731,3.9967,3.9713,3.8798,3.8563,3.8979,3.8689,3.8255,3.82,3.82,3.82,3.82,3.82,3.8273,3.8526,2.7384,2.8593,2.856,2.8878,2.9394,2.9472,2.9179,2.8765,2.923,2.9187,2.8912,2.9446,3.0231,3.0921,3.0998,3.1464,3.2369,3.2817,3.3517,3.4044,3.3603,3.3999,3.4424,3.4637,3.4807,3.5507,3.6315,3.6757,3.7369,3.772,3.8184,3.8695,3.811,3.804,3.8164,3.8771,3.9417,3.955,4.0231,4.0964,4.1115,4.1499,4.1911,4.1809,4.1654,4.1452,4.1379,4.1846,4.169,4.1549,4.1384,4.066,4.011,3.9716,3.9285,3.8525,3.82,3.82,3.8447,3.8588,3.8961,3.9382,3.9991,4.0233,4.0821,4.1283,4.1699,4.2256,4.2431,4.3093,4.3255,4.3326,4.3204,4.3004,4.2919,4.291,4.291,4.291,4.291,4.291,4.291,4.291,4.291,4.291,4.291,4.291,4.291,4.291,4.291,4.2801,4.2674,4.2393,4.2103,4.1949,4.1397,4.0093,3.9985,3.9804,3.9776,3.9912,4.0039,4.0184,3.9731,3.8707,3.8943,3.9514,3.9043,3.82,3.82,3.82,3.82,3.82,3.82,3.8291,3.8508]}]]